<?xml version="1.0" encoding="UTF-8" standalone="no" ?>
<gpx xmlns="http://www.topografix.com/GPX/1/1" xmlns:xsi="http://www.w3.org/2001/XMLSchema-instance" xsi:schemaLocation="http://www.topografix.com/GPX/1/1 http://www.topografix.com/GPX/1/1/gpx.xsd" version="1.1" creator="VisuGPX - https://www.visugpx.com">
  <metadata>
    <name>Chanteloup - Triel par GR2 et retour par bords de Seine</name>
  </metadata>
  <trk>
    <name><![CDATA[Parcours du 11/10/2022 12h27]]></name>
    <extensions>
      <line xmlns="http://www.topografix.com/GPX/gpx_style/0/2">
        <color>0000FF</color>
        <width>4</width>
      </line>
    </extensions>
    <trkseg>
      <trkpt lat="48.97381" lon="2.03539">
        <ele>64.6</ele>
        <time>2022-10-11T07:42:46Z</time>
      </trkpt>
      <trkpt lat="48.97403" lon="2.03493">
        <ele>65.6</ele>
      </trkpt>
      <trkpt lat="48.97443" lon="2.03523">
        <ele>67.9</ele>
      </trkpt>
      <trkpt lat="48.9745" lon="2.03479">
        <ele>68.3</ele>
      </trkpt>
      <trkpt lat="48.97458" lon="2.03465">
        <ele>69.1</ele>
      </trkpt>
      <trkpt lat="48.97473" lon="2.03461">
        <ele>70</ele>
      </trkpt>
      <trkpt lat="48.97496" lon="2.03427">
        <ele>70.8</ele>
        <time>2022-10-11T07:42:47Z</time>
      </trkpt>
      <trkpt lat="48.97552" lon="2.03458">
        <ele>73.3</ele>
        <time>2022-10-11T07:43:01Z</time>
      </trkpt>
      <trkpt lat="48.97576" lon="2.03443">
        <ele>71.9</ele>
        <time>2022-10-11T07:43:03Z</time>
      </trkpt>
      <trkpt lat="48.9758" lon="2.03439">
        <ele>72.9</ele>
        <time>2022-10-11T07:43:07Z</time>
      </trkpt>
      <trkpt lat="48.97583" lon="2.03433">
        <ele>73</ele>
        <time>2022-10-11T07:43:12Z</time>
      </trkpt>
      <trkpt lat="48.97586" lon="2.03427">
        <ele>72.9</ele>
        <time>2022-10-11T07:43:17Z</time>
      </trkpt>
      <trkpt lat="48.97588" lon="2.0342">
        <ele>72.6</ele>
        <time>2022-10-11T07:43:21Z</time>
      </trkpt>
      <trkpt lat="48.97589" lon="2.03411">
        <ele>72.3</ele>
        <time>2022-10-11T07:43:25Z</time>
      </trkpt>
      <trkpt lat="48.97594" lon="2.0341">
        <ele>71.9</ele>
        <time>2022-10-11T07:43:31Z</time>
      </trkpt>
      <trkpt lat="48.97597" lon="2.03405">
        <ele>70.6</ele>
        <time>2022-10-11T07:43:36Z</time>
      </trkpt>
      <trkpt lat="48.97601" lon="2.03398">
        <ele>70.2</ele>
        <time>2022-10-11T07:43:40Z</time>
      </trkpt>
      <trkpt lat="48.97604" lon="2.03391">
        <ele>70.5</ele>
        <time>2022-10-11T07:43:45Z</time>
      </trkpt>
      <trkpt lat="48.97608" lon="2.03384">
        <ele>70.6</ele>
        <time>2022-10-11T07:43:49Z</time>
      </trkpt>
      <trkpt lat="48.97611" lon="2.03379">
        <ele>70.5</ele>
        <time>2022-10-11T07:43:53Z</time>
      </trkpt>
      <trkpt lat="48.97614" lon="2.03373">
        <ele>70.2</ele>
        <time>2022-10-11T07:43:57Z</time>
      </trkpt>
      <trkpt lat="48.97617" lon="2.03368">
        <ele>69.7</ele>
        <time>2022-10-11T07:44:01Z</time>
      </trkpt>
      <trkpt lat="48.97622" lon="2.03362">
        <ele>70.2</ele>
        <time>2022-10-11T07:44:06Z</time>
      </trkpt>
      <trkpt lat="48.97626" lon="2.03356">
        <ele>71.6</ele>
        <time>2022-10-11T07:44:10Z</time>
      </trkpt>
      <trkpt lat="48.9763" lon="2.0335">
        <ele>71.8</ele>
        <time>2022-10-11T07:44:14Z</time>
      </trkpt>
      <trkpt lat="48.97633" lon="2.03345">
        <ele>72</ele>
        <time>2022-10-11T07:44:17Z</time>
      </trkpt>
      <trkpt lat="48.97637" lon="2.03337">
        <ele>71.8</ele>
        <time>2022-10-11T07:44:21Z</time>
      </trkpt>
      <trkpt lat="48.97641" lon="2.03332">
        <ele>71.9</ele>
        <time>2022-10-11T07:44:25Z</time>
      </trkpt>
      <trkpt lat="48.97644" lon="2.03327">
        <ele>72.3</ele>
        <time>2022-10-11T07:44:28Z</time>
      </trkpt>
      <trkpt lat="48.97647" lon="2.03321">
        <ele>72.7</ele>
        <time>2022-10-11T07:44:31Z</time>
      </trkpt>
      <trkpt lat="48.97651" lon="2.03314">
        <ele>72.8</ele>
        <time>2022-10-11T07:44:36Z</time>
      </trkpt>
      <trkpt lat="48.97654" lon="2.03308">
        <ele>73.5</ele>
        <time>2022-10-11T07:44:41Z</time>
      </trkpt>
      <trkpt lat="48.97657" lon="2.03301">
        <ele>73.7</ele>
        <time>2022-10-11T07:44:46Z</time>
      </trkpt>
      <trkpt lat="48.9766" lon="2.03296">
        <ele>73.7</ele>
        <time>2022-10-11T07:44:50Z</time>
      </trkpt>
      <trkpt lat="48.97663" lon="2.03289">
        <ele>74</ele>
        <time>2022-10-11T07:44:54Z</time>
      </trkpt>
      <trkpt lat="48.97666" lon="2.03283">
        <ele>74.4</ele>
        <time>2022-10-11T07:44:58Z</time>
      </trkpt>
      <trkpt lat="48.97669" lon="2.03278">
        <ele>74.7</ele>
        <time>2022-10-11T07:45:01Z</time>
      </trkpt>
      <trkpt lat="48.97674" lon="2.03273">
        <ele>75.4</ele>
        <time>2022-10-11T07:45:05Z</time>
      </trkpt>
      <trkpt lat="48.97678" lon="2.03265">
        <ele>76.6</ele>
        <time>2022-10-11T07:45:09Z</time>
      </trkpt>
      <trkpt lat="48.97681" lon="2.03259">
        <ele>77</ele>
        <time>2022-10-11T07:45:12Z</time>
      </trkpt>
      <trkpt lat="48.97686" lon="2.03254">
        <ele>78.2</ele>
        <time>2022-10-11T07:45:16Z</time>
      </trkpt>
      <trkpt lat="48.9769" lon="2.03246">
        <ele>79</ele>
        <time>2022-10-11T07:45:21Z</time>
      </trkpt>
      <trkpt lat="48.97695" lon="2.03241">
        <ele>79.3</ele>
        <time>2022-10-11T07:45:26Z</time>
      </trkpt>
      <trkpt lat="48.97701" lon="2.03242">
        <ele>81.4</ele>
        <time>2022-10-11T07:45:30Z</time>
      </trkpt>
      <trkpt lat="48.97706" lon="2.0324">
        <ele>84.5</ele>
        <time>2022-10-11T07:45:35Z</time>
      </trkpt>
      <trkpt lat="48.97711" lon="2.03237">
        <ele>86.1</ele>
        <time>2022-10-11T07:45:39Z</time>
      </trkpt>
      <trkpt lat="48.97714" lon="2.03231">
        <ele>87.4</ele>
        <time>2022-10-11T07:45:42Z</time>
      </trkpt>
      <trkpt lat="48.97717" lon="2.03225">
        <ele>88.5</ele>
        <time>2022-10-11T07:45:46Z</time>
      </trkpt>
      <trkpt lat="48.97721" lon="2.03217">
        <ele>88.3</ele>
        <time>2022-10-11T07:45:51Z</time>
      </trkpt>
      <trkpt lat="48.97724" lon="2.03209">
        <ele>87.6</ele>
        <time>2022-10-11T07:45:56Z</time>
      </trkpt>
      <trkpt lat="48.97727" lon="2.03202">
        <ele>86.7</ele>
        <time>2022-10-11T07:46:01Z</time>
      </trkpt>
      <trkpt lat="48.97732" lon="2.03199">
        <ele>86.4</ele>
        <time>2022-10-11T07:46:05Z</time>
      </trkpt>
      <trkpt lat="48.97737" lon="2.03197">
        <ele>86.7</ele>
        <time>2022-10-11T07:46:10Z</time>
      </trkpt>
      <trkpt lat="48.97741" lon="2.03194">
        <ele>87.5</ele>
        <time>2022-10-11T07:46:15Z</time>
      </trkpt>
      <trkpt lat="48.97745" lon="2.03189">
        <ele>87.4</ele>
        <time>2022-10-11T07:46:19Z</time>
      </trkpt>
      <trkpt lat="48.9775" lon="2.03185">
        <ele>87.2</ele>
        <time>2022-10-11T07:46:24Z</time>
      </trkpt>
      <trkpt lat="48.97754" lon="2.03181">
        <ele>88.4</ele>
        <time>2022-10-11T07:46:28Z</time>
      </trkpt>
      <trkpt lat="48.97759" lon="2.03178">
        <ele>90.4</ele>
        <time>2022-10-11T07:46:31Z</time>
      </trkpt>
      <trkpt lat="48.97766" lon="2.03176">
        <ele>91.8</ele>
        <time>2022-10-11T07:46:36Z</time>
      </trkpt>
      <trkpt lat="48.97771" lon="2.03173">
        <ele>90.6</ele>
        <time>2022-10-11T07:46:41Z</time>
      </trkpt>
      <trkpt lat="48.97776" lon="2.0317">
        <ele>88.5</ele>
        <time>2022-10-11T07:46:46Z</time>
      </trkpt>
      <trkpt lat="48.9778" lon="2.03174">
        <ele>86.6</ele>
        <time>2022-10-11T07:46:50Z</time>
      </trkpt>
      <trkpt lat="48.97784" lon="2.03178">
        <ele>84.2</ele>
        <time>2022-10-11T07:46:54Z</time>
      </trkpt>
      <trkpt lat="48.97788" lon="2.03176">
        <ele>83.7</ele>
        <time>2022-10-11T07:46:58Z</time>
      </trkpt>
      <trkpt lat="48.97793" lon="2.03173">
        <ele>83.9</ele>
        <time>2022-10-11T07:47:01Z</time>
      </trkpt>
      <trkpt lat="48.97799" lon="2.0317">
        <ele>85.8</ele>
        <time>2022-10-11T07:47:06Z</time>
      </trkpt>
      <trkpt lat="48.97804" lon="2.03172">
        <ele>85.2</ele>
        <time>2022-10-11T07:47:10Z</time>
      </trkpt>
      <trkpt lat="48.97808" lon="2.03175">
        <ele>84.2</ele>
        <time>2022-10-11T07:47:14Z</time>
      </trkpt>
      <trkpt lat="48.97814" lon="2.03176">
        <ele>83.2</ele>
        <time>2022-10-11T07:47:18Z</time>
      </trkpt>
      <trkpt lat="48.97818" lon="2.03173">
        <ele>83.8</ele>
        <time>2022-10-11T07:47:21Z</time>
      </trkpt>
      <trkpt lat="48.97825" lon="2.0317">
        <ele>85</ele>
        <time>2022-10-11T07:47:26Z</time>
      </trkpt>
      <trkpt lat="48.97831" lon="2.03172">
        <ele>84.7</ele>
        <time>2022-10-11T07:47:31Z</time>
      </trkpt>
      <trkpt lat="48.97836" lon="2.03173">
        <ele>83.3</ele>
        <time>2022-10-11T07:47:35Z</time>
      </trkpt>
      <trkpt lat="48.9784" lon="2.03175">
        <ele>82.9</ele>
        <time>2022-10-11T07:47:38Z</time>
      </trkpt>
      <trkpt lat="48.97846" lon="2.03178">
        <ele>82.3</ele>
        <time>2022-10-11T07:47:43Z</time>
      </trkpt>
      <trkpt lat="48.97852" lon="2.03178">
        <ele>82</ele>
        <time>2022-10-11T07:47:47Z</time>
      </trkpt>
      <trkpt lat="48.97858" lon="2.03178">
        <ele>81.9</ele>
        <time>2022-10-11T07:47:51Z</time>
      </trkpt>
      <trkpt lat="48.97863" lon="2.03178">
        <ele>82</ele>
        <time>2022-10-11T07:47:55Z</time>
      </trkpt>
      <trkpt lat="48.9787" lon="2.0318">
        <ele>82.3</ele>
        <time>2022-10-11T07:48:00Z</time>
      </trkpt>
      <trkpt lat="48.97875" lon="2.03179">
        <ele>82</ele>
        <time>2022-10-11T07:48:04Z</time>
      </trkpt>
      <trkpt lat="48.9788" lon="2.03179">
        <ele>81.7</ele>
        <time>2022-10-11T07:48:08Z</time>
      </trkpt>
      <trkpt lat="48.97886" lon="2.0318">
        <ele>81.3</ele>
        <time>2022-10-11T07:48:11Z</time>
      </trkpt>
      <trkpt lat="48.97891" lon="2.03179">
        <ele>81.6</ele>
        <time>2022-10-11T07:48:16Z</time>
      </trkpt>
      <trkpt lat="48.97896" lon="2.03178">
        <ele>82</ele>
        <time>2022-10-11T07:48:20Z</time>
      </trkpt>
      <trkpt lat="48.97897" lon="2.0317">
        <ele>82.5</ele>
        <time>2022-10-11T07:48:25Z</time>
      </trkpt>
      <trkpt lat="48.97896" lon="2.03163">
        <ele>83</ele>
        <time>2022-10-11T07:48:29Z</time>
      </trkpt>
      <trkpt lat="48.97895" lon="2.03154">
        <ele>83.7</ele>
        <time>2022-10-11T07:48:33Z</time>
      </trkpt>
      <trkpt lat="48.97898" lon="2.03148">
        <ele>85.1</ele>
        <time>2022-10-11T07:48:38Z</time>
      </trkpt>
      <trkpt lat="48.97902" lon="2.03142">
        <ele>85.6</ele>
        <time>2022-10-11T07:48:42Z</time>
      </trkpt>
      <trkpt lat="48.97901" lon="2.03133">
        <ele>86.9</ele>
        <time>2022-10-11T07:48:46Z</time>
      </trkpt>
      <trkpt lat="48.97899" lon="2.03126">
        <ele>87.7</ele>
        <time>2022-10-11T07:48:50Z</time>
      </trkpt>
      <trkpt lat="48.97898" lon="2.03119">
        <ele>88.1</ele>
        <time>2022-10-11T07:48:54Z</time>
      </trkpt>
      <trkpt lat="48.97896" lon="2.03112">
        <ele>87.7</ele>
        <time>2022-10-11T07:48:57Z</time>
      </trkpt>
      <trkpt lat="48.97893" lon="2.03104">
        <ele>87.5</ele>
        <time>2022-10-11T07:49:01Z</time>
      </trkpt>
      <trkpt lat="48.9789" lon="2.03098">
        <ele>86.5</ele>
        <time>2022-10-11T07:49:06Z</time>
      </trkpt>
      <trkpt lat="48.97886" lon="2.03096">
        <ele>86.7</ele>
        <time>2022-10-11T07:49:09Z</time>
      </trkpt>
      <trkpt lat="48.97881" lon="2.03097">
        <ele>86.9</ele>
        <time>2022-10-11T07:49:13Z</time>
      </trkpt>
      <trkpt lat="48.97876" lon="2.03093">
        <ele>87.1</ele>
        <time>2022-10-11T07:49:20Z</time>
      </trkpt>
      <trkpt lat="48.97874" lon="2.03086">
        <ele>86.9</ele>
        <time>2022-10-11T07:49:24Z</time>
      </trkpt>
      <trkpt lat="48.97873" lon="2.03079">
        <ele>87</ele>
        <time>2022-10-11T07:49:27Z</time>
      </trkpt>
      <trkpt lat="48.97872" lon="2.03072">
        <ele>87.3</ele>
        <time>2022-10-11T07:49:31Z</time>
      </trkpt>
      <trkpt lat="48.97873" lon="2.03064">
        <ele>87.6</ele>
        <time>2022-10-11T07:49:34Z</time>
      </trkpt>
      <trkpt lat="48.97874" lon="2.03057">
        <ele>87.6</ele>
        <time>2022-10-11T07:49:37Z</time>
      </trkpt>
      <trkpt lat="48.97875" lon="2.03048">
        <ele>87.9</ele>
        <time>2022-10-11T07:49:41Z</time>
      </trkpt>
      <trkpt lat="48.97876" lon="2.0304">
        <ele>88.4</ele>
        <time>2022-10-11T07:49:46Z</time>
      </trkpt>
      <trkpt lat="48.97877" lon="2.03033">
        <ele>89.2</ele>
        <time>2022-10-11T07:49:49Z</time>
      </trkpt>
      <trkpt lat="48.97877" lon="2.03026">
        <ele>89.2</ele>
        <time>2022-10-11T07:49:52Z</time>
      </trkpt>
      <trkpt lat="48.97877" lon="2.03019">
        <ele>88.9</ele>
        <time>2022-10-11T07:49:56Z</time>
      </trkpt>
      <trkpt lat="48.97876" lon="2.03011">
        <ele>88.3</ele>
        <time>2022-10-11T07:50:00Z</time>
      </trkpt>
      <trkpt lat="48.97874" lon="2.03004">
        <ele>87.9</ele>
        <time>2022-10-11T07:50:04Z</time>
      </trkpt>
      <trkpt lat="48.97873" lon="2.02996">
        <ele>87.6</ele>
        <time>2022-10-11T07:50:07Z</time>
      </trkpt>
      <trkpt lat="48.97873" lon="2.02988">
        <ele>87.3</ele>
        <time>2022-10-11T07:50:11Z</time>
      </trkpt>
      <trkpt lat="48.97872" lon="2.0298">
        <ele>87.4</ele>
        <time>2022-10-11T07:50:16Z</time>
      </trkpt>
      <trkpt lat="48.9787" lon="2.02973">
        <ele>87.8</ele>
        <time>2022-10-11T07:50:20Z</time>
      </trkpt>
      <trkpt lat="48.97869" lon="2.02965">
        <ele>88.1</ele>
        <time>2022-10-11T07:50:26Z</time>
      </trkpt>
      <trkpt lat="48.9787" lon="2.02958">
        <ele>88.5</ele>
        <time>2022-10-11T07:50:30Z</time>
      </trkpt>
      <trkpt lat="48.97872" lon="2.0295">
        <ele>88.8</ele>
        <time>2022-10-11T07:50:34Z</time>
      </trkpt>
      <trkpt lat="48.97874" lon="2.02943">
        <ele>89.5</ele>
        <time>2022-10-11T07:50:38Z</time>
      </trkpt>
      <trkpt lat="48.97875" lon="2.02935">
        <ele>89.8</ele>
        <time>2022-10-11T07:50:42Z</time>
      </trkpt>
      <trkpt lat="48.97876" lon="2.02925">
        <ele>89.3</ele>
        <time>2022-10-11T07:50:47Z</time>
      </trkpt>
      <trkpt lat="48.97878" lon="2.02917">
        <ele>89.8</ele>
        <time>2022-10-11T07:50:52Z</time>
      </trkpt>
      <trkpt lat="48.9788" lon="2.02908">
        <ele>90.6</ele>
        <time>2022-10-11T07:50:57Z</time>
      </trkpt>
      <trkpt lat="48.97883" lon="2.02901">
        <ele>91</ele>
        <time>2022-10-11T07:51:02Z</time>
      </trkpt>
      <trkpt lat="48.97884" lon="2.02907">
        <ele>88.6</ele>
        <time>2022-10-11T07:51:09Z</time>
      </trkpt>
      <trkpt lat="48.97889" lon="2.02905">
        <ele>88.9</ele>
        <time>2022-10-11T07:51:14Z</time>
      </trkpt>
      <trkpt lat="48.97896" lon="2.02901">
        <ele>89.6</ele>
        <time>2022-10-11T07:51:17Z</time>
      </trkpt>
      <trkpt lat="48.97901" lon="2.02897">
        <ele>91.9</ele>
        <time>2022-10-11T07:51:22Z</time>
      </trkpt>
      <trkpt lat="48.97905" lon="2.02894">
        <ele>93.8</ele>
        <time>2022-10-11T07:51:25Z</time>
      </trkpt>
      <trkpt lat="48.97912" lon="2.02893">
        <ele>97</ele>
        <time>2022-10-11T07:51:29Z</time>
      </trkpt>
      <trkpt lat="48.97918" lon="2.02892">
        <ele>98.2</ele>
        <time>2022-10-11T07:51:33Z</time>
      </trkpt>
      <trkpt lat="48.97919" lon="2.02884">
        <ele>96.6</ele>
        <time>2022-10-11T07:51:38Z</time>
      </trkpt>
      <trkpt lat="48.97917" lon="2.02877">
        <ele>94.1</ele>
        <time>2022-10-11T07:51:43Z</time>
      </trkpt>
      <trkpt lat="48.97916" lon="2.02869">
        <ele>93.5</ele>
        <time>2022-10-11T07:51:47Z</time>
      </trkpt>
      <trkpt lat="48.97915" lon="2.0286">
        <ele>93.7</ele>
        <time>2022-10-11T07:51:52Z</time>
      </trkpt>
      <trkpt lat="48.97917" lon="2.02853">
        <ele>93.9</ele>
        <time>2022-10-11T07:51:56Z</time>
      </trkpt>
      <trkpt lat="48.97919" lon="2.02846">
        <ele>94.2</ele>
        <time>2022-10-11T07:52:00Z</time>
      </trkpt>
      <trkpt lat="48.97921" lon="2.02839">
        <ele>94.5</ele>
        <time>2022-10-11T07:52:04Z</time>
      </trkpt>
      <trkpt lat="48.97923" lon="2.02832">
        <ele>95</ele>
        <time>2022-10-11T07:52:08Z</time>
      </trkpt>
      <trkpt lat="48.97925" lon="2.02825">
        <ele>95.4</ele>
        <time>2022-10-11T07:52:12Z</time>
      </trkpt>
      <trkpt lat="48.97925" lon="2.02817">
        <ele>95.5</ele>
        <time>2022-10-11T07:52:16Z</time>
      </trkpt>
      <trkpt lat="48.97926" lon="2.0281">
        <ele>95.3</ele>
        <time>2022-10-11T07:52:20Z</time>
      </trkpt>
      <trkpt lat="48.97926" lon="2.02802">
        <ele>95.5</ele>
        <time>2022-10-11T07:52:23Z</time>
      </trkpt>
      <trkpt lat="48.97927" lon="2.02794">
        <ele>95.8</ele>
        <time>2022-10-11T07:52:28Z</time>
      </trkpt>
      <trkpt lat="48.97927" lon="2.02786">
        <ele>96.4</ele>
        <time>2022-10-11T07:52:32Z</time>
      </trkpt>
      <trkpt lat="48.9793" lon="2.02778">
        <ele>98.1</ele>
        <time>2022-10-11T07:52:36Z</time>
      </trkpt>
      <trkpt lat="48.97931" lon="2.0277">
        <ele>98.7</ele>
        <time>2022-10-11T07:52:41Z</time>
      </trkpt>
      <trkpt lat="48.97933" lon="2.02763">
        <ele>98.1</ele>
        <time>2022-10-11T07:52:45Z</time>
      </trkpt>
      <trkpt lat="48.97935" lon="2.02755">
        <ele>97.2</ele>
        <time>2022-10-11T07:52:49Z</time>
      </trkpt>
      <trkpt lat="48.97937" lon="2.02746">
        <ele>97.6</ele>
        <time>2022-10-11T07:52:54Z</time>
      </trkpt>
      <trkpt lat="48.97939" lon="2.02739">
        <ele>100</ele>
        <time>2022-10-11T07:52:58Z</time>
      </trkpt>
      <trkpt lat="48.97941" lon="2.02731">
        <ele>100.3</ele>
        <time>2022-10-11T07:53:02Z</time>
      </trkpt>
      <trkpt lat="48.97942" lon="2.02724">
        <ele>100</ele>
        <time>2022-10-11T07:53:05Z</time>
      </trkpt>
      <trkpt lat="48.97944" lon="2.02716">
        <ele>99.9</ele>
        <time>2022-10-11T07:53:09Z</time>
      </trkpt>
      <trkpt lat="48.97946" lon="2.02707">
        <ele>100.1</ele>
        <time>2022-10-11T07:53:14Z</time>
      </trkpt>
      <trkpt lat="48.97948" lon="2.02698">
        <ele>100.2</ele>
        <time>2022-10-11T07:53:18Z</time>
      </trkpt>
      <trkpt lat="48.97948" lon="2.02691">
        <ele>99.9</ele>
        <time>2022-10-11T07:53:23Z</time>
      </trkpt>
      <trkpt lat="48.97949" lon="2.02683">
        <ele>99.8</ele>
        <time>2022-10-11T07:53:27Z</time>
      </trkpt>
      <trkpt lat="48.9795" lon="2.02676">
        <ele>100.1</ele>
        <time>2022-10-11T07:53:30Z</time>
      </trkpt>
      <trkpt lat="48.97952" lon="2.02668">
        <ele>100.3</ele>
        <time>2022-10-11T07:53:34Z</time>
      </trkpt>
      <trkpt lat="48.97953" lon="2.02658">
        <ele>101.7</ele>
        <time>2022-10-11T07:53:39Z</time>
      </trkpt>
      <trkpt lat="48.97955" lon="2.0265">
        <ele>103.8</ele>
        <time>2022-10-11T07:53:44Z</time>
      </trkpt>
      <trkpt lat="48.97958" lon="2.02641">
        <ele>104.6</ele>
        <time>2022-10-11T07:53:48Z</time>
      </trkpt>
      <trkpt lat="48.97959" lon="2.02633">
        <ele>105.7</ele>
        <time>2022-10-11T07:53:54Z</time>
      </trkpt>
      <trkpt lat="48.97961" lon="2.02626">
        <ele>106.7</ele>
        <time>2022-10-11T07:53:58Z</time>
      </trkpt>
      <trkpt lat="48.97964" lon="2.02619">
        <ele>107.7</ele>
        <time>2022-10-11T07:54:02Z</time>
      </trkpt>
      <trkpt lat="48.97967" lon="2.02613">
        <ele>108</ele>
        <time>2022-10-11T07:54:06Z</time>
      </trkpt>
      <trkpt lat="48.97971" lon="2.02607">
        <ele>108</ele>
        <time>2022-10-11T07:54:11Z</time>
      </trkpt>
      <trkpt lat="48.97974" lon="2.026">
        <ele>108.2</ele>
        <time>2022-10-11T07:54:15Z</time>
      </trkpt>
      <trkpt lat="48.97977" lon="2.02594">
        <ele>108.4</ele>
        <time>2022-10-11T07:54:19Z</time>
      </trkpt>
      <trkpt lat="48.97982" lon="2.02587">
        <ele>108.8</ele>
        <time>2022-10-11T07:54:24Z</time>
      </trkpt>
      <trkpt lat="48.97986" lon="2.02582">
        <ele>107.9</ele>
        <time>2022-10-11T07:54:29Z</time>
      </trkpt>
      <trkpt lat="48.97989" lon="2.02575">
        <ele>107.2</ele>
        <time>2022-10-11T07:54:34Z</time>
      </trkpt>
      <trkpt lat="48.97993" lon="2.02568">
        <ele>106.9</ele>
        <time>2022-10-11T07:54:39Z</time>
      </trkpt>
      <trkpt lat="48.97997" lon="2.02562">
        <ele>106.2</ele>
        <time>2022-10-11T07:54:44Z</time>
      </trkpt>
      <trkpt lat="48.97999" lon="2.02554">
        <ele>105.8</ele>
        <time>2022-10-11T07:54:49Z</time>
      </trkpt>
      <trkpt lat="48.98002" lon="2.02546">
        <ele>105.8</ele>
        <time>2022-10-11T07:54:54Z</time>
      </trkpt>
      <trkpt lat="48.98004" lon="2.02538">
        <ele>105.5</ele>
        <time>2022-10-11T07:54:59Z</time>
      </trkpt>
      <trkpt lat="48.98007" lon="2.02531">
        <ele>105.4</ele>
        <time>2022-10-11T07:55:04Z</time>
      </trkpt>
      <trkpt lat="48.98011" lon="2.02524">
        <ele>104.5</ele>
        <time>2022-10-11T07:55:08Z</time>
      </trkpt>
      <trkpt lat="48.98014" lon="2.02516">
        <ele>104.3</ele>
        <time>2022-10-11T07:55:14Z</time>
      </trkpt>
      <trkpt lat="48.98017" lon="2.02506">
        <ele>104.2</ele>
        <time>2022-10-11T07:55:19Z</time>
      </trkpt>
      <trkpt lat="48.98018" lon="2.02496">
        <ele>104</ele>
        <time>2022-10-11T07:55:24Z</time>
      </trkpt>
      <trkpt lat="48.98019" lon="2.02489">
        <ele>103.5</ele>
        <time>2022-10-11T07:55:28Z</time>
      </trkpt>
      <trkpt lat="48.9802" lon="2.02482">
        <ele>102.8</ele>
        <time>2022-10-11T07:55:31Z</time>
      </trkpt>
      <trkpt lat="48.9802" lon="2.02474">
        <ele>102.9</ele>
        <time>2022-10-11T07:55:35Z</time>
      </trkpt>
      <trkpt lat="48.9802" lon="2.02467">
        <ele>103.1</ele>
        <time>2022-10-11T07:55:38Z</time>
      </trkpt>
      <trkpt lat="48.98021" lon="2.0246">
        <ele>103.8</ele>
        <time>2022-10-11T07:55:41Z</time>
      </trkpt>
      <trkpt lat="48.98022" lon="2.02451">
        <ele>104.6</ele>
        <time>2022-10-11T07:55:45Z</time>
      </trkpt>
      <trkpt lat="48.98023" lon="2.02443">
        <ele>105.8</ele>
        <time>2022-10-11T07:55:49Z</time>
      </trkpt>
      <trkpt lat="48.98024" lon="2.02435">
        <ele>106.3</ele>
        <time>2022-10-11T07:55:52Z</time>
      </trkpt>
      <trkpt lat="48.98025" lon="2.02427">
        <ele>106.3</ele>
        <time>2022-10-11T07:55:56Z</time>
      </trkpt>
      <trkpt lat="48.98025" lon="2.02419">
        <ele>106</ele>
        <time>2022-10-11T07:55:59Z</time>
      </trkpt>
      <trkpt lat="48.98025" lon="2.02409">
        <ele>106.5</ele>
        <time>2022-10-11T07:56:04Z</time>
      </trkpt>
      <trkpt lat="48.98027" lon="2.02403">
        <ele>107.6</ele>
        <time>2022-10-11T07:56:08Z</time>
      </trkpt>
      <trkpt lat="48.98032" lon="2.024">
        <ele>108.3</ele>
        <time>2022-10-11T07:56:12Z</time>
      </trkpt>
      <trkpt lat="48.98037" lon="2.02398">
        <ele>108.7</ele>
        <time>2022-10-11T07:56:16Z</time>
      </trkpt>
      <trkpt lat="48.98042" lon="2.02398">
        <ele>109.3</ele>
        <time>2022-10-11T07:56:21Z</time>
      </trkpt>
      <trkpt lat="48.98047" lon="2.02398">
        <ele>110.3</ele>
        <time>2022-10-11T07:56:26Z</time>
      </trkpt>
      <trkpt lat="48.98053" lon="2.02395">
        <ele>110.7</ele>
        <time>2022-10-11T07:56:32Z</time>
      </trkpt>
      <trkpt lat="48.98057" lon="2.02391">
        <ele>111.2</ele>
        <time>2022-10-11T07:56:36Z</time>
      </trkpt>
      <trkpt lat="48.98061" lon="2.02387">
        <ele>112.3</ele>
        <time>2022-10-11T07:56:42Z</time>
      </trkpt>
      <trkpt lat="48.98057" lon="2.02386">
        <ele>115.4</ele>
        <time>2022-10-11T07:57:02Z</time>
      </trkpt>
      <trkpt lat="48.98062" lon="2.02384">
        <ele>115.5</ele>
        <time>2022-10-11T07:57:37Z</time>
      </trkpt>
      <trkpt lat="48.98062" lon="2.02375">
        <ele>115.5</ele>
        <time>2022-10-11T07:57:44Z</time>
      </trkpt>
      <trkpt lat="48.98062" lon="2.02368">
        <ele>115.2</ele>
        <time>2022-10-11T07:57:49Z</time>
      </trkpt>
      <trkpt lat="48.98063" lon="2.0236">
        <ele>113.9</ele>
        <time>2022-10-11T07:57:55Z</time>
      </trkpt>
      <trkpt lat="48.98063" lon="2.02352">
        <ele>114</ele>
        <time>2022-10-11T07:57:59Z</time>
      </trkpt>
      <trkpt lat="48.98062" lon="2.02344">
        <ele>114.6</ele>
        <time>2022-10-11T07:58:05Z</time>
      </trkpt>
      <trkpt lat="48.98063" lon="2.02336">
        <ele>114.3</ele>
        <time>2022-10-11T07:58:09Z</time>
      </trkpt>
      <trkpt lat="48.98065" lon="2.02328">
        <ele>114</ele>
        <time>2022-10-11T07:58:14Z</time>
      </trkpt>
      <trkpt lat="48.98066" lon="2.0232">
        <ele>113.2</ele>
        <time>2022-10-11T07:58:19Z</time>
      </trkpt>
      <trkpt lat="48.98067" lon="2.02312">
        <ele>113</ele>
        <time>2022-10-11T07:58:25Z</time>
      </trkpt>
      <trkpt lat="48.98067" lon="2.02304">
        <ele>113.6</ele>
        <time>2022-10-11T07:58:29Z</time>
      </trkpt>
      <trkpt lat="48.98066" lon="2.02296">
        <ele>115.5</ele>
        <time>2022-10-11T07:58:34Z</time>
      </trkpt>
      <trkpt lat="48.98064" lon="2.02287">
        <ele>116.4</ele>
        <time>2022-10-11T07:58:40Z</time>
      </trkpt>
      <trkpt lat="48.98064" lon="2.02279">
        <ele>116.4</ele>
        <time>2022-10-11T07:58:45Z</time>
      </trkpt>
      <trkpt lat="48.98064" lon="2.02272">
        <ele>115.5</ele>
        <time>2022-10-11T07:58:49Z</time>
      </trkpt>
      <trkpt lat="48.98061" lon="2.02264">
        <ele>115</ele>
        <time>2022-10-11T07:58:55Z</time>
      </trkpt>
      <trkpt lat="48.98057" lon="2.02257">
        <ele>114.2</ele>
        <time>2022-10-11T07:59:00Z</time>
      </trkpt>
      <trkpt lat="48.98053" lon="2.0225">
        <ele>113.5</ele>
        <time>2022-10-11T07:59:05Z</time>
      </trkpt>
      <trkpt lat="48.9805" lon="2.02242">
        <ele>113.3</ele>
        <time>2022-10-11T07:59:10Z</time>
      </trkpt>
      <trkpt lat="48.98048" lon="2.02236">
        <ele>113.4</ele>
        <time>2022-10-11T07:59:14Z</time>
      </trkpt>
      <trkpt lat="48.98046" lon="2.0223">
        <ele>113.6</ele>
        <time>2022-10-11T07:59:18Z</time>
      </trkpt>
      <trkpt lat="48.98044" lon="2.02222">
        <ele>113.6</ele>
        <time>2022-10-11T07:59:23Z</time>
      </trkpt>
      <trkpt lat="48.98043" lon="2.02214">
        <ele>113.6</ele>
        <time>2022-10-11T07:59:27Z</time>
      </trkpt>
      <trkpt lat="48.98044" lon="2.02207">
        <ele>113.4</ele>
        <time>2022-10-11T07:59:31Z</time>
      </trkpt>
      <trkpt lat="48.98045" lon="2.02198">
        <ele>113.2</ele>
        <time>2022-10-11T07:59:35Z</time>
      </trkpt>
      <trkpt lat="48.98044" lon="2.02189">
        <ele>112.5</ele>
        <time>2022-10-11T07:59:40Z</time>
      </trkpt>
      <trkpt lat="48.98043" lon="2.0218">
        <ele>112.3</ele>
        <time>2022-10-11T07:59:45Z</time>
      </trkpt>
      <trkpt lat="48.98043" lon="2.02171">
        <ele>113.2</ele>
        <time>2022-10-11T07:59:50Z</time>
      </trkpt>
      <trkpt lat="48.98044" lon="2.02164">
        <ele>116</ele>
        <time>2022-10-11T07:59:55Z</time>
      </trkpt>
      <trkpt lat="48.98044" lon="2.02155">
        <ele>116.6</ele>
        <time>2022-10-11T08:00:00Z</time>
      </trkpt>
      <trkpt lat="48.98044" lon="2.02148">
        <ele>116.7</ele>
        <time>2022-10-11T08:00:05Z</time>
      </trkpt>
      <trkpt lat="48.98046" lon="2.02141">
        <ele>116.4</ele>
        <time>2022-10-11T08:00:10Z</time>
      </trkpt>
      <trkpt lat="48.98043" lon="2.02145">
        <ele>114.8</ele>
        <time>2022-10-11T08:00:24Z</time>
      </trkpt>
      <trkpt lat="48.98043" lon="2.02138">
        <ele>112.1</ele>
        <time>2022-10-11T08:00:53Z</time>
      </trkpt>
      <trkpt lat="48.98046" lon="2.0213">
        <ele>110.6</ele>
        <time>2022-10-11T08:00:59Z</time>
      </trkpt>
      <trkpt lat="48.98047" lon="2.02123">
        <ele>110.2</ele>
        <time>2022-10-11T08:01:03Z</time>
      </trkpt>
      <trkpt lat="48.98048" lon="2.02116">
        <ele>109.8</ele>
        <time>2022-10-11T08:01:06Z</time>
      </trkpt>
      <trkpt lat="48.98051" lon="2.02109">
        <ele>110.2</ele>
        <time>2022-10-11T08:01:11Z</time>
      </trkpt>
      <trkpt lat="48.98055" lon="2.02103">
        <ele>110.6</ele>
        <time>2022-10-11T08:01:15Z</time>
      </trkpt>
      <trkpt lat="48.98059" lon="2.02095">
        <ele>111</ele>
        <time>2022-10-11T08:01:20Z</time>
      </trkpt>
      <trkpt lat="48.98062" lon="2.02087">
        <ele>111.5</ele>
        <time>2022-10-11T08:01:26Z</time>
      </trkpt>
      <trkpt lat="48.98066" lon="2.02082">
        <ele>115.1</ele>
        <time>2022-10-11T08:01:34Z</time>
      </trkpt>
      <trkpt lat="48.98067" lon="2.02074">
        <ele>118.2</ele>
        <time>2022-10-11T08:01:43Z</time>
      </trkpt>
      <trkpt lat="48.9807" lon="2.02066">
        <ele>117.3</ele>
        <time>2022-10-11T08:01:48Z</time>
      </trkpt>
      <trkpt lat="48.98071" lon="2.02059">
        <ele>116.8</ele>
        <time>2022-10-11T08:01:51Z</time>
      </trkpt>
      <trkpt lat="48.98072" lon="2.0205">
        <ele>116</ele>
        <time>2022-10-11T08:01:55Z</time>
      </trkpt>
      <trkpt lat="48.98074" lon="2.02041">
        <ele>113.6</ele>
        <time>2022-10-11T08:02:00Z</time>
      </trkpt>
      <trkpt lat="48.98077" lon="2.02033">
        <ele>112.7</ele>
        <time>2022-10-11T08:02:06Z</time>
      </trkpt>
      <trkpt lat="48.9808" lon="2.02026">
        <ele>111.8</ele>
        <time>2022-10-11T08:02:11Z</time>
      </trkpt>
      <trkpt lat="48.98083" lon="2.0202">
        <ele>111</ele>
        <time>2022-10-11T08:02:16Z</time>
      </trkpt>
      <trkpt lat="48.98087" lon="2.02012">
        <ele>111.1</ele>
        <time>2022-10-11T08:02:20Z</time>
      </trkpt>
      <trkpt lat="48.9809" lon="2.02004">
        <ele>111.8</ele>
        <time>2022-10-11T08:02:25Z</time>
      </trkpt>
      <trkpt lat="48.98092" lon="2.01996">
        <ele>112.1</ele>
        <time>2022-10-11T08:02:30Z</time>
      </trkpt>
      <trkpt lat="48.98095" lon="2.01988">
        <ele>112</ele>
        <time>2022-10-11T08:02:35Z</time>
      </trkpt>
      <trkpt lat="48.98098" lon="2.01982">
        <ele>111.5</ele>
        <time>2022-10-11T08:02:39Z</time>
      </trkpt>
      <trkpt lat="48.98101" lon="2.01975">
        <ele>110.4</ele>
        <time>2022-10-11T08:02:43Z</time>
      </trkpt>
      <trkpt lat="48.98103" lon="2.01969">
        <ele>109.5</ele>
        <time>2022-10-11T08:02:46Z</time>
      </trkpt>
      <trkpt lat="48.98106" lon="2.01961">
        <ele>109.1</ele>
        <time>2022-10-11T08:02:50Z</time>
      </trkpt>
      <trkpt lat="48.98108" lon="2.01952">
        <ele>109.1</ele>
        <time>2022-10-11T08:02:55Z</time>
      </trkpt>
      <trkpt lat="48.98111" lon="2.01944">
        <ele>108.9</ele>
        <time>2022-10-11T08:03:00Z</time>
      </trkpt>
      <trkpt lat="48.98114" lon="2.01938">
        <ele>108.2</ele>
        <time>2022-10-11T08:03:05Z</time>
      </trkpt>
      <trkpt lat="48.98116" lon="2.01931">
        <ele>107.9</ele>
        <time>2022-10-11T08:03:09Z</time>
      </trkpt>
      <trkpt lat="48.9812" lon="2.01925">
        <ele>106.8</ele>
        <time>2022-10-11T08:03:13Z</time>
      </trkpt>
      <trkpt lat="48.98123" lon="2.01918">
        <ele>105.6</ele>
        <time>2022-10-11T08:03:19Z</time>
      </trkpt>
      <trkpt lat="48.98127" lon="2.01912">
        <ele>105.1</ele>
        <time>2022-10-11T08:03:24Z</time>
      </trkpt>
      <trkpt lat="48.9813" lon="2.01907">
        <ele>104.7</ele>
        <time>2022-10-11T08:03:28Z</time>
      </trkpt>
      <trkpt lat="48.98133" lon="2.01901">
        <ele>103.6</ele>
        <time>2022-10-11T08:03:32Z</time>
      </trkpt>
      <trkpt lat="48.98136" lon="2.01895">
        <ele>102.7</ele>
        <time>2022-10-11T08:03:36Z</time>
      </trkpt>
      <trkpt lat="48.98136" lon="2.01887">
        <ele>101.8</ele>
        <time>2022-10-11T08:03:41Z</time>
      </trkpt>
      <trkpt lat="48.98135" lon="2.01878">
        <ele>101.4</ele>
        <time>2022-10-11T08:03:46Z</time>
      </trkpt>
      <trkpt lat="48.98137" lon="2.01869">
        <ele>101</ele>
        <time>2022-10-11T08:03:51Z</time>
      </trkpt>
      <trkpt lat="48.98138" lon="2.0186">
        <ele>101.2</ele>
        <time>2022-10-11T08:03:56Z</time>
      </trkpt>
      <trkpt lat="48.9814" lon="2.01852">
        <ele>101.8</ele>
        <time>2022-10-11T08:04:01Z</time>
      </trkpt>
      <trkpt lat="48.98141" lon="2.01844">
        <ele>101.8</ele>
        <time>2022-10-11T08:04:06Z</time>
      </trkpt>
      <trkpt lat="48.98142" lon="2.01835">
        <ele>102.6</ele>
        <time>2022-10-11T08:04:11Z</time>
      </trkpt>
      <trkpt lat="48.98143" lon="2.01826">
        <ele>103.1</ele>
        <time>2022-10-11T08:04:16Z</time>
      </trkpt>
      <trkpt lat="48.98144" lon="2.01819">
        <ele>103.1</ele>
        <time>2022-10-11T08:04:21Z</time>
      </trkpt>
      <trkpt lat="48.98145" lon="2.0181">
        <ele>95.5</ele>
        <time>2022-10-11T08:04:26Z</time>
      </trkpt>
      <trkpt lat="48.98144" lon="2.01801">
        <ele>90.5</ele>
        <time>2022-10-11T08:04:31Z</time>
      </trkpt>
      <trkpt lat="48.98148" lon="2.01796">
        <ele>90.5</ele>
        <time>2022-10-11T08:04:36Z</time>
      </trkpt>
      <trkpt lat="48.98154" lon="2.01795">
        <ele>90.5</ele>
        <time>2022-10-11T08:04:41Z</time>
      </trkpt>
      <trkpt lat="48.98159" lon="2.01794">
        <ele>90.5</ele>
        <time>2022-10-11T08:04:45Z</time>
      </trkpt>
      <trkpt lat="48.98164" lon="2.01792">
        <ele>90.5</ele>
        <time>2022-10-11T08:04:50Z</time>
      </trkpt>
      <trkpt lat="48.98169" lon="2.01788">
        <ele>90.5</ele>
        <time>2022-10-11T08:04:54Z</time>
      </trkpt>
      <trkpt lat="48.98174" lon="2.01784">
        <ele>91.8</ele>
        <time>2022-10-11T08:04:58Z</time>
      </trkpt>
      <trkpt lat="48.98178" lon="2.0178">
        <ele>96.5</ele>
        <time>2022-10-11T08:05:01Z</time>
      </trkpt>
      <trkpt lat="48.98183" lon="2.01775">
        <ele>100.5</ele>
        <time>2022-10-11T08:05:07Z</time>
      </trkpt>
      <trkpt lat="48.98188" lon="2.0177">
        <ele>100.5</ele>
        <time>2022-10-11T08:05:11Z</time>
      </trkpt>
      <trkpt lat="48.98193" lon="2.01765">
        <ele>100.5</ele>
        <time>2022-10-11T08:05:16Z</time>
      </trkpt>
      <trkpt lat="48.98197" lon="2.01762">
        <ele>104.6</ele>
        <time>2022-10-11T08:05:20Z</time>
      </trkpt>
      <trkpt lat="48.98201" lon="2.01758">
        <ele>104.6</ele>
        <time>2022-10-11T08:05:23Z</time>
      </trkpt>
      <trkpt lat="48.98206" lon="2.01753">
        <ele>100.5</ele>
        <time>2022-10-11T08:05:28Z</time>
      </trkpt>
      <trkpt lat="48.98209" lon="2.01748">
        <ele>100.5</ele>
        <time>2022-10-11T08:05:31Z</time>
      </trkpt>
      <trkpt lat="48.98214" lon="2.01742">
        <ele>100.5</ele>
        <time>2022-10-11T08:05:36Z</time>
      </trkpt>
      <trkpt lat="48.98217" lon="2.01737">
        <ele>101</ele>
        <time>2022-10-11T08:05:40Z</time>
      </trkpt>
      <trkpt lat="48.98219" lon="2.01731">
        <ele>101</ele>
        <time>2022-10-11T08:05:44Z</time>
      </trkpt>
      <trkpt lat="48.98221" lon="2.01724">
        <ele>100.9</ele>
        <time>2022-10-11T08:05:47Z</time>
      </trkpt>
      <trkpt lat="48.98223" lon="2.01716">
        <ele>100.6</ele>
        <time>2022-10-11T08:05:51Z</time>
      </trkpt>
      <trkpt lat="48.98229" lon="2.01712">
        <ele>101</ele>
        <time>2022-10-11T08:05:56Z</time>
      </trkpt>
      <trkpt lat="48.98233" lon="2.01707">
        <ele>101.6</ele>
        <time>2022-10-11T08:06:02Z</time>
      </trkpt>
      <trkpt lat="48.98235" lon="2.01699">
        <ele>101.6</ele>
        <time>2022-10-11T08:06:06Z</time>
      </trkpt>
      <trkpt lat="48.98239" lon="2.01692">
        <ele>101.6</ele>
        <time>2022-10-11T08:06:11Z</time>
      </trkpt>
      <trkpt lat="48.98244" lon="2.01688">
        <ele>103</ele>
        <time>2022-10-11T08:06:16Z</time>
      </trkpt>
      <trkpt lat="48.98247" lon="2.01682">
        <ele>105.1</ele>
        <time>2022-10-11T08:06:20Z</time>
      </trkpt>
      <trkpt lat="48.98252" lon="2.01677">
        <ele>105.4</ele>
        <time>2022-10-11T08:06:23Z</time>
      </trkpt>
      <trkpt lat="48.98256" lon="2.01671">
        <ele>106.5</ele>
        <time>2022-10-11T08:06:27Z</time>
      </trkpt>
      <trkpt lat="48.98261" lon="2.01663">
        <ele>106.7</ele>
        <time>2022-10-11T08:06:31Z</time>
      </trkpt>
      <trkpt lat="48.98264" lon="2.01657">
        <ele>104.6</ele>
        <time>2022-10-11T08:06:35Z</time>
      </trkpt>
      <trkpt lat="48.98268" lon="2.01652">
        <ele>104.5</ele>
        <time>2022-10-11T08:06:39Z</time>
      </trkpt>
      <trkpt lat="48.98271" lon="2.01646">
        <ele>104.8</ele>
        <time>2022-10-11T08:06:42Z</time>
      </trkpt>
      <trkpt lat="48.98273" lon="2.01638">
        <ele>105.5</ele>
        <time>2022-10-11T08:06:46Z</time>
      </trkpt>
      <trkpt lat="48.98274" lon="2.01631">
        <ele>107.1</ele>
        <time>2022-10-11T08:06:51Z</time>
      </trkpt>
      <trkpt lat="48.98276" lon="2.01625">
        <ele>108.4</ele>
        <time>2022-10-11T08:06:53Z</time>
      </trkpt>
      <trkpt lat="48.98278" lon="2.01617">
        <ele>109</ele>
        <time>2022-10-11T08:06:56Z</time>
      </trkpt>
      <trkpt lat="48.98281" lon="2.01609">
        <ele>108.9</ele>
        <time>2022-10-11T08:07:01Z</time>
      </trkpt>
      <trkpt lat="48.98285" lon="2.01605">
        <ele>109</ele>
        <time>2022-10-11T08:07:05Z</time>
      </trkpt>
      <trkpt lat="48.98288" lon="2.01599">
        <ele>109.3</ele>
        <time>2022-10-11T08:07:09Z</time>
      </trkpt>
      <trkpt lat="48.9829" lon="2.01593">
        <ele>109.4</ele>
        <time>2022-10-11T08:07:12Z</time>
      </trkpt>
      <trkpt lat="48.98292" lon="2.01587">
        <ele>109.1</ele>
        <time>2022-10-11T08:07:17Z</time>
      </trkpt>
      <trkpt lat="48.98293" lon="2.0158">
        <ele>108.8</ele>
        <time>2022-10-11T08:07:21Z</time>
      </trkpt>
      <trkpt lat="48.98291" lon="2.01573">
        <ele>108.7</ele>
        <time>2022-10-11T08:07:24Z</time>
      </trkpt>
      <trkpt lat="48.98289" lon="2.01565">
        <ele>108.5</ele>
        <time>2022-10-11T08:07:27Z</time>
      </trkpt>
      <trkpt lat="48.98289" lon="2.01557">
        <ele>108.6</ele>
        <time>2022-10-11T08:07:31Z</time>
      </trkpt>
      <trkpt lat="48.98292" lon="2.01549">
        <ele>108.7</ele>
        <time>2022-10-11T08:07:36Z</time>
      </trkpt>
      <trkpt lat="48.98294" lon="2.01541">
        <ele>108.8</ele>
        <time>2022-10-11T08:07:42Z</time>
      </trkpt>
      <trkpt lat="48.98296" lon="2.01531">
        <ele>108.7</ele>
        <time>2022-10-11T08:07:47Z</time>
      </trkpt>
      <trkpt lat="48.98298" lon="2.01522">
        <ele>108.3</ele>
        <time>2022-10-11T08:07:51Z</time>
      </trkpt>
      <trkpt lat="48.98301" lon="2.01515">
        <ele>108.1</ele>
        <time>2022-10-11T08:07:56Z</time>
      </trkpt>
      <trkpt lat="48.98304" lon="2.01509">
        <ele>109.2</ele>
        <time>2022-10-11T08:08:00Z</time>
      </trkpt>
      <trkpt lat="48.98306" lon="2.01501">
        <ele>109.1</ele>
        <time>2022-10-11T08:08:04Z</time>
      </trkpt>
      <trkpt lat="48.98307" lon="2.01493">
        <ele>109.2</ele>
        <time>2022-10-11T08:08:10Z</time>
      </trkpt>
      <trkpt lat="48.98309" lon="2.01485">
        <ele>109.4</ele>
        <time>2022-10-11T08:08:14Z</time>
      </trkpt>
      <trkpt lat="48.9831" lon="2.01478">
        <ele>109.5</ele>
        <time>2022-10-11T08:08:17Z</time>
      </trkpt>
      <trkpt lat="48.98311" lon="2.01471">
        <ele>109.7</ele>
        <time>2022-10-11T08:08:21Z</time>
      </trkpt>
      <trkpt lat="48.98312" lon="2.01463">
        <ele>109.3</ele>
        <time>2022-10-11T08:08:24Z</time>
      </trkpt>
      <trkpt lat="48.98314" lon="2.01455">
        <ele>109.5</ele>
        <time>2022-10-11T08:08:29Z</time>
      </trkpt>
      <trkpt lat="48.98315" lon="2.01448">
        <ele>109.7</ele>
        <time>2022-10-11T08:08:32Z</time>
      </trkpt>
      <trkpt lat="48.9832" lon="2.01442">
        <ele>110.8</ele>
        <time>2022-10-11T08:08:36Z</time>
      </trkpt>
      <trkpt lat="48.98323" lon="2.01435">
        <ele>112</ele>
        <time>2022-10-11T08:08:42Z</time>
      </trkpt>
      <trkpt lat="48.98328" lon="2.01434">
        <ele>115</ele>
        <time>2022-10-11T08:08:48Z</time>
      </trkpt>
      <trkpt lat="48.98333" lon="2.01433">
        <ele>118.9</ele>
        <time>2022-10-11T08:08:53Z</time>
      </trkpt>
      <trkpt lat="48.98329" lon="2.01438">
        <ele>110.7</ele>
        <time>2022-10-11T08:09:11Z</time>
      </trkpt>
      <trkpt lat="48.98324" lon="2.0144">
        <ele>110.7</ele>
        <time>2022-10-11T08:09:23Z</time>
      </trkpt>
      <trkpt lat="48.98328" lon="2.01435">
        <ele>110.8</ele>
        <time>2022-10-11T08:09:30Z</time>
      </trkpt>
      <trkpt lat="48.98329" lon="2.01442">
        <ele>110.7</ele>
        <time>2022-10-11T08:12:02Z</time>
      </trkpt>
      <trkpt lat="48.98326" lon="2.01436">
        <ele>110.7</ele>
        <time>2022-10-11T08:14:28Z</time>
      </trkpt>
      <trkpt lat="48.98328" lon="2.01427">
        <ele>110.7</ele>
        <time>2022-10-11T08:14:31Z</time>
      </trkpt>
      <trkpt lat="48.98332" lon="2.0142">
        <ele>110.7</ele>
        <time>2022-10-11T08:14:33Z</time>
      </trkpt>
      <trkpt lat="48.98336" lon="2.01414">
        <ele>110.7</ele>
        <time>2022-10-11T08:14:35Z</time>
      </trkpt>
      <trkpt lat="48.98339" lon="2.01408">
        <ele>110.7</ele>
        <time>2022-10-11T08:14:38Z</time>
      </trkpt>
      <trkpt lat="48.98342" lon="2.01402">
        <ele>110.7</ele>
        <time>2022-10-11T08:14:41Z</time>
      </trkpt>
      <trkpt lat="48.98345" lon="2.01396">
        <ele>110.7</ele>
        <time>2022-10-11T08:14:44Z</time>
      </trkpt>
      <trkpt lat="48.98349" lon="2.01387">
        <ele>110.7</ele>
        <time>2022-10-11T08:14:49Z</time>
      </trkpt>
      <trkpt lat="48.98352" lon="2.01379">
        <ele>110.7</ele>
        <time>2022-10-11T08:14:54Z</time>
      </trkpt>
      <trkpt lat="48.98354" lon="2.0137">
        <ele>110.7</ele>
        <time>2022-10-11T08:14:59Z</time>
      </trkpt>
      <trkpt lat="48.98356" lon="2.01361">
        <ele>110.7</ele>
        <time>2022-10-11T08:15:04Z</time>
      </trkpt>
      <trkpt lat="48.98359" lon="2.01352">
        <ele>110.7</ele>
        <time>2022-10-11T08:15:09Z</time>
      </trkpt>
      <trkpt lat="48.98361" lon="2.01345">
        <ele>110.3</ele>
        <time>2022-10-11T08:15:13Z</time>
      </trkpt>
      <trkpt lat="48.98362" lon="2.01336">
        <ele>110.2</ele>
        <time>2022-10-11T08:15:16Z</time>
      </trkpt>
      <trkpt lat="48.98363" lon="2.01329">
        <ele>112.2</ele>
        <time>2022-10-11T08:15:19Z</time>
      </trkpt>
      <trkpt lat="48.98365" lon="2.01319">
        <ele>117.6</ele>
        <time>2022-10-11T08:15:24Z</time>
      </trkpt>
      <trkpt lat="48.98367" lon="2.01312">
        <ele>113.7</ele>
        <time>2022-10-11T08:15:30Z</time>
      </trkpt>
      <trkpt lat="48.98368" lon="2.01305">
        <ele>113.5</ele>
        <time>2022-10-11T08:15:34Z</time>
      </trkpt>
      <trkpt lat="48.98369" lon="2.01297">
        <ele>114.2</ele>
        <time>2022-10-11T08:15:37Z</time>
      </trkpt>
      <trkpt lat="48.9837" lon="2.0129">
        <ele>112.3</ele>
        <time>2022-10-11T08:15:41Z</time>
      </trkpt>
      <trkpt lat="48.98371" lon="2.01282">
        <ele>110</ele>
        <time>2022-10-11T08:15:45Z</time>
      </trkpt>
      <trkpt lat="48.98373" lon="2.01276">
        <ele>110</ele>
        <time>2022-10-11T08:15:48Z</time>
      </trkpt>
      <trkpt lat="48.98375" lon="2.01268">
        <ele>110</ele>
        <time>2022-10-11T08:15:51Z</time>
      </trkpt>
      <trkpt lat="48.98377" lon="2.01261">
        <ele>110</ele>
        <time>2022-10-11T08:15:55Z</time>
      </trkpt>
      <trkpt lat="48.9838" lon="2.01253">
        <ele>110</ele>
        <time>2022-10-11T08:15:59Z</time>
      </trkpt>
      <trkpt lat="48.98382" lon="2.01246">
        <ele>110</ele>
        <time>2022-10-11T08:16:03Z</time>
      </trkpt>
      <trkpt lat="48.98384" lon="2.01239">
        <ele>110</ele>
        <time>2022-10-11T08:16:06Z</time>
      </trkpt>
      <trkpt lat="48.98387" lon="2.0123">
        <ele>110</ele>
        <time>2022-10-11T08:16:11Z</time>
      </trkpt>
      <trkpt lat="48.98391" lon="2.01223">
        <ele>110</ele>
        <time>2022-10-11T08:16:15Z</time>
      </trkpt>
      <trkpt lat="48.98394" lon="2.01216">
        <ele>110</ele>
        <time>2022-10-11T08:16:21Z</time>
      </trkpt>
      <trkpt lat="48.98399" lon="2.01208">
        <ele>110</ele>
        <time>2022-10-11T08:16:26Z</time>
      </trkpt>
      <trkpt lat="48.98403" lon="2.01201">
        <ele>110</ele>
        <time>2022-10-11T08:16:31Z</time>
      </trkpt>
      <trkpt lat="48.98406" lon="2.01196">
        <ele>110</ele>
        <time>2022-10-11T08:16:35Z</time>
      </trkpt>
      <trkpt lat="48.9841" lon="2.01191">
        <ele>110</ele>
        <time>2022-10-11T08:16:39Z</time>
      </trkpt>
      <trkpt lat="48.98413" lon="2.01186">
        <ele>110</ele>
        <time>2022-10-11T08:16:44Z</time>
      </trkpt>
      <trkpt lat="48.98416" lon="2.01179">
        <ele>110</ele>
        <time>2022-10-11T08:16:49Z</time>
      </trkpt>
      <trkpt lat="48.9842" lon="2.01172">
        <ele>110</ele>
        <time>2022-10-11T08:16:53Z</time>
      </trkpt>
      <trkpt lat="48.98424" lon="2.01168">
        <ele>110</ele>
        <time>2022-10-11T08:16:56Z</time>
      </trkpt>
      <trkpt lat="48.98428" lon="2.01166">
        <ele>110</ele>
        <time>2022-10-11T08:17:00Z</time>
      </trkpt>
      <trkpt lat="48.98435" lon="2.01165">
        <ele>110</ele>
        <time>2022-10-11T08:17:04Z</time>
      </trkpt>
      <trkpt lat="48.9844" lon="2.01166">
        <ele>110</ele>
        <time>2022-10-11T08:17:07Z</time>
      </trkpt>
      <trkpt lat="48.98446" lon="2.01166">
        <ele>110.2</ele>
        <time>2022-10-11T08:17:11Z</time>
      </trkpt>
      <trkpt lat="48.98453" lon="2.01165">
        <ele>111.6</ele>
        <time>2022-10-11T08:17:16Z</time>
      </trkpt>
      <trkpt lat="48.98459" lon="2.01163">
        <ele>112.2</ele>
        <time>2022-10-11T08:17:21Z</time>
      </trkpt>
      <trkpt lat="48.98464" lon="2.01162">
        <ele>111.9</ele>
        <time>2022-10-11T08:17:25Z</time>
      </trkpt>
      <trkpt lat="48.98469" lon="2.01162">
        <ele>111.3</ele>
        <time>2022-10-11T08:17:29Z</time>
      </trkpt>
      <trkpt lat="48.98474" lon="2.01162">
        <ele>111.2</ele>
        <time>2022-10-11T08:17:32Z</time>
      </trkpt>
      <trkpt lat="48.98481" lon="2.01161">
        <ele>111.6</ele>
        <time>2022-10-11T08:17:36Z</time>
      </trkpt>
      <trkpt lat="48.98487" lon="2.01156">
        <ele>111.6</ele>
        <time>2022-10-11T08:17:41Z</time>
      </trkpt>
      <trkpt lat="48.98486" lon="2.01146">
        <ele>113</ele>
        <time>2022-10-11T08:17:45Z</time>
      </trkpt>
      <trkpt lat="48.98483" lon="2.01139">
        <ele>113.2</ele>
        <time>2022-10-11T08:17:49Z</time>
      </trkpt>
      <trkpt lat="48.98481" lon="2.01131">
        <ele>113.3</ele>
        <time>2022-10-11T08:17:52Z</time>
      </trkpt>
      <trkpt lat="48.98479" lon="2.01123">
        <ele>113.9</ele>
        <time>2022-10-11T08:17:56Z</time>
      </trkpt>
      <trkpt lat="48.98479" lon="2.01116">
        <ele>115.5</ele>
        <time>2022-10-11T08:18:00Z</time>
      </trkpt>
      <trkpt lat="48.98478" lon="2.01108">
        <ele>116.3</ele>
        <time>2022-10-11T08:18:04Z</time>
      </trkpt>
      <trkpt lat="48.98477" lon="2.011">
        <ele>116</ele>
        <time>2022-10-11T08:18:08Z</time>
      </trkpt>
      <trkpt lat="48.98477" lon="2.01093">
        <ele>115.5</ele>
        <time>2022-10-11T08:18:11Z</time>
      </trkpt>
      <trkpt lat="48.98476" lon="2.01084">
        <ele>114</ele>
        <time>2022-10-11T08:18:16Z</time>
      </trkpt>
      <trkpt lat="48.98475" lon="2.01074">
        <ele>113.1</ele>
        <time>2022-10-11T08:18:21Z</time>
      </trkpt>
      <trkpt lat="48.98475" lon="2.01066">
        <ele>113.1</ele>
        <time>2022-10-11T08:18:26Z</time>
      </trkpt>
      <trkpt lat="48.98474" lon="2.01057">
        <ele>113.9</ele>
        <time>2022-10-11T08:18:31Z</time>
      </trkpt>
      <trkpt lat="48.98473" lon="2.01048">
        <ele>114.3</ele>
        <time>2022-10-11T08:18:36Z</time>
      </trkpt>
      <trkpt lat="48.98473" lon="2.01039">
        <ele>114</ele>
        <time>2022-10-11T08:18:41Z</time>
      </trkpt>
      <trkpt lat="48.98474" lon="2.01028">
        <ele>113.1</ele>
        <time>2022-10-11T08:18:46Z</time>
      </trkpt>
      <trkpt lat="48.98474" lon="2.01018">
        <ele>110.9</ele>
        <time>2022-10-11T08:18:51Z</time>
      </trkpt>
      <trkpt lat="48.98474" lon="2.01008">
        <ele>111.2</ele>
        <time>2022-10-11T08:18:56Z</time>
      </trkpt>
      <trkpt lat="48.98472" lon="2.01">
        <ele>113</ele>
        <time>2022-10-11T08:19:01Z</time>
      </trkpt>
      <trkpt lat="48.98472" lon="2.00989">
        <ele>112.8</ele>
        <time>2022-10-11T08:19:06Z</time>
      </trkpt>
      <trkpt lat="48.98473" lon="2.00979">
        <ele>111.1</ele>
        <time>2022-10-11T08:19:11Z</time>
      </trkpt>
      <trkpt lat="48.98473" lon="2.00969">
        <ele>108.8</ele>
        <time>2022-10-11T08:19:16Z</time>
      </trkpt>
      <trkpt lat="48.98472" lon="2.0096">
        <ele>109</ele>
        <time>2022-10-11T08:19:21Z</time>
      </trkpt>
      <trkpt lat="48.98471" lon="2.00952">
        <ele>108.2</ele>
        <time>2022-10-11T08:19:26Z</time>
      </trkpt>
      <trkpt lat="48.9847" lon="2.00942">
        <ele>106.6</ele>
        <time>2022-10-11T08:19:32Z</time>
      </trkpt>
      <trkpt lat="48.98471" lon="2.00934">
        <ele>105.6</ele>
        <time>2022-10-11T08:19:36Z</time>
      </trkpt>
      <trkpt lat="48.98472" lon="2.00927">
        <ele>104.1</ele>
        <time>2022-10-11T08:19:41Z</time>
      </trkpt>
      <trkpt lat="48.98472" lon="2.00919">
        <ele>102.8</ele>
        <time>2022-10-11T08:19:45Z</time>
      </trkpt>
      <trkpt lat="48.98471" lon="2.00912">
        <ele>102.6</ele>
        <time>2022-10-11T08:19:49Z</time>
      </trkpt>
      <trkpt lat="48.98471" lon="2.00904">
        <ele>102.4</ele>
        <time>2022-10-11T08:19:53Z</time>
      </trkpt>
      <trkpt lat="48.98471" lon="2.00897">
        <ele>102.2</ele>
        <time>2022-10-11T08:19:57Z</time>
      </trkpt>
      <trkpt lat="48.98471" lon="2.00886">
        <ele>102.2</ele>
        <time>2022-10-11T08:20:02Z</time>
      </trkpt>
      <trkpt lat="48.98471" lon="2.00877">
        <ele>102.2</ele>
        <time>2022-10-11T08:20:06Z</time>
      </trkpt>
      <trkpt lat="48.9847" lon="2.0087">
        <ele>101.8</ele>
        <time>2022-10-11T08:20:11Z</time>
      </trkpt>
      <trkpt lat="48.98469" lon="2.00863">
        <ele>100.9</ele>
        <time>2022-10-11T08:20:14Z</time>
      </trkpt>
      <trkpt lat="48.98468" lon="2.00855">
        <ele>100.8</ele>
        <time>2022-10-11T08:20:18Z</time>
      </trkpt>
      <trkpt lat="48.98467" lon="2.00847">
        <ele>101.8</ele>
        <time>2022-10-11T08:20:22Z</time>
      </trkpt>
      <trkpt lat="48.98467" lon="2.00839">
        <ele>102.9</ele>
        <time>2022-10-11T08:20:26Z</time>
      </trkpt>
      <trkpt lat="48.98466" lon="2.00831">
        <ele>102.4</ele>
        <time>2022-10-11T08:20:30Z</time>
      </trkpt>
      <trkpt lat="48.98465" lon="2.00824">
        <ele>101.1</ele>
        <time>2022-10-11T08:20:34Z</time>
      </trkpt>
      <trkpt lat="48.98465" lon="2.00816">
        <ele>98.9</ele>
        <time>2022-10-11T08:20:38Z</time>
      </trkpt>
      <trkpt lat="48.98463" lon="2.00809">
        <ele>99.3</ele>
        <time>2022-10-11T08:20:42Z</time>
      </trkpt>
      <trkpt lat="48.98462" lon="2.00801">
        <ele>99.4</ele>
        <time>2022-10-11T08:20:46Z</time>
      </trkpt>
      <trkpt lat="48.9846" lon="2.00794">
        <ele>99.3</ele>
        <time>2022-10-11T08:20:49Z</time>
      </trkpt>
      <trkpt lat="48.98459" lon="2.00786">
        <ele>97.8</ele>
        <time>2022-10-11T08:20:53Z</time>
      </trkpt>
      <trkpt lat="48.98458" lon="2.00779">
        <ele>94.8</ele>
        <time>2022-10-11T08:20:57Z</time>
      </trkpt>
      <trkpt lat="48.98459" lon="2.00772">
        <ele>90.1</ele>
        <time>2022-10-11T08:21:00Z</time>
      </trkpt>
      <trkpt lat="48.98459" lon="2.00765">
        <ele>88.7</ele>
        <time>2022-10-11T08:21:04Z</time>
      </trkpt>
      <trkpt lat="48.98457" lon="2.00758">
        <ele>87.8</ele>
        <time>2022-10-11T08:21:08Z</time>
      </trkpt>
      <trkpt lat="48.98456" lon="2.00751">
        <ele>86.2</ele>
        <time>2022-10-11T08:21:12Z</time>
      </trkpt>
      <trkpt lat="48.98455" lon="2.00744">
        <ele>86.3</ele>
        <time>2022-10-11T08:21:16Z</time>
      </trkpt>
      <trkpt lat="48.98453" lon="2.00737">
        <ele>86.6</ele>
        <time>2022-10-11T08:21:21Z</time>
      </trkpt>
      <trkpt lat="48.98451" lon="2.00729">
        <ele>86.2</ele>
        <time>2022-10-11T08:21:25Z</time>
      </trkpt>
      <trkpt lat="48.98449" lon="2.00722">
        <ele>85.2</ele>
        <time>2022-10-11T08:21:29Z</time>
      </trkpt>
      <trkpt lat="48.98447" lon="2.00716">
        <ele>84.6</ele>
        <time>2022-10-11T08:21:32Z</time>
      </trkpt>
      <trkpt lat="48.98445" lon="2.00709">
        <ele>83.3</ele>
        <time>2022-10-11T08:21:36Z</time>
      </trkpt>
      <trkpt lat="48.98442" lon="2.00703">
        <ele>82.6</ele>
        <time>2022-10-11T08:21:40Z</time>
      </trkpt>
      <trkpt lat="48.9844" lon="2.00696">
        <ele>82.3</ele>
        <time>2022-10-11T08:21:44Z</time>
      </trkpt>
      <trkpt lat="48.98438" lon="2.00689">
        <ele>81.3</ele>
        <time>2022-10-11T08:21:48Z</time>
      </trkpt>
      <trkpt lat="48.98435" lon="2.00683">
        <ele>80.6</ele>
        <time>2022-10-11T08:21:52Z</time>
      </trkpt>
      <trkpt lat="48.98432" lon="2.00677">
        <ele>80.8</ele>
        <time>2022-10-11T08:21:57Z</time>
      </trkpt>
      <trkpt lat="48.98428" lon="2.00671">
        <ele>80.9</ele>
        <time>2022-10-11T08:22:02Z</time>
      </trkpt>
      <trkpt lat="48.98426" lon="2.00666">
        <ele>80.3</ele>
        <time>2022-10-11T08:22:07Z</time>
      </trkpt>
      <trkpt lat="48.98423" lon="2.00659">
        <ele>79.3</ele>
        <time>2022-10-11T08:22:12Z</time>
      </trkpt>
      <trkpt lat="48.98421" lon="2.00652">
        <ele>78.3</ele>
        <time>2022-10-11T08:22:17Z</time>
      </trkpt>
      <trkpt lat="48.98418" lon="2.00645">
        <ele>78.1</ele>
        <time>2022-10-11T08:22:22Z</time>
      </trkpt>
      <trkpt lat="48.98414" lon="2.00638">
        <ele>76.9</ele>
        <time>2022-10-11T08:22:27Z</time>
      </trkpt>
      <trkpt lat="48.98411" lon="2.00633">
        <ele>75.9</ele>
        <time>2022-10-11T08:22:32Z</time>
      </trkpt>
      <trkpt lat="48.98407" lon="2.00627">
        <ele>75.1</ele>
        <time>2022-10-11T08:22:37Z</time>
      </trkpt>
      <trkpt lat="48.98404" lon="2.0062">
        <ele>74.7</ele>
        <time>2022-10-11T08:22:41Z</time>
      </trkpt>
      <trkpt lat="48.984" lon="2.00625">
        <ele>67.8</ele>
        <time>2022-10-11T08:23:00Z</time>
      </trkpt>
      <trkpt lat="48.98395" lon="2.00624">
        <ele>66.7</ele>
        <time>2022-10-11T08:23:04Z</time>
      </trkpt>
      <trkpt lat="48.98391" lon="2.0062">
        <ele>66.3</ele>
        <time>2022-10-11T08:23:07Z</time>
      </trkpt>
      <trkpt lat="48.98388" lon="2.00611">
        <ele>66.3</ele>
        <time>2022-10-11T08:23:12Z</time>
      </trkpt>
      <trkpt lat="48.98387" lon="2.00604">
        <ele>66.3</ele>
        <time>2022-10-11T08:23:16Z</time>
      </trkpt>
      <trkpt lat="48.98385" lon="2.00597">
        <ele>66.3</ele>
        <time>2022-10-11T08:23:21Z</time>
      </trkpt>
      <trkpt lat="48.98383" lon="2.0059">
        <ele>66.3</ele>
        <time>2022-10-11T08:23:25Z</time>
      </trkpt>
      <trkpt lat="48.98381" lon="2.00582">
        <ele>66.3</ele>
        <time>2022-10-11T08:23:30Z</time>
      </trkpt>
      <trkpt lat="48.98379" lon="2.00575">
        <ele>66.3</ele>
        <time>2022-10-11T08:23:35Z</time>
      </trkpt>
      <trkpt lat="48.98376" lon="2.00569">
        <ele>66.3</ele>
        <time>2022-10-11T08:23:40Z</time>
      </trkpt>
      <trkpt lat="48.98374" lon="2.00562">
        <ele>66.3</ele>
        <time>2022-10-11T08:23:45Z</time>
      </trkpt>
      <trkpt lat="48.98374" lon="2.00555">
        <ele>66.3</ele>
        <time>2022-10-11T08:23:49Z</time>
      </trkpt>
      <trkpt lat="48.98376" lon="2.00548">
        <ele>66.3</ele>
        <time>2022-10-11T08:23:55Z</time>
      </trkpt>
      <trkpt lat="48.98379" lon="2.00541">
        <ele>66.3</ele>
        <time>2022-10-11T08:24:01Z</time>
      </trkpt>
      <trkpt lat="48.98381" lon="2.00534">
        <ele>66.3</ele>
        <time>2022-10-11T08:24:06Z</time>
      </trkpt>
      <trkpt lat="48.98382" lon="2.00527">
        <ele>66.3</ele>
        <time>2022-10-11T08:24:11Z</time>
      </trkpt>
      <trkpt lat="48.98384" lon="2.00519">
        <ele>66.3</ele>
        <time>2022-10-11T08:24:17Z</time>
      </trkpt>
      <trkpt lat="48.98384" lon="2.00511">
        <ele>66.3</ele>
        <time>2022-10-11T08:24:23Z</time>
      </trkpt>
      <trkpt lat="48.98384" lon="2.00504">
        <ele>66.3</ele>
        <time>2022-10-11T08:24:29Z</time>
      </trkpt>
      <trkpt lat="48.98384" lon="2.00497">
        <ele>62.1</ele>
        <time>2022-10-11T08:24:36Z</time>
      </trkpt>
      <trkpt lat="48.98384" lon="2.00489">
        <ele>58.4</ele>
        <time>2022-10-11T08:24:41Z</time>
      </trkpt>
      <trkpt lat="48.98384" lon="2.00482">
        <ele>55.7</ele>
        <time>2022-10-11T08:24:46Z</time>
      </trkpt>
      <trkpt lat="48.98383" lon="2.00474">
        <ele>51.9</ele>
        <time>2022-10-11T08:24:53Z</time>
      </trkpt>
      <trkpt lat="48.98379" lon="2.00469">
        <ele>49.1</ele>
        <time>2022-10-11T08:24:59Z</time>
      </trkpt>
      <trkpt lat="48.98373" lon="2.00471">
        <ele>48.4</ele>
        <time>2022-10-11T08:25:04Z</time>
      </trkpt>
      <trkpt lat="48.98379" lon="2.00469">
        <ele>47.9</ele>
        <time>2022-10-11T08:25:24Z</time>
      </trkpt>
      <trkpt lat="48.98384" lon="2.00464">
        <ele>48</ele>
        <time>2022-10-11T08:25:27Z</time>
      </trkpt>
      <trkpt lat="48.98387" lon="2.00459">
        <ele>47.9</ele>
        <time>2022-10-11T08:25:33Z</time>
      </trkpt>
      <trkpt lat="48.9839" lon="2.00451">
        <ele>47.2</ele>
        <time>2022-10-11T08:25:39Z</time>
      </trkpt>
      <trkpt lat="48.98393" lon="2.00446">
        <ele>46.6</ele>
        <time>2022-10-11T08:25:44Z</time>
      </trkpt>
      <trkpt lat="48.98394" lon="2.00439">
        <ele>46.4</ele>
        <time>2022-10-11T08:25:48Z</time>
      </trkpt>
      <trkpt lat="48.98397" lon="2.00432">
        <ele>45.9</ele>
        <time>2022-10-11T08:25:54Z</time>
      </trkpt>
      <trkpt lat="48.98399" lon="2.00425">
        <ele>44.7</ele>
        <time>2022-10-11T08:25:58Z</time>
      </trkpt>
      <trkpt lat="48.98402" lon="2.00418">
        <ele>43.7</ele>
        <time>2022-10-11T08:26:02Z</time>
      </trkpt>
      <trkpt lat="48.98404" lon="2.00412">
        <ele>43.8</ele>
        <time>2022-10-11T08:26:06Z</time>
      </trkpt>
      <trkpt lat="48.98407" lon="2.00405">
        <ele>45.1</ele>
        <time>2022-10-11T08:26:11Z</time>
      </trkpt>
      <trkpt lat="48.9841" lon="2.00399">
        <ele>45.7</ele>
        <time>2022-10-11T08:26:16Z</time>
      </trkpt>
      <trkpt lat="48.98414" lon="2.00394">
        <ele>46.4</ele>
        <time>2022-10-11T08:26:20Z</time>
      </trkpt>
      <trkpt lat="48.98419" lon="2.00391">
        <ele>46.7</ele>
        <time>2022-10-11T08:26:23Z</time>
      </trkpt>
      <trkpt lat="48.98425" lon="2.00386">
        <ele>47</ele>
        <time>2022-10-11T08:26:28Z</time>
      </trkpt>
      <trkpt lat="48.9843" lon="2.00384">
        <ele>48.2</ele>
        <time>2022-10-11T08:26:32Z</time>
      </trkpt>
      <trkpt lat="48.98435" lon="2.00384">
        <ele>49.7</ele>
        <time>2022-10-11T08:26:37Z</time>
      </trkpt>
      <trkpt lat="48.9844" lon="2.00383">
        <ele>49.5</ele>
        <time>2022-10-11T08:26:41Z</time>
      </trkpt>
      <trkpt lat="48.98445" lon="2.00379">
        <ele>48.7</ele>
        <time>2022-10-11T08:26:46Z</time>
      </trkpt>
      <trkpt lat="48.9845" lon="2.00378">
        <ele>49.3</ele>
        <time>2022-10-11T08:26:50Z</time>
      </trkpt>
      <trkpt lat="48.98454" lon="2.00378">
        <ele>51</ele>
        <time>2022-10-11T08:26:53Z</time>
      </trkpt>
      <trkpt lat="48.9846" lon="2.00377">
        <ele>52.8</ele>
        <time>2022-10-11T08:26:58Z</time>
      </trkpt>
      <trkpt lat="48.98464" lon="2.00374">
        <ele>53.6</ele>
        <time>2022-10-11T08:27:01Z</time>
      </trkpt>
      <trkpt lat="48.98468" lon="2.00371">
        <ele>54.8</ele>
        <time>2022-10-11T08:27:04Z</time>
      </trkpt>
      <trkpt lat="48.98473" lon="2.00368">
        <ele>55.4</ele>
        <time>2022-10-11T08:27:09Z</time>
      </trkpt>
      <trkpt lat="48.98478" lon="2.00366">
        <ele>55.8</ele>
        <time>2022-10-11T08:27:13Z</time>
      </trkpt>
      <trkpt lat="48.98483" lon="2.00363">
        <ele>55.7</ele>
        <time>2022-10-11T08:27:18Z</time>
      </trkpt>
      <trkpt lat="48.98488" lon="2.00359">
        <ele>56</ele>
        <time>2022-10-11T08:27:23Z</time>
      </trkpt>
      <trkpt lat="48.98492" lon="2.00353">
        <ele>57.7</ele>
        <time>2022-10-11T08:27:28Z</time>
      </trkpt>
      <trkpt lat="48.98497" lon="2.00347">
        <ele>58.6</ele>
        <time>2022-10-11T08:27:33Z</time>
      </trkpt>
      <trkpt lat="48.98503" lon="2.00342">
        <ele>60.1</ele>
        <time>2022-10-11T08:27:38Z</time>
      </trkpt>
      <trkpt lat="48.98508" lon="2.0034">
        <ele>61.3</ele>
        <time>2022-10-11T08:27:43Z</time>
      </trkpt>
      <trkpt lat="48.98512" lon="2.00334">
        <ele>61.8</ele>
        <time>2022-10-11T08:27:48Z</time>
      </trkpt>
      <trkpt lat="48.98516" lon="2.0033">
        <ele>62.1</ele>
        <time>2022-10-11T08:27:52Z</time>
      </trkpt>
      <trkpt lat="48.9852" lon="2.00326">
        <ele>62.5</ele>
        <time>2022-10-11T08:27:57Z</time>
      </trkpt>
      <trkpt lat="48.98519" lon="2.00319">
        <ele>62.2</ele>
        <time>2022-10-11T08:28:03Z</time>
      </trkpt>
      <trkpt lat="48.98524" lon="2.00315">
        <ele>61.1</ele>
        <time>2022-10-11T08:28:08Z</time>
      </trkpt>
      <trkpt lat="48.98528" lon="2.00313">
        <ele>60</ele>
        <time>2022-10-11T08:28:12Z</time>
      </trkpt>
      <trkpt lat="48.98534" lon="2.00311">
        <ele>57.3</ele>
        <time>2022-10-11T08:28:17Z</time>
      </trkpt>
      <trkpt lat="48.98539" lon="2.00308">
        <ele>56</ele>
        <time>2022-10-11T08:28:21Z</time>
      </trkpt>
      <trkpt lat="48.98543" lon="2.00305">
        <ele>55.4</ele>
        <time>2022-10-11T08:28:25Z</time>
      </trkpt>
      <trkpt lat="48.98547" lon="2.00302">
        <ele>55.4</ele>
        <time>2022-10-11T08:28:29Z</time>
      </trkpt>
      <trkpt lat="48.98551" lon="2.00298">
        <ele>56.3</ele>
        <time>2022-10-11T08:28:35Z</time>
      </trkpt>
      <trkpt lat="48.98556" lon="2.00294">
        <ele>56.9</ele>
        <time>2022-10-11T08:28:39Z</time>
      </trkpt>
      <trkpt lat="48.98561" lon="2.0029">
        <ele>56.8</ele>
        <time>2022-10-11T08:28:44Z</time>
      </trkpt>
      <trkpt lat="48.98566" lon="2.0029">
        <ele>56.7</ele>
        <time>2022-10-11T08:28:49Z</time>
      </trkpt>
      <trkpt lat="48.98572" lon="2.0029">
        <ele>57.2</ele>
        <time>2022-10-11T08:28:53Z</time>
      </trkpt>
      <trkpt lat="48.98576" lon="2.0029">
        <ele>57.8</ele>
        <time>2022-10-11T08:28:57Z</time>
      </trkpt>
      <trkpt lat="48.98582" lon="2.0029">
        <ele>58</ele>
        <time>2022-10-11T08:29:01Z</time>
      </trkpt>
      <trkpt lat="48.98587" lon="2.00291">
        <ele>58</ele>
        <time>2022-10-11T08:29:04Z</time>
      </trkpt>
      <trkpt lat="48.98592" lon="2.00291">
        <ele>58.7</ele>
        <time>2022-10-11T08:29:09Z</time>
      </trkpt>
      <trkpt lat="48.98598" lon="2.00293">
        <ele>60.9</ele>
        <time>2022-10-11T08:29:14Z</time>
      </trkpt>
      <trkpt lat="48.98604" lon="2.00294">
        <ele>63.4</ele>
        <time>2022-10-11T08:29:19Z</time>
      </trkpt>
      <trkpt lat="48.98609" lon="2.00294">
        <ele>62.9</ele>
        <time>2022-10-11T08:29:24Z</time>
      </trkpt>
      <trkpt lat="48.98613" lon="2.00296">
        <ele>62.2</ele>
        <time>2022-10-11T08:29:27Z</time>
      </trkpt>
      <trkpt lat="48.98619" lon="2.00299">
        <ele>62</ele>
        <time>2022-10-11T08:29:30Z</time>
      </trkpt>
      <trkpt lat="48.98624" lon="2.00302">
        <ele>62.3</ele>
        <time>2022-10-11T08:29:34Z</time>
      </trkpt>
      <trkpt lat="48.98628" lon="2.00303">
        <ele>62.2</ele>
        <time>2022-10-11T08:29:37Z</time>
      </trkpt>
      <trkpt lat="48.98634" lon="2.00304">
        <ele>62.3</ele>
        <time>2022-10-11T08:29:40Z</time>
      </trkpt>
      <trkpt lat="48.9864" lon="2.00306">
        <ele>62.4</ele>
        <time>2022-10-11T08:29:44Z</time>
      </trkpt>
      <trkpt lat="48.98645" lon="2.00305">
        <ele>64</ele>
        <time>2022-10-11T08:29:49Z</time>
      </trkpt>
      <trkpt lat="48.98651" lon="2.00305">
        <ele>64.4</ele>
        <time>2022-10-11T08:29:53Z</time>
      </trkpt>
      <trkpt lat="48.98656" lon="2.00305">
        <ele>65.1</ele>
        <time>2022-10-11T08:29:57Z</time>
      </trkpt>
      <trkpt lat="48.98661" lon="2.00306">
        <ele>65.8</ele>
        <time>2022-10-11T08:30:01Z</time>
      </trkpt>
      <trkpt lat="48.98667" lon="2.00307">
        <ele>67.9</ele>
        <time>2022-10-11T08:30:05Z</time>
      </trkpt>
      <trkpt lat="48.98672" lon="2.00306">
        <ele>68.8</ele>
        <time>2022-10-11T08:30:09Z</time>
      </trkpt>
      <trkpt lat="48.98676" lon="2.00306">
        <ele>70.1</ele>
        <time>2022-10-11T08:30:12Z</time>
      </trkpt>
      <trkpt lat="48.98681" lon="2.00305">
        <ele>72.3</ele>
        <time>2022-10-11T08:30:16Z</time>
      </trkpt>
      <trkpt lat="48.98686" lon="2.00305">
        <ele>73.3</ele>
        <time>2022-10-11T08:30:20Z</time>
      </trkpt>
      <trkpt lat="48.98693" lon="2.00302">
        <ele>74.1</ele>
        <time>2022-10-11T08:30:25Z</time>
      </trkpt>
      <trkpt lat="48.98698" lon="2.00299">
        <ele>76.5</ele>
        <time>2022-10-11T08:30:30Z</time>
      </trkpt>
      <trkpt lat="48.98705" lon="2.00298">
        <ele>76.4</ele>
        <time>2022-10-11T08:30:35Z</time>
      </trkpt>
      <trkpt lat="48.98711" lon="2.00295">
        <ele>76.3</ele>
        <time>2022-10-11T08:30:40Z</time>
      </trkpt>
      <trkpt lat="48.98717" lon="2.00291">
        <ele>76.6</ele>
        <time>2022-10-11T08:30:45Z</time>
      </trkpt>
      <trkpt lat="48.98722" lon="2.00289">
        <ele>76.3</ele>
        <time>2022-10-11T08:30:50Z</time>
      </trkpt>
      <trkpt lat="48.98728" lon="2.00287">
        <ele>75.8</ele>
        <time>2022-10-11T08:30:55Z</time>
      </trkpt>
      <trkpt lat="48.98734" lon="2.00285">
        <ele>76.8</ele>
        <time>2022-10-11T08:31:00Z</time>
      </trkpt>
      <trkpt lat="48.9874" lon="2.00283">
        <ele>77.8</ele>
        <time>2022-10-11T08:31:05Z</time>
      </trkpt>
      <trkpt lat="48.98747" lon="2.00281">
        <ele>78.3</ele>
        <time>2022-10-11T08:31:10Z</time>
      </trkpt>
      <trkpt lat="48.98753" lon="2.00281">
        <ele>79.2</ele>
        <time>2022-10-11T08:31:15Z</time>
      </trkpt>
      <trkpt lat="48.98759" lon="2.00284">
        <ele>80.1</ele>
        <time>2022-10-11T08:31:20Z</time>
      </trkpt>
      <trkpt lat="48.98765" lon="2.00288">
        <ele>80.7</ele>
        <time>2022-10-11T08:31:25Z</time>
      </trkpt>
      <trkpt lat="48.98769" lon="2.00291">
        <ele>80.8</ele>
        <time>2022-10-11T08:31:29Z</time>
      </trkpt>
      <trkpt lat="48.98774" lon="2.00293">
        <ele>81</ele>
        <time>2022-10-11T08:31:33Z</time>
      </trkpt>
      <trkpt lat="48.98778" lon="2.00293">
        <ele>81.8</ele>
        <time>2022-10-11T08:31:37Z</time>
      </trkpt>
      <trkpt lat="48.98784" lon="2.00295">
        <ele>82.3</ele>
        <time>2022-10-11T08:31:42Z</time>
      </trkpt>
      <trkpt lat="48.98789" lon="2.00295">
        <ele>82.3</ele>
        <time>2022-10-11T08:31:46Z</time>
      </trkpt>
      <trkpt lat="48.98795" lon="2.00297">
        <ele>82.5</ele>
        <time>2022-10-11T08:31:50Z</time>
      </trkpt>
      <trkpt lat="48.988" lon="2.003">
        <ele>82.9</ele>
        <time>2022-10-11T08:31:55Z</time>
      </trkpt>
      <trkpt lat="48.98805" lon="2.00305">
        <ele>83</ele>
        <time>2022-10-11T08:32:00Z</time>
      </trkpt>
      <trkpt lat="48.98811" lon="2.00308">
        <ele>84.1</ele>
        <time>2022-10-11T08:32:05Z</time>
      </trkpt>
      <trkpt lat="48.98817" lon="2.00309">
        <ele>85.1</ele>
        <time>2022-10-11T08:32:10Z</time>
      </trkpt>
      <trkpt lat="48.98822" lon="2.0031">
        <ele>85.1</ele>
        <time>2022-10-11T08:32:15Z</time>
      </trkpt>
      <trkpt lat="48.98829" lon="2.00311">
        <ele>85.2</ele>
        <time>2022-10-11T08:32:20Z</time>
      </trkpt>
      <trkpt lat="48.98835" lon="2.00312">
        <ele>85</ele>
        <time>2022-10-11T08:32:25Z</time>
      </trkpt>
      <trkpt lat="48.98841" lon="2.00311">
        <ele>84.6</ele>
        <time>2022-10-11T08:32:30Z</time>
      </trkpt>
      <trkpt lat="48.98846" lon="2.00309">
        <ele>84.4</ele>
        <time>2022-10-11T08:32:35Z</time>
      </trkpt>
      <trkpt lat="48.98851" lon="2.00308">
        <ele>84.7</ele>
        <time>2022-10-11T08:32:39Z</time>
      </trkpt>
      <trkpt lat="48.98856" lon="2.00309">
        <ele>84.7</ele>
        <time>2022-10-11T08:32:43Z</time>
      </trkpt>
      <trkpt lat="48.98861" lon="2.0031">
        <ele>85.5</ele>
        <time>2022-10-11T08:32:46Z</time>
      </trkpt>
      <trkpt lat="48.98866" lon="2.00311">
        <ele>86.1</ele>
        <time>2022-10-11T08:32:50Z</time>
      </trkpt>
      <trkpt lat="48.98872" lon="2.00312">
        <ele>87.6</ele>
        <time>2022-10-11T08:32:55Z</time>
      </trkpt>
      <trkpt lat="48.98878" lon="2.00313">
        <ele>88.6</ele>
        <time>2022-10-11T08:33:00Z</time>
      </trkpt>
      <trkpt lat="48.98884" lon="2.00313">
        <ele>89.4</ele>
        <time>2022-10-11T08:33:05Z</time>
      </trkpt>
      <trkpt lat="48.9889" lon="2.0031">
        <ele>89.8</ele>
        <time>2022-10-11T08:33:10Z</time>
      </trkpt>
      <trkpt lat="48.98896" lon="2.0031">
        <ele>89.5</ele>
        <time>2022-10-11T08:33:15Z</time>
      </trkpt>
      <trkpt lat="48.98902" lon="2.00309">
        <ele>89</ele>
        <time>2022-10-11T08:33:20Z</time>
      </trkpt>
      <trkpt lat="48.98908" lon="2.00309">
        <ele>87.7</ele>
        <time>2022-10-11T08:33:25Z</time>
      </trkpt>
      <trkpt lat="48.98914" lon="2.0031">
        <ele>86.5</ele>
        <time>2022-10-11T08:33:30Z</time>
      </trkpt>
      <trkpt lat="48.98919" lon="2.00313">
        <ele>86.9</ele>
        <time>2022-10-11T08:33:35Z</time>
      </trkpt>
      <trkpt lat="48.98924" lon="2.00314">
        <ele>88.7</ele>
        <time>2022-10-11T08:33:40Z</time>
      </trkpt>
      <trkpt lat="48.9893" lon="2.00313">
        <ele>91.6</ele>
        <time>2022-10-11T08:33:46Z</time>
      </trkpt>
      <trkpt lat="48.98936" lon="2.00313">
        <ele>92.4</ele>
        <time>2022-10-11T08:33:50Z</time>
      </trkpt>
      <trkpt lat="48.98942" lon="2.00313">
        <ele>93.5</ele>
        <time>2022-10-11T08:33:55Z</time>
      </trkpt>
      <trkpt lat="48.98948" lon="2.00313">
        <ele>95</ele>
        <time>2022-10-11T08:34:00Z</time>
      </trkpt>
      <trkpt lat="48.98955" lon="2.00313">
        <ele>94.7</ele>
        <time>2022-10-11T08:34:05Z</time>
      </trkpt>
      <trkpt lat="48.9896" lon="2.00314">
        <ele>92.4</ele>
        <time>2022-10-11T08:34:10Z</time>
      </trkpt>
      <trkpt lat="48.98965" lon="2.00314">
        <ele>91.9</ele>
        <time>2022-10-11T08:34:14Z</time>
      </trkpt>
      <trkpt lat="48.98969" lon="2.00315">
        <ele>91.7</ele>
        <time>2022-10-11T08:34:18Z</time>
      </trkpt>
      <trkpt lat="48.98975" lon="2.00315">
        <ele>92.1</ele>
        <time>2022-10-11T08:34:23Z</time>
      </trkpt>
      <trkpt lat="48.9898" lon="2.00315">
        <ele>93.2</ele>
        <time>2022-10-11T08:34:27Z</time>
      </trkpt>
      <trkpt lat="48.98984" lon="2.00316">
        <ele>93.2</ele>
        <time>2022-10-11T08:34:30Z</time>
      </trkpt>
      <trkpt lat="48.98991" lon="2.00317">
        <ele>93.9</ele>
        <time>2022-10-11T08:34:35Z</time>
      </trkpt>
      <trkpt lat="48.98996" lon="2.00314">
        <ele>94</ele>
        <time>2022-10-11T08:34:40Z</time>
      </trkpt>
      <trkpt lat="48.98998" lon="2.00306">
        <ele>94.4</ele>
        <time>2022-10-11T08:34:44Z</time>
      </trkpt>
      <trkpt lat="48.98997" lon="2.00298">
        <ele>96</ele>
        <time>2022-10-11T08:34:47Z</time>
      </trkpt>
      <trkpt lat="48.98994" lon="2.0029">
        <ele>96.1</ele>
        <time>2022-10-11T08:34:51Z</time>
      </trkpt>
      <trkpt lat="48.98991" lon="2.00282">
        <ele>94.5</ele>
        <time>2022-10-11T08:34:55Z</time>
      </trkpt>
      <trkpt lat="48.98989" lon="2.00275">
        <ele>93.7</ele>
        <time>2022-10-11T08:34:58Z</time>
      </trkpt>
      <trkpt lat="48.98987" lon="2.00268">
        <ele>94.1</ele>
        <time>2022-10-11T08:35:02Z</time>
      </trkpt>
      <trkpt lat="48.98984" lon="2.0026">
        <ele>96</ele>
        <time>2022-10-11T08:35:06Z</time>
      </trkpt>
      <trkpt lat="48.98981" lon="2.00252">
        <ele>97.6</ele>
        <time>2022-10-11T08:35:10Z</time>
      </trkpt>
      <trkpt lat="48.98979" lon="2.00243">
        <ele>98.8</ele>
        <time>2022-10-11T08:35:15Z</time>
      </trkpt>
      <trkpt lat="48.98978" lon="2.00235">
        <ele>99.4</ele>
        <time>2022-10-11T08:35:20Z</time>
      </trkpt>
      <trkpt lat="48.98977" lon="2.00226">
        <ele>99.3</ele>
        <time>2022-10-11T08:35:25Z</time>
      </trkpt>
      <trkpt lat="48.98977" lon="2.00216">
        <ele>99.2</ele>
        <time>2022-10-11T08:35:31Z</time>
      </trkpt>
      <trkpt lat="48.98977" lon="2.00209">
        <ele>99</ele>
        <time>2022-10-11T08:35:35Z</time>
      </trkpt>
      <trkpt lat="48.98976" lon="2.00201">
        <ele>99.6</ele>
        <time>2022-10-11T08:35:42Z</time>
      </trkpt>
      <trkpt lat="48.98973" lon="2.00206">
        <ele>103.3</ele>
        <time>2022-10-11T08:35:51Z</time>
      </trkpt>
      <trkpt lat="48.98973" lon="2.00214">
        <ele>104</ele>
        <time>2022-10-11T08:35:54Z</time>
      </trkpt>
      <trkpt lat="48.98976" lon="2.00219">
        <ele>106.8</ele>
        <time>2022-10-11T08:36:02Z</time>
      </trkpt>
      <trkpt lat="48.98974" lon="2.00211">
        <ele>106.8</ele>
        <time>2022-10-11T08:39:40Z</time>
      </trkpt>
      <trkpt lat="48.98973" lon="2.00204">
        <ele>106.8</ele>
        <time>2022-10-11T08:39:43Z</time>
      </trkpt>
      <trkpt lat="48.98974" lon="2.00197">
        <ele>106.6</ele>
        <time>2022-10-11T08:39:47Z</time>
      </trkpt>
      <trkpt lat="48.98973" lon="2.00191">
        <ele>108.8</ele>
        <time>2022-10-11T08:39:52Z</time>
      </trkpt>
      <trkpt lat="48.98972" lon="2.00197">
        <ele>106.3</ele>
        <time>2022-10-11T08:40:29Z</time>
      </trkpt>
      <trkpt lat="48.98976" lon="2.002">
        <ele>106.1</ele>
        <time>2022-10-11T08:41:00Z</time>
      </trkpt>
      <trkpt lat="48.98973" lon="2.00196">
        <ele>106.9</ele>
        <time>2022-10-11T08:41:14Z</time>
      </trkpt>
      <trkpt lat="48.98974" lon="2.00189">
        <ele>106</ele>
        <time>2022-10-11T08:41:19Z</time>
      </trkpt>
      <trkpt lat="48.98975" lon="2.0018">
        <ele>105</ele>
        <time>2022-10-11T08:41:23Z</time>
      </trkpt>
      <trkpt lat="48.98973" lon="2.00171">
        <ele>103.9</ele>
        <time>2022-10-11T08:41:29Z</time>
      </trkpt>
      <trkpt lat="48.98972" lon="2.00164">
        <ele>103.4</ele>
        <time>2022-10-11T08:41:35Z</time>
      </trkpt>
      <trkpt lat="48.98976" lon="2.0016">
        <ele>104.1</ele>
        <time>2022-10-11T08:41:49Z</time>
      </trkpt>
      <trkpt lat="48.98976" lon="2.0015">
        <ele>103.2</ele>
        <time>2022-10-11T08:41:54Z</time>
      </trkpt>
      <trkpt lat="48.98976" lon="2.0014">
        <ele>101.9</ele>
        <time>2022-10-11T08:41:58Z</time>
      </trkpt>
      <trkpt lat="48.98976" lon="2.00132">
        <ele>101.5</ele>
        <time>2022-10-11T08:42:03Z</time>
      </trkpt>
      <trkpt lat="48.98976" lon="2.00125">
        <ele>100.2</ele>
        <time>2022-10-11T08:42:06Z</time>
      </trkpt>
      <trkpt lat="48.98975" lon="2.00117">
        <ele>98.8</ele>
        <time>2022-10-11T08:42:11Z</time>
      </trkpt>
      <trkpt lat="48.98975" lon="2.0011">
        <ele>98.5</ele>
        <time>2022-10-11T08:42:15Z</time>
      </trkpt>
      <trkpt lat="48.98976" lon="2.00102">
        <ele>98.6</ele>
        <time>2022-10-11T08:42:19Z</time>
      </trkpt>
      <trkpt lat="48.98976" lon="2.00093">
        <ele>100</ele>
        <time>2022-10-11T08:42:24Z</time>
      </trkpt>
      <trkpt lat="48.98977" lon="2.00085">
        <ele>101.4</ele>
        <time>2022-10-11T08:42:29Z</time>
      </trkpt>
      <trkpt lat="48.98978" lon="2.00078">
        <ele>101.1</ele>
        <time>2022-10-11T08:42:34Z</time>
      </trkpt>
      <trkpt lat="48.98978" lon="2.0007">
        <ele>99.8</ele>
        <time>2022-10-11T08:42:39Z</time>
      </trkpt>
      <trkpt lat="48.98978" lon="2.00062">
        <ele>98.8</ele>
        <time>2022-10-11T08:42:45Z</time>
      </trkpt>
      <trkpt lat="48.9898" lon="2.00056">
        <ele>99</ele>
        <time>2022-10-11T08:42:50Z</time>
      </trkpt>
      <trkpt lat="48.98981" lon="2.00048">
        <ele>99</ele>
        <time>2022-10-11T08:42:55Z</time>
      </trkpt>
      <trkpt lat="48.98983" lon="2.0004">
        <ele>99.3</ele>
        <time>2022-10-11T08:43:00Z</time>
      </trkpt>
      <trkpt lat="48.9898" lon="2.00034">
        <ele>103.1</ele>
        <time>2022-10-11T08:43:34Z</time>
      </trkpt>
      <trkpt lat="48.98981" lon="2.00027">
        <ele>103.3</ele>
        <time>2022-10-11T08:43:37Z</time>
      </trkpt>
      <trkpt lat="48.98981" lon="2.00018">
        <ele>104</ele>
        <time>2022-10-11T08:43:40Z</time>
      </trkpt>
      <trkpt lat="48.98983" lon="2.0001">
        <ele>104</ele>
        <time>2022-10-11T08:43:44Z</time>
      </trkpt>
      <trkpt lat="48.98986" lon="2.00002">
        <ele>104.3</ele>
        <time>2022-10-11T08:43:48Z</time>
      </trkpt>
      <trkpt lat="48.98988" lon="1.99995">
        <ele>104.5</ele>
        <time>2022-10-11T08:43:51Z</time>
      </trkpt>
      <trkpt lat="48.9899" lon="1.99989">
        <ele>105.2</ele>
        <time>2022-10-11T08:43:55Z</time>
      </trkpt>
      <trkpt lat="48.98993" lon="1.99981">
        <ele>107.1</ele>
        <time>2022-10-11T08:44:00Z</time>
      </trkpt>
      <trkpt lat="48.98995" lon="1.99973">
        <ele>107</ele>
        <time>2022-10-11T08:44:04Z</time>
      </trkpt>
      <trkpt lat="48.98998" lon="1.99964">
        <ele>105.9</ele>
        <time>2022-10-11T08:44:09Z</time>
      </trkpt>
      <trkpt lat="48.99001" lon="1.99957">
        <ele>102.6</ele>
        <time>2022-10-11T08:44:14Z</time>
      </trkpt>
      <trkpt lat="48.99004" lon="1.99951">
        <ele>102.1</ele>
        <time>2022-10-11T08:44:18Z</time>
      </trkpt>
      <trkpt lat="48.99007" lon="1.99946">
        <ele>101.9</ele>
        <time>2022-10-11T08:44:22Z</time>
      </trkpt>
      <trkpt lat="48.99012" lon="1.99941">
        <ele>100.7</ele>
        <time>2022-10-11T08:44:26Z</time>
      </trkpt>
      <trkpt lat="48.99016" lon="1.99936">
        <ele>100.2</ele>
        <time>2022-10-11T08:44:29Z</time>
      </trkpt>
      <trkpt lat="48.9902" lon="1.99931">
        <ele>101.6</ele>
        <time>2022-10-11T08:44:34Z</time>
      </trkpt>
      <trkpt lat="48.99025" lon="1.99927">
        <ele>104.3</ele>
        <time>2022-10-11T08:44:38Z</time>
      </trkpt>
      <trkpt lat="48.9903" lon="1.99924">
        <ele>105.5</ele>
        <time>2022-10-11T08:44:43Z</time>
      </trkpt>
      <trkpt lat="48.99034" lon="1.99919">
        <ele>107.1</ele>
        <time>2022-10-11T08:44:47Z</time>
      </trkpt>
      <trkpt lat="48.99037" lon="1.99914">
        <ele>109</ele>
        <time>2022-10-11T08:44:51Z</time>
      </trkpt>
      <trkpt lat="48.9904" lon="1.99908">
        <ele>109.1</ele>
        <time>2022-10-11T08:44:54Z</time>
      </trkpt>
      <trkpt lat="48.99043" lon="1.999">
        <ele>108.4</ele>
        <time>2022-10-11T08:44:58Z</time>
      </trkpt>
      <trkpt lat="48.99045" lon="1.99893">
        <ele>106.2</ele>
        <time>2022-10-11T08:45:03Z</time>
      </trkpt>
      <trkpt lat="48.99049" lon="1.99887">
        <ele>105.6</ele>
        <time>2022-10-11T08:45:07Z</time>
      </trkpt>
      <trkpt lat="48.99053" lon="1.99882">
        <ele>105.7</ele>
        <time>2022-10-11T08:45:11Z</time>
      </trkpt>
      <trkpt lat="48.99058" lon="1.99879">
        <ele>105.3</ele>
        <time>2022-10-11T08:45:14Z</time>
      </trkpt>
      <trkpt lat="48.99062" lon="1.99875">
        <ele>104.9</ele>
        <time>2022-10-11T08:45:18Z</time>
      </trkpt>
      <trkpt lat="48.99066" lon="1.99871">
        <ele>102.9</ele>
        <time>2022-10-11T08:45:22Z</time>
      </trkpt>
      <trkpt lat="48.99069" lon="1.99865">
        <ele>100.8</ele>
        <time>2022-10-11T08:45:25Z</time>
      </trkpt>
      <trkpt lat="48.99073" lon="1.99858">
        <ele>99.2</ele>
        <time>2022-10-11T08:45:29Z</time>
      </trkpt>
      <trkpt lat="48.99078" lon="1.99852">
        <ele>97.9</ele>
        <time>2022-10-11T08:45:34Z</time>
      </trkpt>
      <trkpt lat="48.99082" lon="1.99847">
        <ele>95.1</ele>
        <time>2022-10-11T08:45:39Z</time>
      </trkpt>
      <trkpt lat="48.99087" lon="1.99843">
        <ele>94.6</ele>
        <time>2022-10-11T08:45:43Z</time>
      </trkpt>
      <trkpt lat="48.99091" lon="1.99841">
        <ele>94.9</ele>
        <time>2022-10-11T08:45:47Z</time>
      </trkpt>
      <trkpt lat="48.99096" lon="1.99837">
        <ele>94.7</ele>
        <time>2022-10-11T08:45:51Z</time>
      </trkpt>
      <trkpt lat="48.99101" lon="1.99834">
        <ele>93.9</ele>
        <time>2022-10-11T08:45:55Z</time>
      </trkpt>
      <trkpt lat="48.99105" lon="1.9983">
        <ele>93.8</ele>
        <time>2022-10-11T08:45:59Z</time>
      </trkpt>
      <trkpt lat="48.9911" lon="1.99826">
        <ele>93.9</ele>
        <time>2022-10-11T08:46:03Z</time>
      </trkpt>
      <trkpt lat="48.99114" lon="1.99822">
        <ele>93.7</ele>
        <time>2022-10-11T08:46:07Z</time>
      </trkpt>
      <trkpt lat="48.99117" lon="1.99817">
        <ele>92.6</ele>
        <time>2022-10-11T08:46:11Z</time>
      </trkpt>
      <trkpt lat="48.99121" lon="1.99812">
        <ele>90.8</ele>
        <time>2022-10-11T08:46:15Z</time>
      </trkpt>
      <trkpt lat="48.99125" lon="1.99805">
        <ele>90.5</ele>
        <time>2022-10-11T08:46:20Z</time>
      </trkpt>
      <trkpt lat="48.99128" lon="1.99799">
        <ele>89.4</ele>
        <time>2022-10-11T08:46:24Z</time>
      </trkpt>
      <trkpt lat="48.99131" lon="1.99793">
        <ele>89.1</ele>
        <time>2022-10-11T08:46:29Z</time>
      </trkpt>
      <trkpt lat="48.99134" lon="1.99787">
        <ele>88.4</ele>
        <time>2022-10-11T08:46:33Z</time>
      </trkpt>
      <trkpt lat="48.99138" lon="1.99783">
        <ele>87.9</ele>
        <time>2022-10-11T08:46:37Z</time>
      </trkpt>
      <trkpt lat="48.99143" lon="1.99776">
        <ele>87.5</ele>
        <time>2022-10-11T08:46:42Z</time>
      </trkpt>
      <trkpt lat="48.99143" lon="1.99767">
        <ele>86.8</ele>
        <time>2022-10-11T08:46:47Z</time>
      </trkpt>
      <trkpt lat="48.99142" lon="1.99759">
        <ele>85.9</ele>
        <time>2022-10-11T08:46:50Z</time>
      </trkpt>
      <trkpt lat="48.99139" lon="1.99752">
        <ele>83.3</ele>
        <time>2022-10-11T08:46:53Z</time>
      </trkpt>
      <trkpt lat="48.99137" lon="1.99744">
        <ele>82.6</ele>
        <time>2022-10-11T08:46:56Z</time>
      </trkpt>
      <trkpt lat="48.99134" lon="1.99735">
        <ele>82.9</ele>
        <time>2022-10-11T08:46:59Z</time>
      </trkpt>
      <trkpt lat="48.99131" lon="1.99728">
        <ele>83.7</ele>
        <time>2022-10-11T08:47:03Z</time>
      </trkpt>
      <trkpt lat="48.99128" lon="1.99721">
        <ele>84.2</ele>
        <time>2022-10-11T08:47:06Z</time>
      </trkpt>
      <trkpt lat="48.99125" lon="1.99714">
        <ele>84.4</ele>
        <time>2022-10-11T08:47:09Z</time>
      </trkpt>
      <trkpt lat="48.99122" lon="1.99708">
        <ele>85.3</ele>
        <time>2022-10-11T08:47:14Z</time>
      </trkpt>
      <trkpt lat="48.9912" lon="1.997">
        <ele>85.6</ele>
        <time>2022-10-11T08:47:18Z</time>
      </trkpt>
      <trkpt lat="48.99117" lon="1.99695">
        <ele>85.4</ele>
        <time>2022-10-11T08:47:21Z</time>
      </trkpt>
      <trkpt lat="48.99114" lon="1.99689">
        <ele>84.2</ele>
        <time>2022-10-11T08:47:25Z</time>
      </trkpt>
      <trkpt lat="48.99113" lon="1.99681">
        <ele>83</ele>
        <time>2022-10-11T08:47:29Z</time>
      </trkpt>
      <trkpt lat="48.99116" lon="1.99674">
        <ele>81.9</ele>
        <time>2022-10-11T08:47:33Z</time>
      </trkpt>
      <trkpt lat="48.9912" lon="1.99671">
        <ele>79.7</ele>
        <time>2022-10-11T08:47:36Z</time>
      </trkpt>
      <trkpt lat="48.99125" lon="1.99667">
        <ele>77.5</ele>
        <time>2022-10-11T08:47:40Z</time>
      </trkpt>
      <trkpt lat="48.99128" lon="1.99663">
        <ele>74.8</ele>
        <time>2022-10-11T08:47:44Z</time>
      </trkpt>
      <trkpt lat="48.99132" lon="1.99657">
        <ele>73.5</ele>
        <time>2022-10-11T08:47:48Z</time>
      </trkpt>
      <trkpt lat="48.99136" lon="1.99652">
        <ele>73.4</ele>
        <time>2022-10-11T08:47:52Z</time>
      </trkpt>
      <trkpt lat="48.9914" lon="1.99649">
        <ele>73.8</ele>
        <time>2022-10-11T08:47:56Z</time>
      </trkpt>
      <trkpt lat="48.99144" lon="1.99644">
        <ele>73.8</ele>
        <time>2022-10-11T08:48:00Z</time>
      </trkpt>
      <trkpt lat="48.99148" lon="1.99638">
        <ele>73.1</ele>
        <time>2022-10-11T08:48:04Z</time>
      </trkpt>
      <trkpt lat="48.99152" lon="1.99632">
        <ele>71.2</ele>
        <time>2022-10-11T08:48:08Z</time>
      </trkpt>
      <trkpt lat="48.99155" lon="1.99626">
        <ele>71.4</ele>
        <time>2022-10-11T08:48:12Z</time>
      </trkpt>
      <trkpt lat="48.99158" lon="1.9962">
        <ele>71.5</ele>
        <time>2022-10-11T08:48:15Z</time>
      </trkpt>
      <trkpt lat="48.99162" lon="1.99612">
        <ele>71.2</ele>
        <time>2022-10-11T08:48:19Z</time>
      </trkpt>
      <trkpt lat="48.99165" lon="1.99606">
        <ele>70.3</ele>
        <time>2022-10-11T08:48:23Z</time>
      </trkpt>
      <trkpt lat="48.99168" lon="1.996">
        <ele>68.7</ele>
        <time>2022-10-11T08:48:27Z</time>
      </trkpt>
      <trkpt lat="48.99171" lon="1.99594">
        <ele>68.5</ele>
        <time>2022-10-11T08:48:30Z</time>
      </trkpt>
      <trkpt lat="48.99172" lon="1.99586">
        <ele>72.5</ele>
        <time>2022-10-11T08:49:16Z</time>
      </trkpt>
      <trkpt lat="48.99173" lon="1.99578">
        <ele>74.2</ele>
        <time>2022-10-11T08:49:21Z</time>
      </trkpt>
      <trkpt lat="48.99174" lon="1.9957">
        <ele>74.8</ele>
        <time>2022-10-11T08:49:24Z</time>
      </trkpt>
      <trkpt lat="48.99175" lon="1.99562">
        <ele>75.4</ele>
        <time>2022-10-11T08:49:27Z</time>
      </trkpt>
      <trkpt lat="48.99176" lon="1.99554">
        <ele>76</ele>
        <time>2022-10-11T08:49:31Z</time>
      </trkpt>
      <trkpt lat="48.99178" lon="1.99547">
        <ele>76.2</ele>
        <time>2022-10-11T08:49:35Z</time>
      </trkpt>
      <trkpt lat="48.99181" lon="1.99541">
        <ele>75</ele>
        <time>2022-10-11T08:49:39Z</time>
      </trkpt>
      <trkpt lat="48.99185" lon="1.99535">
        <ele>73.7</ele>
        <time>2022-10-11T08:49:43Z</time>
      </trkpt>
      <trkpt lat="48.99189" lon="1.99531">
        <ele>70.8</ele>
        <time>2022-10-11T08:49:48Z</time>
      </trkpt>
      <trkpt lat="48.99192" lon="1.99524">
        <ele>68.7</ele>
        <time>2022-10-11T08:49:52Z</time>
      </trkpt>
      <trkpt lat="48.99194" lon="1.99518">
        <ele>67.6</ele>
        <time>2022-10-11T08:49:56Z</time>
      </trkpt>
      <trkpt lat="48.99196" lon="1.9951">
        <ele>66.6</ele>
        <time>2022-10-11T08:50:00Z</time>
      </trkpt>
      <trkpt lat="48.99196" lon="1.99502">
        <ele>65.6</ele>
        <time>2022-10-11T08:50:04Z</time>
      </trkpt>
      <trkpt lat="48.99198" lon="1.99494">
        <ele>63.6</ele>
        <time>2022-10-11T08:50:08Z</time>
      </trkpt>
      <trkpt lat="48.99199" lon="1.99486">
        <ele>62.6</ele>
        <time>2022-10-11T08:50:13Z</time>
      </trkpt>
      <trkpt lat="48.99201" lon="1.99479">
        <ele>62.1</ele>
        <time>2022-10-11T08:50:17Z</time>
      </trkpt>
      <trkpt lat="48.99203" lon="1.99473">
        <ele>60.7</ele>
        <time>2022-10-11T08:50:21Z</time>
      </trkpt>
      <trkpt lat="48.99205" lon="1.99465">
        <ele>59.1</ele>
        <time>2022-10-11T08:50:26Z</time>
      </trkpt>
      <trkpt lat="48.99208" lon="1.99457">
        <ele>58.2</ele>
        <time>2022-10-11T08:50:31Z</time>
      </trkpt>
      <trkpt lat="48.99211" lon="1.9945">
        <ele>58</ele>
        <time>2022-10-11T08:50:35Z</time>
      </trkpt>
      <trkpt lat="48.99214" lon="1.99444">
        <ele>58.2</ele>
        <time>2022-10-11T08:50:39Z</time>
      </trkpt>
      <trkpt lat="48.99217" lon="1.99438">
        <ele>58.8</ele>
        <time>2022-10-11T08:50:42Z</time>
      </trkpt>
      <trkpt lat="48.9922" lon="1.99432">
        <ele>58.5</ele>
        <time>2022-10-11T08:50:47Z</time>
      </trkpt>
      <trkpt lat="48.99223" lon="1.99426">
        <ele>58.2</ele>
        <time>2022-10-11T08:50:51Z</time>
      </trkpt>
      <trkpt lat="48.99225" lon="1.9942">
        <ele>58.2</ele>
        <time>2022-10-11T08:50:54Z</time>
      </trkpt>
      <trkpt lat="48.99226" lon="1.99412">
        <ele>58.8</ele>
        <time>2022-10-11T08:50:58Z</time>
      </trkpt>
      <trkpt lat="48.99224" lon="1.99403">
        <ele>59.4</ele>
        <time>2022-10-11T08:51:01Z</time>
      </trkpt>
      <trkpt lat="48.99221" lon="1.99395">
        <ele>61.1</ele>
        <time>2022-10-11T08:51:05Z</time>
      </trkpt>
      <trkpt lat="48.99218" lon="1.99389">
        <ele>63.4</ele>
        <time>2022-10-11T08:51:08Z</time>
      </trkpt>
      <trkpt lat="48.99214" lon="1.99384">
        <ele>63.6</ele>
        <time>2022-10-11T08:51:12Z</time>
      </trkpt>
      <trkpt lat="48.99209" lon="1.9938">
        <ele>63.3</ele>
        <time>2022-10-11T08:51:15Z</time>
      </trkpt>
      <trkpt lat="48.99204" lon="1.99378">
        <ele>61.9</ele>
        <time>2022-10-11T08:51:19Z</time>
      </trkpt>
      <trkpt lat="48.99199" lon="1.99374">
        <ele>61.2</ele>
        <time>2022-10-11T08:51:24Z</time>
      </trkpt>
      <trkpt lat="48.99194" lon="1.9937">
        <ele>60.3</ele>
        <time>2022-10-11T08:51:28Z</time>
      </trkpt>
      <trkpt lat="48.99189" lon="1.99366">
        <ele>59.7</ele>
        <time>2022-10-11T08:51:32Z</time>
      </trkpt>
      <trkpt lat="48.99185" lon="1.99363">
        <ele>59</ele>
        <time>2022-10-11T08:51:35Z</time>
      </trkpt>
      <trkpt lat="48.99179" lon="1.99357">
        <ele>58.1</ele>
        <time>2022-10-11T08:51:40Z</time>
      </trkpt>
      <trkpt lat="48.99175" lon="1.99352">
        <ele>58.5</ele>
        <time>2022-10-11T08:51:44Z</time>
      </trkpt>
      <trkpt lat="48.99171" lon="1.99348">
        <ele>58.8</ele>
        <time>2022-10-11T08:51:48Z</time>
      </trkpt>
      <trkpt lat="48.99167" lon="1.99344">
        <ele>58.7</ele>
        <time>2022-10-11T08:51:51Z</time>
      </trkpt>
      <trkpt lat="48.99162" lon="1.99339">
        <ele>58.8</ele>
        <time>2022-10-11T08:51:55Z</time>
      </trkpt>
      <trkpt lat="48.99158" lon="1.99335">
        <ele>57.7</ele>
        <time>2022-10-11T08:51:59Z</time>
      </trkpt>
      <trkpt lat="48.99153" lon="1.99332">
        <ele>56.9</ele>
        <time>2022-10-11T08:52:03Z</time>
      </trkpt>
      <trkpt lat="48.99149" lon="1.99329">
        <ele>56.7</ele>
        <time>2022-10-11T08:52:07Z</time>
      </trkpt>
      <trkpt lat="48.99144" lon="1.99326">
        <ele>56.3</ele>
        <time>2022-10-11T08:52:10Z</time>
      </trkpt>
      <trkpt lat="48.99139" lon="1.99323">
        <ele>55.9</ele>
        <time>2022-10-11T08:52:14Z</time>
      </trkpt>
      <trkpt lat="48.99134" lon="1.9932">
        <ele>55.6</ele>
        <time>2022-10-11T08:52:18Z</time>
      </trkpt>
      <trkpt lat="48.99129" lon="1.9932">
        <ele>55.5</ele>
        <time>2022-10-11T08:52:21Z</time>
      </trkpt>
      <trkpt lat="48.99125" lon="1.99319">
        <ele>55.5</ele>
        <time>2022-10-11T08:52:25Z</time>
      </trkpt>
      <trkpt lat="48.9912" lon="1.9932">
        <ele>55.2</ele>
        <time>2022-10-11T08:52:28Z</time>
      </trkpt>
      <trkpt lat="48.99115" lon="1.99321">
        <ele>55</ele>
        <time>2022-10-11T08:52:31Z</time>
      </trkpt>
      <trkpt lat="48.99111" lon="1.99323">
        <ele>54.6</ele>
        <time>2022-10-11T08:52:34Z</time>
      </trkpt>
      <trkpt lat="48.99106" lon="1.99326">
        <ele>54.3</ele>
        <time>2022-10-11T08:52:38Z</time>
      </trkpt>
      <trkpt lat="48.99102" lon="1.99329">
        <ele>53.9</ele>
        <time>2022-10-11T08:52:42Z</time>
      </trkpt>
      <trkpt lat="48.99097" lon="1.99333">
        <ele>53.6</ele>
        <time>2022-10-11T08:52:46Z</time>
      </trkpt>
      <trkpt lat="48.99091" lon="1.99336">
        <ele>53.5</ele>
        <time>2022-10-11T08:52:50Z</time>
      </trkpt>
      <trkpt lat="48.99086" lon="1.99338">
        <ele>53.5</ele>
        <time>2022-10-11T08:52:54Z</time>
      </trkpt>
      <trkpt lat="48.99081" lon="1.99341">
        <ele>53.9</ele>
        <time>2022-10-11T08:52:58Z</time>
      </trkpt>
      <trkpt lat="48.99077" lon="1.99345">
        <ele>53.9</ele>
        <time>2022-10-11T08:53:01Z</time>
      </trkpt>
      <trkpt lat="48.99072" lon="1.99349">
        <ele>53.6</ele>
        <time>2022-10-11T08:53:06Z</time>
      </trkpt>
      <trkpt lat="48.99066" lon="1.99355">
        <ele>51.9</ele>
        <time>2022-10-11T08:53:10Z</time>
      </trkpt>
      <trkpt lat="48.99062" lon="1.99358">
        <ele>51.2</ele>
        <time>2022-10-11T08:53:14Z</time>
      </trkpt>
      <trkpt lat="48.99058" lon="1.99363">
        <ele>50.6</ele>
        <time>2022-10-11T08:53:18Z</time>
      </trkpt>
      <trkpt lat="48.99053" lon="1.99367">
        <ele>49</ele>
        <time>2022-10-11T08:53:22Z</time>
      </trkpt>
      <trkpt lat="48.99048" lon="1.99366">
        <ele>48.4</ele>
        <time>2022-10-11T08:53:26Z</time>
      </trkpt>
      <trkpt lat="48.99043" lon="1.9936">
        <ele>47.6</ele>
        <time>2022-10-11T08:53:31Z</time>
      </trkpt>
      <trkpt lat="48.99041" lon="1.99354">
        <ele>48.1</ele>
        <time>2022-10-11T08:53:36Z</time>
      </trkpt>
      <trkpt lat="48.99045" lon="1.99353">
        <ele>46.9</ele>
        <time>2022-10-11T08:55:49Z</time>
      </trkpt>
      <trkpt lat="48.99047" lon="1.99345">
        <ele>44.4</ele>
        <time>2022-10-11T08:55:57Z</time>
      </trkpt>
      <trkpt lat="48.99048" lon="1.99336">
        <ele>42.7</ele>
        <time>2022-10-11T08:56:01Z</time>
      </trkpt>
      <trkpt lat="48.99048" lon="1.99328">
        <ele>42.7</ele>
        <time>2022-10-11T08:56:04Z</time>
      </trkpt>
      <trkpt lat="48.99052" lon="1.99322">
        <ele>42.4</ele>
        <time>2022-10-11T08:56:07Z</time>
      </trkpt>
      <trkpt lat="48.99057" lon="1.9932">
        <ele>42.6</ele>
        <time>2022-10-11T08:56:12Z</time>
      </trkpt>
      <trkpt lat="48.99061" lon="1.99316">
        <ele>43.8</ele>
        <time>2022-10-11T08:56:15Z</time>
      </trkpt>
      <trkpt lat="48.99065" lon="1.9931">
        <ele>44.1</ele>
        <time>2022-10-11T08:56:20Z</time>
      </trkpt>
      <trkpt lat="48.99069" lon="1.99305">
        <ele>43.2</ele>
        <time>2022-10-11T08:56:23Z</time>
      </trkpt>
      <trkpt lat="48.9907" lon="1.99298">
        <ele>40.8</ele>
        <time>2022-10-11T08:56:27Z</time>
      </trkpt>
      <trkpt lat="48.99072" lon="1.9929">
        <ele>40.6</ele>
        <time>2022-10-11T08:56:31Z</time>
      </trkpt>
      <trkpt lat="48.99074" lon="1.99283">
        <ele>41.6</ele>
        <time>2022-10-11T08:56:35Z</time>
      </trkpt>
      <trkpt lat="48.99079" lon="1.99276">
        <ele>42.1</ele>
        <time>2022-10-11T08:56:40Z</time>
      </trkpt>
      <trkpt lat="48.99085" lon="1.99272">
        <ele>42.3</ele>
        <time>2022-10-11T08:56:44Z</time>
      </trkpt>
      <trkpt lat="48.9909" lon="1.99268">
        <ele>41.4</ele>
        <time>2022-10-11T08:56:49Z</time>
      </trkpt>
      <trkpt lat="48.99094" lon="1.99263">
        <ele>38.8</ele>
        <time>2022-10-11T08:56:53Z</time>
      </trkpt>
      <trkpt lat="48.99098" lon="1.99257">
        <ele>37.9</ele>
        <time>2022-10-11T08:56:57Z</time>
      </trkpt>
      <trkpt lat="48.99101" lon="1.99251">
        <ele>36.9</ele>
        <time>2022-10-11T08:57:01Z</time>
      </trkpt>
      <trkpt lat="48.99106" lon="1.99247">
        <ele>35.5</ele>
        <time>2022-10-11T08:57:05Z</time>
      </trkpt>
      <trkpt lat="48.99112" lon="1.99243">
        <ele>32.8</ele>
        <time>2022-10-11T08:57:10Z</time>
      </trkpt>
      <trkpt lat="48.99116" lon="1.99241">
        <ele>31.1</ele>
        <time>2022-10-11T08:57:14Z</time>
      </trkpt>
      <trkpt lat="48.99121" lon="1.99239">
        <ele>30.9</ele>
        <time>2022-10-11T08:57:18Z</time>
      </trkpt>
      <trkpt lat="48.99124" lon="1.99235">
        <ele>30.4</ele>
        <time>2022-10-11T08:57:22Z</time>
      </trkpt>
      <trkpt lat="48.99126" lon="1.99227">
        <ele>30.3</ele>
        <time>2022-10-11T08:57:26Z</time>
      </trkpt>
      <trkpt lat="48.99124" lon="1.99219">
        <ele>29.1</ele>
        <time>2022-10-11T08:57:30Z</time>
      </trkpt>
      <trkpt lat="48.99121" lon="1.9921">
        <ele>27.9</ele>
        <time>2022-10-11T08:57:35Z</time>
      </trkpt>
      <trkpt lat="48.99118" lon="1.99203">
        <ele>27.5</ele>
        <time>2022-10-11T08:57:40Z</time>
      </trkpt>
      <trkpt lat="48.99117" lon="1.99196">
        <ele>26.3</ele>
        <time>2022-10-11T08:57:44Z</time>
      </trkpt>
      <trkpt lat="48.99115" lon="1.9919">
        <ele>24.2</ele>
        <time>2022-10-11T08:57:48Z</time>
      </trkpt>
      <trkpt lat="48.99111" lon="1.99184">
        <ele>19.8</ele>
        <time>2022-10-11T08:57:53Z</time>
      </trkpt>
      <trkpt lat="48.99107" lon="1.99181">
        <ele>18.6</ele>
        <time>2022-10-11T08:57:56Z</time>
      </trkpt>
      <trkpt lat="48.991" lon="1.99177">
        <ele>18.1</ele>
        <time>2022-10-11T08:58:01Z</time>
      </trkpt>
      <trkpt lat="48.99095" lon="1.99173">
        <ele>18.7</ele>
        <time>2022-10-11T08:58:04Z</time>
      </trkpt>
      <trkpt lat="48.99091" lon="1.99169">
        <ele>21.1</ele>
        <time>2022-10-11T08:58:09Z</time>
      </trkpt>
      <trkpt lat="48.99087" lon="1.99165">
        <ele>21.5</ele>
        <time>2022-10-11T08:58:12Z</time>
      </trkpt>
      <trkpt lat="48.99083" lon="1.9916">
        <ele>22</ele>
        <time>2022-10-11T08:58:16Z</time>
      </trkpt>
      <trkpt lat="48.99079" lon="1.99155">
        <ele>22.3</ele>
        <time>2022-10-11T08:58:19Z</time>
      </trkpt>
      <trkpt lat="48.99076" lon="1.99148">
        <ele>22.4</ele>
        <time>2022-10-11T08:58:23Z</time>
      </trkpt>
      <trkpt lat="48.99073" lon="1.99143">
        <ele>22.3</ele>
        <time>2022-10-11T08:58:25Z</time>
      </trkpt>
      <trkpt lat="48.99066" lon="1.99139">
        <ele>20.4</ele>
        <time>2022-10-11T08:58:30Z</time>
      </trkpt>
      <trkpt lat="48.99061" lon="1.99139">
        <ele>18.7</ele>
        <time>2022-10-11T08:58:34Z</time>
      </trkpt>
      <trkpt lat="48.99057" lon="1.9914">
        <ele>17.9</ele>
        <time>2022-10-11T08:58:38Z</time>
      </trkpt>
      <trkpt lat="48.99051" lon="1.99134">
        <ele>20.6</ele>
        <time>2022-10-11T08:58:45Z</time>
      </trkpt>
      <trkpt lat="48.99047" lon="1.99132">
        <ele>21.6</ele>
        <time>2022-10-11T08:58:49Z</time>
      </trkpt>
      <trkpt lat="48.99047" lon="1.99139">
        <ele>21.8</ele>
        <time>2022-10-11T08:58:59Z</time>
      </trkpt>
      <trkpt lat="48.99044" lon="1.99146">
        <ele>22.2</ele>
        <time>2022-10-11T08:59:29Z</time>
      </trkpt>
      <trkpt lat="48.99041" lon="1.99152">
        <ele>22.8</ele>
        <time>2022-10-11T08:59:33Z</time>
      </trkpt>
      <trkpt lat="48.99038" lon="1.99158">
        <ele>22.8</ele>
        <time>2022-10-11T08:59:36Z</time>
      </trkpt>
      <trkpt lat="48.99034" lon="1.99165">
        <ele>22.5</ele>
        <time>2022-10-11T08:59:40Z</time>
      </trkpt>
      <trkpt lat="48.99029" lon="1.99172">
        <ele>22.8</ele>
        <time>2022-10-11T08:59:45Z</time>
      </trkpt>
      <trkpt lat="48.99026" lon="1.99176">
        <ele>23.9</ele>
        <time>2022-10-11T08:59:49Z</time>
      </trkpt>
      <trkpt lat="48.99022" lon="1.99181">
        <ele>24.2</ele>
        <time>2022-10-11T08:59:52Z</time>
      </trkpt>
      <trkpt lat="48.99018" lon="1.99186">
        <ele>24.2</ele>
        <time>2022-10-11T08:59:56Z</time>
      </trkpt>
      <trkpt lat="48.99013" lon="1.99192">
        <ele>24</ele>
        <time>2022-10-11T09:00:00Z</time>
      </trkpt>
      <trkpt lat="48.99008" lon="1.99198">
        <ele>24.5</ele>
        <time>2022-10-11T09:00:05Z</time>
      </trkpt>
      <trkpt lat="48.99004" lon="1.99205">
        <ele>24.6</ele>
        <time>2022-10-11T09:00:10Z</time>
      </trkpt>
      <trkpt lat="48.99" lon="1.99213">
        <ele>23.1</ele>
        <time>2022-10-11T09:00:15Z</time>
      </trkpt>
      <trkpt lat="48.98996" lon="1.99216">
        <ele>21.3</ele>
        <time>2022-10-11T09:00:19Z</time>
      </trkpt>
      <trkpt lat="48.98991" lon="1.99219">
        <ele>20.1</ele>
        <time>2022-10-11T09:00:23Z</time>
      </trkpt>
      <trkpt lat="48.98988" lon="1.99223">
        <ele>19.6</ele>
        <time>2022-10-11T09:00:26Z</time>
      </trkpt>
      <trkpt lat="48.98984" lon="1.99229">
        <ele>19.6</ele>
        <time>2022-10-11T09:00:30Z</time>
      </trkpt>
      <trkpt lat="48.9898" lon="1.99236">
        <ele>19.9</ele>
        <time>2022-10-11T09:00:35Z</time>
      </trkpt>
      <trkpt lat="48.98976" lon="1.9924">
        <ele>20.3</ele>
        <time>2022-10-11T09:00:39Z</time>
      </trkpt>
      <trkpt lat="48.98975" lon="1.99233">
        <ele>20</ele>
        <time>2022-10-11T09:00:51Z</time>
      </trkpt>
      <trkpt lat="48.98971" lon="1.99229">
        <ele>20.7</ele>
        <time>2022-10-11T09:00:57Z</time>
      </trkpt>
      <trkpt lat="48.98969" lon="1.99221">
        <ele>23.7</ele>
        <time>2022-10-11T09:01:09Z</time>
      </trkpt>
      <trkpt lat="48.98964" lon="1.99215">
        <ele>23.3</ele>
        <time>2022-10-11T09:01:13Z</time>
      </trkpt>
      <trkpt lat="48.9896" lon="1.99209">
        <ele>21.2</ele>
        <time>2022-10-11T09:01:17Z</time>
      </trkpt>
      <trkpt lat="48.98957" lon="1.99203">
        <ele>19.8</ele>
        <time>2022-10-11T09:01:21Z</time>
      </trkpt>
      <trkpt lat="48.98953" lon="1.99199">
        <ele>19.3</ele>
        <time>2022-10-11T09:01:25Z</time>
      </trkpt>
      <trkpt lat="48.98949" lon="1.99196">
        <ele>17.8</ele>
        <time>2022-10-11T09:01:29Z</time>
      </trkpt>
      <trkpt lat="48.98945" lon="1.99191">
        <ele>15.9</ele>
        <time>2022-10-11T09:01:33Z</time>
      </trkpt>
      <trkpt lat="48.98941" lon="1.99187">
        <ele>14.3</ele>
        <time>2022-10-11T09:01:37Z</time>
      </trkpt>
      <trkpt lat="48.98937" lon="1.99182">
        <ele>12.7</ele>
        <time>2022-10-11T09:01:42Z</time>
      </trkpt>
      <trkpt lat="48.98933" lon="1.99176">
        <ele>11.9</ele>
        <time>2022-10-11T09:01:46Z</time>
      </trkpt>
      <trkpt lat="48.98929" lon="1.9917">
        <ele>10.9</ele>
        <time>2022-10-11T09:01:51Z</time>
      </trkpt>
      <trkpt lat="48.98925" lon="1.99165">
        <ele>10.9</ele>
        <time>2022-10-11T09:01:55Z</time>
      </trkpt>
      <trkpt lat="48.98921" lon="1.99158">
        <ele>11.3</ele>
        <time>2022-10-11T09:01:59Z</time>
      </trkpt>
      <trkpt lat="48.98917" lon="1.99151">
        <ele>12.7</ele>
        <time>2022-10-11T09:02:03Z</time>
      </trkpt>
      <trkpt lat="48.98913" lon="1.99145">
        <ele>15.4</ele>
        <time>2022-10-11T09:02:08Z</time>
      </trkpt>
      <trkpt lat="48.98908" lon="1.99141">
        <ele>14.9</ele>
        <time>2022-10-11T09:02:12Z</time>
      </trkpt>
      <trkpt lat="48.98903" lon="1.99142">
        <ele>14.9</ele>
        <time>2022-10-11T09:02:17Z</time>
      </trkpt>
      <trkpt lat="48.98906" lon="1.99148">
        <ele>17.8</ele>
        <time>2022-10-11T09:02:21Z</time>
      </trkpt>
      <trkpt lat="48.98904" lon="1.99154">
        <ele>17.3</ele>
        <time>2022-10-11T09:03:23Z</time>
      </trkpt>
      <trkpt lat="48.98898" lon="1.9916">
        <ele>17.3</ele>
        <time>2022-10-11T09:03:27Z</time>
      </trkpt>
      <trkpt lat="48.98894" lon="1.99164">
        <ele>15.9</ele>
        <time>2022-10-11T09:03:33Z</time>
      </trkpt>
      <trkpt lat="48.9889" lon="1.99168">
        <ele>14.6</ele>
        <time>2022-10-11T09:03:37Z</time>
      </trkpt>
      <trkpt lat="48.98885" lon="1.99173">
        <ele>14.4</ele>
        <time>2022-10-11T09:03:41Z</time>
      </trkpt>
      <trkpt lat="48.9888" lon="1.99178">
        <ele>14.4</ele>
        <time>2022-10-11T09:03:47Z</time>
      </trkpt>
      <trkpt lat="48.98877" lon="1.99184">
        <ele>12.9</ele>
        <time>2022-10-11T09:03:51Z</time>
      </trkpt>
      <trkpt lat="48.98873" lon="1.9919">
        <ele>11.7</ele>
        <time>2022-10-11T09:03:57Z</time>
      </trkpt>
      <trkpt lat="48.98869" lon="1.99196">
        <ele>10.3</ele>
        <time>2022-10-11T09:04:02Z</time>
      </trkpt>
      <trkpt lat="48.98865" lon="1.99201">
        <ele>10.4</ele>
        <time>2022-10-11T09:04:06Z</time>
      </trkpt>
      <trkpt lat="48.9886" lon="1.99205">
        <ele>10.3</ele>
        <time>2022-10-11T09:04:10Z</time>
      </trkpt>
      <trkpt lat="48.98856" lon="1.99209">
        <ele>10.6</ele>
        <time>2022-10-11T09:04:13Z</time>
      </trkpt>
      <trkpt lat="48.98851" lon="1.99214">
        <ele>11.7</ele>
        <time>2022-10-11T09:04:17Z</time>
      </trkpt>
      <trkpt lat="48.98846" lon="1.99221">
        <ele>11.7</ele>
        <time>2022-10-11T09:04:22Z</time>
      </trkpt>
      <trkpt lat="48.98842" lon="1.99226">
        <ele>11.4</ele>
        <time>2022-10-11T09:04:26Z</time>
      </trkpt>
      <trkpt lat="48.98838" lon="1.99232">
        <ele>11.4</ele>
        <time>2022-10-11T09:04:30Z</time>
      </trkpt>
      <trkpt lat="48.98834" lon="1.99237">
        <ele>11.7</ele>
        <time>2022-10-11T09:04:34Z</time>
      </trkpt>
      <trkpt lat="48.9883" lon="1.99241">
        <ele>11.7</ele>
        <time>2022-10-11T09:04:38Z</time>
      </trkpt>
      <trkpt lat="48.98826" lon="1.99246">
        <ele>11.1</ele>
        <time>2022-10-11T09:04:41Z</time>
      </trkpt>
      <trkpt lat="48.98822" lon="1.99251">
        <ele>10.4</ele>
        <time>2022-10-11T09:04:46Z</time>
      </trkpt>
      <trkpt lat="48.98816" lon="1.99256">
        <ele>9.9</ele>
        <time>2022-10-11T09:04:50Z</time>
      </trkpt>
      <trkpt lat="48.98812" lon="1.99259">
        <ele>9.9</ele>
        <time>2022-10-11T09:04:54Z</time>
      </trkpt>
      <trkpt lat="48.98808" lon="1.99263">
        <ele>10</ele>
        <time>2022-10-11T09:04:57Z</time>
      </trkpt>
      <trkpt lat="48.98803" lon="1.99269">
        <ele>10.2</ele>
        <time>2022-10-11T09:05:01Z</time>
      </trkpt>
      <trkpt lat="48.98798" lon="1.99275">
        <ele>11.3</ele>
        <time>2022-10-11T09:05:06Z</time>
      </trkpt>
      <trkpt lat="48.98793" lon="1.99281">
        <ele>13.5</ele>
        <time>2022-10-11T09:05:11Z</time>
      </trkpt>
      <trkpt lat="48.98789" lon="1.99287">
        <ele>13.8</ele>
        <time>2022-10-11T09:05:16Z</time>
      </trkpt>
      <trkpt lat="48.98786" lon="1.99294">
        <ele>14.4</ele>
        <time>2022-10-11T09:05:20Z</time>
      </trkpt>
      <trkpt lat="48.98783" lon="1.99302">
        <ele>14.5</ele>
        <time>2022-10-11T09:05:25Z</time>
      </trkpt>
      <trkpt lat="48.98781" lon="1.99308">
        <ele>14.4</ele>
        <time>2022-10-11T09:05:29Z</time>
      </trkpt>
      <trkpt lat="48.98778" lon="1.99314">
        <ele>14.4</ele>
        <time>2022-10-11T09:05:33Z</time>
      </trkpt>
      <trkpt lat="48.98775" lon="1.9932">
        <ele>14.5</ele>
        <time>2022-10-11T09:05:38Z</time>
      </trkpt>
      <trkpt lat="48.98772" lon="1.99325">
        <ele>15.2</ele>
        <time>2022-10-11T09:05:42Z</time>
      </trkpt>
      <trkpt lat="48.98768" lon="1.99331">
        <ele>15.2</ele>
        <time>2022-10-11T09:05:47Z</time>
      </trkpt>
      <trkpt lat="48.98764" lon="1.99337">
        <ele>14.8</ele>
        <time>2022-10-11T09:05:52Z</time>
      </trkpt>
      <trkpt lat="48.9876" lon="1.99343">
        <ele>14</ele>
        <time>2022-10-11T09:05:56Z</time>
      </trkpt>
      <trkpt lat="48.98757" lon="1.99348">
        <ele>13.4</ele>
        <time>2022-10-11T09:06:00Z</time>
      </trkpt>
      <trkpt lat="48.98753" lon="1.99353">
        <ele>12.8</ele>
        <time>2022-10-11T09:06:04Z</time>
      </trkpt>
      <trkpt lat="48.98749" lon="1.99357">
        <ele>12.9</ele>
        <time>2022-10-11T09:06:09Z</time>
      </trkpt>
      <trkpt lat="48.98747" lon="1.99364">
        <ele>14.4</ele>
        <time>2022-10-11T09:06:17Z</time>
      </trkpt>
      <trkpt lat="48.98742" lon="1.99366">
        <ele>16.1</ele>
        <time>2022-10-11T09:06:37Z</time>
      </trkpt>
      <trkpt lat="48.98737" lon="1.99374">
        <ele>16.1</ele>
        <time>2022-10-11T09:06:42Z</time>
      </trkpt>
      <trkpt lat="48.98732" lon="1.99382">
        <ele>15.8</ele>
        <time>2022-10-11T09:06:46Z</time>
      </trkpt>
      <trkpt lat="48.98729" lon="1.99388">
        <ele>15.4</ele>
        <time>2022-10-11T09:06:51Z</time>
      </trkpt>
      <trkpt lat="48.98725" lon="1.99394">
        <ele>15.7</ele>
        <time>2022-10-11T09:06:55Z</time>
      </trkpt>
      <trkpt lat="48.98722" lon="1.99401">
        <ele>16.3</ele>
        <time>2022-10-11T09:06:59Z</time>
      </trkpt>
      <trkpt lat="48.98718" lon="1.99406">
        <ele>16.4</ele>
        <time>2022-10-11T09:07:03Z</time>
      </trkpt>
      <trkpt lat="48.98714" lon="1.99412">
        <ele>16.3</ele>
        <time>2022-10-11T09:07:07Z</time>
      </trkpt>
      <trkpt lat="48.9871" lon="1.9942">
        <ele>16.1</ele>
        <time>2022-10-11T09:07:12Z</time>
      </trkpt>
      <trkpt lat="48.98706" lon="1.99426">
        <ele>14.2</ele>
        <time>2022-10-11T09:07:18Z</time>
      </trkpt>
      <trkpt lat="48.98703" lon="1.99432">
        <ele>13.1</ele>
        <time>2022-10-11T09:07:22Z</time>
      </trkpt>
      <trkpt lat="48.98698" lon="1.99439">
        <ele>12.9</ele>
        <time>2022-10-11T09:07:27Z</time>
      </trkpt>
      <trkpt lat="48.98694" lon="1.99448">
        <ele>13.3</ele>
        <time>2022-10-11T09:07:33Z</time>
      </trkpt>
      <trkpt lat="48.98692" lon="1.99455">
        <ele>14.8</ele>
        <time>2022-10-11T09:07:37Z</time>
      </trkpt>
      <trkpt lat="48.9869" lon="1.99463">
        <ele>15.5</ele>
        <time>2022-10-11T09:07:42Z</time>
      </trkpt>
      <trkpt lat="48.98689" lon="1.99473">
        <ele>14.8</ele>
        <time>2022-10-11T09:07:47Z</time>
      </trkpt>
      <trkpt lat="48.98687" lon="1.99481">
        <ele>13.9</ele>
        <time>2022-10-11T09:07:52Z</time>
      </trkpt>
      <trkpt lat="48.98684" lon="1.99488">
        <ele>14</ele>
        <time>2022-10-11T09:07:57Z</time>
      </trkpt>
      <trkpt lat="48.98679" lon="1.99494">
        <ele>15.1</ele>
        <time>2022-10-11T09:08:02Z</time>
      </trkpt>
      <trkpt lat="48.98676" lon="1.99499">
        <ele>16</ele>
        <time>2022-10-11T09:08:06Z</time>
      </trkpt>
      <trkpt lat="48.98672" lon="1.99504">
        <ele>16.3</ele>
        <time>2022-10-11T09:08:10Z</time>
      </trkpt>
      <trkpt lat="48.98669" lon="1.9951">
        <ele>17.1</ele>
        <time>2022-10-11T09:08:14Z</time>
      </trkpt>
      <trkpt lat="48.98666" lon="1.99516">
        <ele>17.4</ele>
        <time>2022-10-11T09:08:17Z</time>
      </trkpt>
      <trkpt lat="48.98663" lon="1.99523">
        <ele>18</ele>
        <time>2022-10-11T09:08:22Z</time>
      </trkpt>
      <trkpt lat="48.98659" lon="1.99529">
        <ele>19.5</ele>
        <time>2022-10-11T09:08:26Z</time>
      </trkpt>
      <trkpt lat="48.98655" lon="1.99535">
        <ele>20.2</ele>
        <time>2022-10-11T09:08:31Z</time>
      </trkpt>
      <trkpt lat="48.98651" lon="1.99541">
        <ele>19.9</ele>
        <time>2022-10-11T09:08:35Z</time>
      </trkpt>
      <trkpt lat="48.98648" lon="1.99547">
        <ele>19.2</ele>
        <time>2022-10-11T09:08:40Z</time>
      </trkpt>
      <trkpt lat="48.98645" lon="1.99553">
        <ele>18.9</ele>
        <time>2022-10-11T09:08:44Z</time>
      </trkpt>
      <trkpt lat="48.98641" lon="1.99559">
        <ele>19.1</ele>
        <time>2022-10-11T09:08:47Z</time>
      </trkpt>
      <trkpt lat="48.98636" lon="1.99566">
        <ele>19.6</ele>
        <time>2022-10-11T09:08:52Z</time>
      </trkpt>
      <trkpt lat="48.98632" lon="1.99573">
        <ele>19.6</ele>
        <time>2022-10-11T09:08:57Z</time>
      </trkpt>
      <trkpt lat="48.98628" lon="1.9958">
        <ele>18.6</ele>
        <time>2022-10-11T09:09:02Z</time>
      </trkpt>
      <trkpt lat="48.98624" lon="1.99587">
        <ele>16.6</ele>
        <time>2022-10-11T09:09:07Z</time>
      </trkpt>
      <trkpt lat="48.9862" lon="1.99592">
        <ele>16.3</ele>
        <time>2022-10-11T09:09:12Z</time>
      </trkpt>
      <trkpt lat="48.98617" lon="1.99598">
        <ele>16.5</ele>
        <time>2022-10-11T09:09:16Z</time>
      </trkpt>
      <trkpt lat="48.98613" lon="1.99603">
        <ele>16.5</ele>
        <time>2022-10-11T09:09:20Z</time>
      </trkpt>
      <trkpt lat="48.9861" lon="1.99608">
        <ele>16.9</ele>
        <time>2022-10-11T09:09:24Z</time>
      </trkpt>
      <trkpt lat="48.98606" lon="1.99612">
        <ele>17.2</ele>
        <time>2022-10-11T09:09:28Z</time>
      </trkpt>
      <trkpt lat="48.98601" lon="1.99615">
        <ele>17.3</ele>
        <time>2022-10-11T09:09:32Z</time>
      </trkpt>
      <trkpt lat="48.98597" lon="1.99622">
        <ele>16.3</ele>
        <time>2022-10-11T09:09:37Z</time>
      </trkpt>
      <trkpt lat="48.98594" lon="1.99629">
        <ele>16.1</ele>
        <time>2022-10-11T09:09:41Z</time>
      </trkpt>
      <trkpt lat="48.9859" lon="1.99635">
        <ele>15.8</ele>
        <time>2022-10-11T09:09:46Z</time>
      </trkpt>
      <trkpt lat="48.98587" lon="1.9964">
        <ele>15.6</ele>
        <time>2022-10-11T09:09:49Z</time>
      </trkpt>
      <trkpt lat="48.98584" lon="1.99647">
        <ele>15.1</ele>
        <time>2022-10-11T09:09:54Z</time>
      </trkpt>
      <trkpt lat="48.9858" lon="1.99653">
        <ele>15.5</ele>
        <time>2022-10-11T09:09:58Z</time>
      </trkpt>
      <trkpt lat="48.98576" lon="1.99659">
        <ele>16.6</ele>
        <time>2022-10-11T09:10:02Z</time>
      </trkpt>
      <trkpt lat="48.98572" lon="1.99664">
        <ele>17.3</ele>
        <time>2022-10-11T09:10:06Z</time>
      </trkpt>
      <trkpt lat="48.98569" lon="1.9967">
        <ele>18.7</ele>
        <time>2022-10-11T09:10:10Z</time>
      </trkpt>
      <trkpt lat="48.98565" lon="1.99677">
        <ele>19.5</ele>
        <time>2022-10-11T09:10:14Z</time>
      </trkpt>
      <trkpt lat="48.98562" lon="1.99682">
        <ele>20.2</ele>
        <time>2022-10-11T09:10:17Z</time>
      </trkpt>
      <trkpt lat="48.98558" lon="1.99686">
        <ele>20.7</ele>
        <time>2022-10-11T09:10:21Z</time>
      </trkpt>
      <trkpt lat="48.98553" lon="1.99691">
        <ele>21.2</ele>
        <time>2022-10-11T09:10:25Z</time>
      </trkpt>
      <trkpt lat="48.98549" lon="1.99696">
        <ele>21.2</ele>
        <time>2022-10-11T09:10:29Z</time>
      </trkpt>
      <trkpt lat="48.98545" lon="1.99701">
        <ele>20.9</ele>
        <time>2022-10-11T09:10:33Z</time>
      </trkpt>
      <trkpt lat="48.98542" lon="1.99706">
        <ele>18.7</ele>
        <time>2022-10-11T09:10:38Z</time>
      </trkpt>
      <trkpt lat="48.98538" lon="1.99712">
        <ele>18.2</ele>
        <time>2022-10-11T09:10:43Z</time>
      </trkpt>
      <trkpt lat="48.98534" lon="1.99719">
        <ele>18.1</ele>
        <time>2022-10-11T09:10:47Z</time>
      </trkpt>
      <trkpt lat="48.98528" lon="1.99724">
        <ele>17.7</ele>
        <time>2022-10-11T09:10:52Z</time>
      </trkpt>
      <trkpt lat="48.98524" lon="1.99729">
        <ele>16.9</ele>
        <time>2022-10-11T09:10:56Z</time>
      </trkpt>
      <trkpt lat="48.9852" lon="1.99735">
        <ele>17.5</ele>
        <time>2022-10-11T09:11:01Z</time>
      </trkpt>
      <trkpt lat="48.98516" lon="1.99742">
        <ele>18.8</ele>
        <time>2022-10-11T09:11:05Z</time>
      </trkpt>
      <trkpt lat="48.98513" lon="1.99749">
        <ele>18.4</ele>
        <time>2022-10-11T09:11:10Z</time>
      </trkpt>
      <trkpt lat="48.9851" lon="1.99755">
        <ele>16.9</ele>
        <time>2022-10-11T09:11:14Z</time>
      </trkpt>
      <trkpt lat="48.98507" lon="1.9976">
        <ele>16.4</ele>
        <time>2022-10-11T09:11:18Z</time>
      </trkpt>
      <trkpt lat="48.98503" lon="1.99765">
        <ele>15.8</ele>
        <time>2022-10-11T09:11:22Z</time>
      </trkpt>
      <trkpt lat="48.98499" lon="1.99769">
        <ele>14.5</ele>
        <time>2022-10-11T09:11:26Z</time>
      </trkpt>
      <trkpt lat="48.98495" lon="1.99774">
        <ele>14.4</ele>
        <time>2022-10-11T09:11:30Z</time>
      </trkpt>
      <trkpt lat="48.98492" lon="1.99779">
        <ele>14.7</ele>
        <time>2022-10-11T09:11:34Z</time>
      </trkpt>
      <trkpt lat="48.98488" lon="1.99785">
        <ele>14.7</ele>
        <time>2022-10-11T09:11:38Z</time>
      </trkpt>
      <trkpt lat="48.98484" lon="1.99791">
        <ele>13.4</ele>
        <time>2022-10-11T09:11:43Z</time>
      </trkpt>
      <trkpt lat="48.9848" lon="1.99797">
        <ele>12.4</ele>
        <time>2022-10-11T09:11:47Z</time>
      </trkpt>
      <trkpt lat="48.98477" lon="1.99802">
        <ele>12.2</ele>
        <time>2022-10-11T09:11:51Z</time>
      </trkpt>
      <trkpt lat="48.98474" lon="1.99808">
        <ele>12.2</ele>
        <time>2022-10-11T09:11:55Z</time>
      </trkpt>
      <trkpt lat="48.9847" lon="1.99813">
        <ele>12.2</ele>
        <time>2022-10-11T09:11:59Z</time>
      </trkpt>
      <trkpt lat="48.98466" lon="1.99818">
        <ele>12.1</ele>
        <time>2022-10-11T09:12:03Z</time>
      </trkpt>
      <trkpt lat="48.98463" lon="1.99823">
        <ele>12.2</ele>
        <time>2022-10-11T09:12:07Z</time>
      </trkpt>
      <trkpt lat="48.98458" lon="1.99828">
        <ele>12.3</ele>
        <time>2022-10-11T09:12:12Z</time>
      </trkpt>
      <trkpt lat="48.98454" lon="1.99833">
        <ele>12.5</ele>
        <time>2022-10-11T09:12:16Z</time>
      </trkpt>
      <trkpt lat="48.9845" lon="1.99839">
        <ele>12.5</ele>
        <time>2022-10-11T09:12:20Z</time>
      </trkpt>
      <trkpt lat="48.98446" lon="1.99844">
        <ele>12.4</ele>
        <time>2022-10-11T09:12:23Z</time>
      </trkpt>
      <trkpt lat="48.98443" lon="1.99849">
        <ele>12.4</ele>
        <time>2022-10-11T09:12:27Z</time>
      </trkpt>
      <trkpt lat="48.98439" lon="1.99855">
        <ele>12.7</ele>
        <time>2022-10-11T09:12:30Z</time>
      </trkpt>
      <trkpt lat="48.98435" lon="1.9986">
        <ele>12.7</ele>
        <time>2022-10-11T09:12:34Z</time>
      </trkpt>
      <trkpt lat="48.98431" lon="1.99865">
        <ele>12.9</ele>
        <time>2022-10-11T09:12:38Z</time>
      </trkpt>
      <trkpt lat="48.98426" lon="1.99871">
        <ele>13.3</ele>
        <time>2022-10-11T09:12:43Z</time>
      </trkpt>
      <trkpt lat="48.98422" lon="1.99876">
        <ele>13.6</ele>
        <time>2022-10-11T09:12:47Z</time>
      </trkpt>
      <trkpt lat="48.98418" lon="1.99881">
        <ele>13.7</ele>
        <time>2022-10-11T09:12:51Z</time>
      </trkpt>
      <trkpt lat="48.98413" lon="1.99886">
        <ele>13.9</ele>
        <time>2022-10-11T09:12:55Z</time>
      </trkpt>
      <trkpt lat="48.98408" lon="1.99891">
        <ele>13.7</ele>
        <time>2022-10-11T09:12:59Z</time>
      </trkpt>
      <trkpt lat="48.98404" lon="1.99896">
        <ele>13.3</ele>
        <time>2022-10-11T09:13:03Z</time>
      </trkpt>
      <trkpt lat="48.984" lon="1.99901">
        <ele>12.8</ele>
        <time>2022-10-11T09:13:08Z</time>
      </trkpt>
      <trkpt lat="48.98396" lon="1.99905">
        <ele>12.2</ele>
        <time>2022-10-11T09:13:12Z</time>
      </trkpt>
      <trkpt lat="48.98391" lon="1.9991">
        <ele>11.6</ele>
        <time>2022-10-11T09:13:16Z</time>
      </trkpt>
      <trkpt lat="48.98387" lon="1.99913">
        <ele>10.6</ele>
        <time>2022-10-11T09:13:20Z</time>
      </trkpt>
      <trkpt lat="48.98383" lon="1.99916">
        <ele>9.9</ele>
        <time>2022-10-11T09:13:23Z</time>
      </trkpt>
      <trkpt lat="48.98377" lon="1.99919">
        <ele>9.6</ele>
        <time>2022-10-11T09:13:28Z</time>
      </trkpt>
      <trkpt lat="48.98372" lon="1.9992">
        <ele>9.4</ele>
        <time>2022-10-11T09:13:32Z</time>
      </trkpt>
      <trkpt lat="48.98367" lon="1.99922">
        <ele>9.6</ele>
        <time>2022-10-11T09:13:36Z</time>
      </trkpt>
      <trkpt lat="48.98362" lon="1.99925">
        <ele>10</ele>
        <time>2022-10-11T09:13:39Z</time>
      </trkpt>
      <trkpt lat="48.98357" lon="1.99928">
        <ele>11.1</ele>
        <time>2022-10-11T09:13:44Z</time>
      </trkpt>
      <trkpt lat="48.98351" lon="1.9993">
        <ele>12.6</ele>
        <time>2022-10-11T09:13:48Z</time>
      </trkpt>
      <trkpt lat="48.98346" lon="1.99933">
        <ele>14</ele>
        <time>2022-10-11T09:13:53Z</time>
      </trkpt>
      <trkpt lat="48.98342" lon="1.99938">
        <ele>15.6</ele>
        <time>2022-10-11T09:13:56Z</time>
      </trkpt>
      <trkpt lat="48.98337" lon="1.99942">
        <ele>15.5</ele>
        <time>2022-10-11T09:14:00Z</time>
      </trkpt>
      <trkpt lat="48.98333" lon="1.99947">
        <ele>14</ele>
        <time>2022-10-11T09:14:04Z</time>
      </trkpt>
      <trkpt lat="48.98328" lon="1.99949">
        <ele>13.7</ele>
        <time>2022-10-11T09:14:09Z</time>
      </trkpt>
      <trkpt lat="48.98322" lon="1.99948">
        <ele>14</ele>
        <time>2022-10-11T09:14:14Z</time>
      </trkpt>
      <trkpt lat="48.98317" lon="1.9995">
        <ele>14.2</ele>
        <time>2022-10-11T09:14:18Z</time>
      </trkpt>
      <trkpt lat="48.98313" lon="1.99953">
        <ele>14.6</ele>
        <time>2022-10-11T09:14:21Z</time>
      </trkpt>
      <trkpt lat="48.98309" lon="1.99957">
        <ele>14.9</ele>
        <time>2022-10-11T09:14:25Z</time>
      </trkpt>
      <trkpt lat="48.98303" lon="1.99961">
        <ele>14.2</ele>
        <time>2022-10-11T09:14:30Z</time>
      </trkpt>
      <trkpt lat="48.98298" lon="1.99962">
        <ele>14</ele>
        <time>2022-10-11T09:14:34Z</time>
      </trkpt>
      <trkpt lat="48.98293" lon="1.99963">
        <ele>13.9</ele>
        <time>2022-10-11T09:14:38Z</time>
      </trkpt>
      <trkpt lat="48.98288" lon="1.99965">
        <ele>13.5</ele>
        <time>2022-10-11T09:14:42Z</time>
      </trkpt>
      <trkpt lat="48.98283" lon="1.99967">
        <ele>13.8</ele>
        <time>2022-10-11T09:14:46Z</time>
      </trkpt>
      <trkpt lat="48.98278" lon="1.99969">
        <ele>14</ele>
        <time>2022-10-11T09:14:50Z</time>
      </trkpt>
      <trkpt lat="48.98274" lon="1.99971">
        <ele>14</ele>
        <time>2022-10-11T09:14:54Z</time>
      </trkpt>
      <trkpt lat="48.98269" lon="1.99975">
        <ele>14.3</ele>
        <time>2022-10-11T09:14:58Z</time>
      </trkpt>
      <trkpt lat="48.98264" lon="1.99978">
        <ele>14.9</ele>
        <time>2022-10-11T09:15:02Z</time>
      </trkpt>
      <trkpt lat="48.98259" lon="1.99982">
        <ele>15.5</ele>
        <time>2022-10-11T09:15:06Z</time>
      </trkpt>
      <trkpt lat="48.98254" lon="1.99986">
        <ele>15.7</ele>
        <time>2022-10-11T09:15:10Z</time>
      </trkpt>
      <trkpt lat="48.9825" lon="1.99989">
        <ele>16.3</ele>
        <time>2022-10-11T09:15:14Z</time>
      </trkpt>
      <trkpt lat="48.98244" lon="1.99994">
        <ele>17.3</ele>
        <time>2022-10-11T09:15:18Z</time>
      </trkpt>
      <trkpt lat="48.98239" lon="1.99998">
        <ele>18.1</ele>
        <time>2022-10-11T09:15:22Z</time>
      </trkpt>
      <trkpt lat="48.98235" lon="2.00002">
        <ele>17.9</ele>
        <time>2022-10-11T09:15:26Z</time>
      </trkpt>
      <trkpt lat="48.98231" lon="2.00006">
        <ele>17.6</ele>
        <time>2022-10-11T09:15:30Z</time>
      </trkpt>
      <trkpt lat="48.98226" lon="2.00009">
        <ele>17.5</ele>
        <time>2022-10-11T09:15:34Z</time>
      </trkpt>
      <trkpt lat="48.9822" lon="2.00013">
        <ele>18</ele>
        <time>2022-10-11T09:15:39Z</time>
      </trkpt>
      <trkpt lat="48.98215" lon="2.00016">
        <ele>18.2</ele>
        <time>2022-10-11T09:15:44Z</time>
      </trkpt>
      <trkpt lat="48.98209" lon="2.00019">
        <ele>18.3</ele>
        <time>2022-10-11T09:15:48Z</time>
      </trkpt>
      <trkpt lat="48.98204" lon="2.00021">
        <ele>17.9</ele>
        <time>2022-10-11T09:15:53Z</time>
      </trkpt>
      <trkpt lat="48.982" lon="2.00024">
        <ele>17.5</ele>
        <time>2022-10-11T09:15:56Z</time>
      </trkpt>
      <trkpt lat="48.98195" lon="2.00026">
        <ele>17.3</ele>
        <time>2022-10-11T09:16:00Z</time>
      </trkpt>
      <trkpt lat="48.98189" lon="2.00027">
        <ele>17.7</ele>
        <time>2022-10-11T09:16:04Z</time>
      </trkpt>
      <trkpt lat="48.98185" lon="2.0003">
        <ele>18</ele>
        <time>2022-10-11T09:16:08Z</time>
      </trkpt>
      <trkpt lat="48.9818" lon="2.00033">
        <ele>18.7</ele>
        <time>2022-10-11T09:16:12Z</time>
      </trkpt>
      <trkpt lat="48.98176" lon="2.00032">
        <ele>19.2</ele>
        <time>2022-10-11T09:16:16Z</time>
      </trkpt>
      <trkpt lat="48.98171" lon="2.00031">
        <ele>19.7</ele>
        <time>2022-10-11T09:16:19Z</time>
      </trkpt>
      <trkpt lat="48.98166" lon="2.00032">
        <ele>20.3</ele>
        <time>2022-10-11T09:16:23Z</time>
      </trkpt>
      <trkpt lat="48.98161" lon="2.00035">
        <ele>19.9</ele>
        <time>2022-10-11T09:16:28Z</time>
      </trkpt>
      <trkpt lat="48.98157" lon="2.00039">
        <ele>19.8</ele>
        <time>2022-10-11T09:16:32Z</time>
      </trkpt>
      <trkpt lat="48.98152" lon="2.00043">
        <ele>19.6</ele>
        <time>2022-10-11T09:16:36Z</time>
      </trkpt>
      <trkpt lat="48.98148" lon="2.00046">
        <ele>18.9</ele>
        <time>2022-10-11T09:16:40Z</time>
      </trkpt>
      <trkpt lat="48.98143" lon="2.00049">
        <ele>17.8</ele>
        <time>2022-10-11T09:16:44Z</time>
      </trkpt>
      <trkpt lat="48.98137" lon="2.00051">
        <ele>17.2</ele>
        <time>2022-10-11T09:16:49Z</time>
      </trkpt>
      <trkpt lat="48.98131" lon="2.00054">
        <ele>16.8</ele>
        <time>2022-10-11T09:16:54Z</time>
      </trkpt>
      <trkpt lat="48.98126" lon="2.00057">
        <ele>16.6</ele>
        <time>2022-10-11T09:16:59Z</time>
      </trkpt>
      <trkpt lat="48.98121" lon="2.0006">
        <ele>16.6</ele>
        <time>2022-10-11T09:17:03Z</time>
      </trkpt>
      <trkpt lat="48.98116" lon="2.00064">
        <ele>16</ele>
        <time>2022-10-11T09:17:07Z</time>
      </trkpt>
      <trkpt lat="48.98112" lon="2.00069">
        <ele>16.1</ele>
        <time>2022-10-11T09:17:11Z</time>
      </trkpt>
      <trkpt lat="48.98108" lon="2.00073">
        <ele>16.2</ele>
        <time>2022-10-11T09:17:14Z</time>
      </trkpt>
      <trkpt lat="48.98103" lon="2.00072">
        <ele>16.4</ele>
        <time>2022-10-11T09:17:18Z</time>
      </trkpt>
      <trkpt lat="48.98099" lon="2.00074">
        <ele>16.5</ele>
        <time>2022-10-11T09:17:23Z</time>
      </trkpt>
      <trkpt lat="48.98094" lon="2.00079">
        <ele>16.8</ele>
        <time>2022-10-11T09:17:27Z</time>
      </trkpt>
      <trkpt lat="48.9809" lon="2.00085">
        <ele>17.4</ele>
        <time>2022-10-11T09:17:31Z</time>
      </trkpt>
      <trkpt lat="48.98086" lon="2.00088">
        <ele>17.3</ele>
        <time>2022-10-11T09:17:34Z</time>
      </trkpt>
      <trkpt lat="48.98082" lon="2.00092">
        <ele>17.5</ele>
        <time>2022-10-11T09:17:38Z</time>
      </trkpt>
      <trkpt lat="48.98078" lon="2.00096">
        <ele>17.6</ele>
        <time>2022-10-11T09:17:41Z</time>
      </trkpt>
      <trkpt lat="48.98075" lon="2.00101">
        <ele>17.8</ele>
        <time>2022-10-11T09:17:45Z</time>
      </trkpt>
      <trkpt lat="48.98071" lon="2.00106">
        <ele>18</ele>
        <time>2022-10-11T09:17:49Z</time>
      </trkpt>
      <trkpt lat="48.98068" lon="2.00112">
        <ele>18.3</ele>
        <time>2022-10-11T09:17:53Z</time>
      </trkpt>
      <trkpt lat="48.98065" lon="2.00118">
        <ele>18.6</ele>
        <time>2022-10-11T09:17:57Z</time>
      </trkpt>
      <trkpt lat="48.9806" lon="2.00123">
        <ele>18.7</ele>
        <time>2022-10-11T09:18:02Z</time>
      </trkpt>
      <trkpt lat="48.98056" lon="2.00126">
        <ele>17.6</ele>
        <time>2022-10-11T09:18:06Z</time>
      </trkpt>
      <trkpt lat="48.98051" lon="2.00128">
        <ele>16</ele>
        <time>2022-10-11T09:18:10Z</time>
      </trkpt>
      <trkpt lat="48.98045" lon="2.00131">
        <ele>15.4</ele>
        <time>2022-10-11T09:18:15Z</time>
      </trkpt>
      <trkpt lat="48.98039" lon="2.0013">
        <ele>15.3</ele>
        <time>2022-10-11T09:18:19Z</time>
      </trkpt>
      <trkpt lat="48.98034" lon="2.00129">
        <ele>15.1</ele>
        <time>2022-10-11T09:18:23Z</time>
      </trkpt>
      <trkpt lat="48.9803" lon="2.0013">
        <ele>14.6</ele>
        <time>2022-10-11T09:18:26Z</time>
      </trkpt>
      <trkpt lat="48.98024" lon="2.00131">
        <ele>14.5</ele>
        <time>2022-10-11T09:18:29Z</time>
      </trkpt>
      <trkpt lat="48.98019" lon="2.00133">
        <ele>14.6</ele>
        <time>2022-10-11T09:18:33Z</time>
      </trkpt>
      <trkpt lat="48.98015" lon="2.00137">
        <ele>14.8</ele>
        <time>2022-10-11T09:18:37Z</time>
      </trkpt>
      <trkpt lat="48.98012" lon="2.00143">
        <ele>14.5</ele>
        <time>2022-10-11T09:18:40Z</time>
      </trkpt>
      <trkpt lat="48.98008" lon="2.00153">
        <ele>14.5</ele>
        <time>2022-10-11T09:18:45Z</time>
      </trkpt>
      <trkpt lat="48.98006" lon="2.00159">
        <ele>14.4</ele>
        <time>2022-10-11T09:18:48Z</time>
      </trkpt>
      <trkpt lat="48.98003" lon="2.00165">
        <ele>14.6</ele>
        <time>2022-10-11T09:18:52Z</time>
      </trkpt>
      <trkpt lat="48.97998" lon="2.00169">
        <ele>15</ele>
        <time>2022-10-11T09:18:55Z</time>
      </trkpt>
      <trkpt lat="48.97993" lon="2.00174">
        <ele>16.5</ele>
        <time>2022-10-11T09:18:59Z</time>
      </trkpt>
      <trkpt lat="48.97986" lon="2.00179">
        <ele>17.4</ele>
        <time>2022-10-11T09:19:04Z</time>
      </trkpt>
      <trkpt lat="48.97982" lon="2.00181">
        <ele>17.9</ele>
        <time>2022-10-11T09:19:08Z</time>
      </trkpt>
      <trkpt lat="48.97976" lon="2.00184">
        <ele>17.9</ele>
        <time>2022-10-11T09:19:12Z</time>
      </trkpt>
      <trkpt lat="48.97971" lon="2.00184">
        <ele>18.1</ele>
        <time>2022-10-11T09:19:16Z</time>
      </trkpt>
      <trkpt lat="48.97965" lon="2.00181">
        <ele>19.3</ele>
        <time>2022-10-11T09:19:34Z</time>
      </trkpt>
      <trkpt lat="48.9796" lon="2.00183">
        <ele>19.9</ele>
        <time>2022-10-11T09:19:38Z</time>
      </trkpt>
      <trkpt lat="48.97955" lon="2.00187">
        <ele>20.2</ele>
        <time>2022-10-11T09:19:42Z</time>
      </trkpt>
      <trkpt lat="48.9795" lon="2.00192">
        <ele>20</ele>
        <time>2022-10-11T09:19:46Z</time>
      </trkpt>
      <trkpt lat="48.97946" lon="2.00195">
        <ele>19.9</ele>
        <time>2022-10-11T09:19:49Z</time>
      </trkpt>
      <trkpt lat="48.9794" lon="2.00199">
        <ele>19.4</ele>
        <time>2022-10-11T09:19:54Z</time>
      </trkpt>
      <trkpt lat="48.97934" lon="2.00204">
        <ele>19.2</ele>
        <time>2022-10-11T09:19:59Z</time>
      </trkpt>
      <trkpt lat="48.97929" lon="2.00209">
        <ele>19.2</ele>
        <time>2022-10-11T09:20:04Z</time>
      </trkpt>
      <trkpt lat="48.97923" lon="2.00213">
        <ele>18.5</ele>
        <time>2022-10-11T09:20:09Z</time>
      </trkpt>
      <trkpt lat="48.97918" lon="2.00218">
        <ele>18.6</ele>
        <time>2022-10-11T09:20:14Z</time>
      </trkpt>
      <trkpt lat="48.97915" lon="2.00225">
        <ele>19</ele>
        <time>2022-10-11T09:20:20Z</time>
      </trkpt>
      <trkpt lat="48.9792" lon="2.00222">
        <ele>16.7</ele>
        <time>2022-10-11T09:21:52Z</time>
      </trkpt>
      <trkpt lat="48.97917" lon="2.00231">
        <ele>15</ele>
        <time>2022-10-11T09:23:30Z</time>
      </trkpt>
      <trkpt lat="48.97915" lon="2.00237">
        <ele>15.5</ele>
        <time>2022-10-11T09:23:34Z</time>
      </trkpt>
      <trkpt lat="48.97912" lon="2.00242">
        <ele>16.1</ele>
        <time>2022-10-11T09:23:38Z</time>
      </trkpt>
      <trkpt lat="48.97907" lon="2.00246">
        <ele>16.8</ele>
        <time>2022-10-11T09:23:42Z</time>
      </trkpt>
      <trkpt lat="48.97903" lon="2.00248">
        <ele>17.3</ele>
        <time>2022-10-11T09:23:45Z</time>
      </trkpt>
      <trkpt lat="48.97896" lon="2.00248">
        <ele>17.4</ele>
        <time>2022-10-11T09:23:50Z</time>
      </trkpt>
      <trkpt lat="48.97892" lon="2.00248">
        <ele>18</ele>
        <time>2022-10-11T09:23:54Z</time>
      </trkpt>
      <trkpt lat="48.97885" lon="2.00249">
        <ele>18.9</ele>
        <time>2022-10-11T09:23:59Z</time>
      </trkpt>
      <trkpt lat="48.9788" lon="2.00251">
        <ele>19.4</ele>
        <time>2022-10-11T09:24:04Z</time>
      </trkpt>
      <trkpt lat="48.97875" lon="2.00253">
        <ele>19.1</ele>
        <time>2022-10-11T09:24:09Z</time>
      </trkpt>
      <trkpt lat="48.9787" lon="2.00258">
        <ele>18.4</ele>
        <time>2022-10-11T09:24:14Z</time>
      </trkpt>
      <trkpt lat="48.97865" lon="2.0026">
        <ele>18.1</ele>
        <time>2022-10-11T09:24:18Z</time>
      </trkpt>
      <trkpt lat="48.97859" lon="2.00261">
        <ele>18</ele>
        <time>2022-10-11T09:24:22Z</time>
      </trkpt>
      <trkpt lat="48.97855" lon="2.00263">
        <ele>18.3</ele>
        <time>2022-10-11T09:24:25Z</time>
      </trkpt>
      <trkpt lat="48.9785" lon="2.00265">
        <ele>18.4</ele>
        <time>2022-10-11T09:24:30Z</time>
      </trkpt>
      <trkpt lat="48.97845" lon="2.00267">
        <ele>19</ele>
        <time>2022-10-11T09:24:34Z</time>
      </trkpt>
      <trkpt lat="48.9784" lon="2.0027">
        <ele>18.8</ele>
        <time>2022-10-11T09:24:39Z</time>
      </trkpt>
      <trkpt lat="48.97835" lon="2.00272">
        <ele>17.5</ele>
        <time>2022-10-11T09:24:43Z</time>
      </trkpt>
      <trkpt lat="48.9783" lon="2.00274">
        <ele>16.8</ele>
        <time>2022-10-11T09:24:47Z</time>
      </trkpt>
      <trkpt lat="48.97825" lon="2.00276">
        <ele>16.7</ele>
        <time>2022-10-11T09:24:50Z</time>
      </trkpt>
      <trkpt lat="48.9782" lon="2.00278">
        <ele>16.6</ele>
        <time>2022-10-11T09:24:55Z</time>
      </trkpt>
      <trkpt lat="48.97815" lon="2.0028">
        <ele>16.1</ele>
        <time>2022-10-11T09:25:00Z</time>
      </trkpt>
      <trkpt lat="48.97809" lon="2.00283">
        <ele>15.6</ele>
        <time>2022-10-11T09:25:05Z</time>
      </trkpt>
      <trkpt lat="48.97805" lon="2.00284">
        <ele>15.5</ele>
        <time>2022-10-11T09:25:09Z</time>
      </trkpt>
      <trkpt lat="48.978" lon="2.00287">
        <ele>15.6</ele>
        <time>2022-10-11T09:25:13Z</time>
      </trkpt>
      <trkpt lat="48.97796" lon="2.0029">
        <ele>15.5</ele>
        <time>2022-10-11T09:25:17Z</time>
      </trkpt>
      <trkpt lat="48.97791" lon="2.00293">
        <ele>15.2</ele>
        <time>2022-10-11T09:25:20Z</time>
      </trkpt>
      <trkpt lat="48.97787" lon="2.00295">
        <ele>13.6</ele>
        <time>2022-10-11T09:25:24Z</time>
      </trkpt>
      <trkpt lat="48.97782" lon="2.00298">
        <ele>13</ele>
        <time>2022-10-11T09:25:29Z</time>
      </trkpt>
      <trkpt lat="48.97777" lon="2.003">
        <ele>12.9</ele>
        <time>2022-10-11T09:25:32Z</time>
      </trkpt>
      <trkpt lat="48.97773" lon="2.00302">
        <ele>13.1</ele>
        <time>2022-10-11T09:25:36Z</time>
      </trkpt>
      <trkpt lat="48.97768" lon="2.00305">
        <ele>13.3</ele>
        <time>2022-10-11T09:25:40Z</time>
      </trkpt>
      <trkpt lat="48.97763" lon="2.00308">
        <ele>13.8</ele>
        <time>2022-10-11T09:25:43Z</time>
      </trkpt>
      <trkpt lat="48.97758" lon="2.00309">
        <ele>14.3</ele>
        <time>2022-10-11T09:25:47Z</time>
      </trkpt>
      <trkpt lat="48.97753" lon="2.0031">
        <ele>15.1</ele>
        <time>2022-10-11T09:25:50Z</time>
      </trkpt>
      <trkpt lat="48.97747" lon="2.00312">
        <ele>16.9</ele>
        <time>2022-10-11T09:25:55Z</time>
      </trkpt>
      <trkpt lat="48.97742" lon="2.00314">
        <ele>17.5</ele>
        <time>2022-10-11T09:25:58Z</time>
      </trkpt>
      <trkpt lat="48.97738" lon="2.00317">
        <ele>18.1</ele>
        <time>2022-10-11T09:26:02Z</time>
      </trkpt>
      <trkpt lat="48.97733" lon="2.00321">
        <ele>17.8</ele>
        <time>2022-10-11T09:26:06Z</time>
      </trkpt>
      <trkpt lat="48.97727" lon="2.0032">
        <ele>16.3</ele>
        <time>2022-10-11T09:26:10Z</time>
      </trkpt>
      <trkpt lat="48.97723" lon="2.00319">
        <ele>15.8</ele>
        <time>2022-10-11T09:26:14Z</time>
      </trkpt>
      <trkpt lat="48.97717" lon="2.00318">
        <ele>14.2</ele>
        <time>2022-10-11T09:26:19Z</time>
      </trkpt>
      <trkpt lat="48.97712" lon="2.00319">
        <ele>13.5</ele>
        <time>2022-10-11T09:26:23Z</time>
      </trkpt>
      <trkpt lat="48.97706" lon="2.00318">
        <ele>13.3</ele>
        <time>2022-10-11T09:26:27Z</time>
      </trkpt>
      <trkpt lat="48.97701" lon="2.00315">
        <ele>12.8</ele>
        <time>2022-10-11T09:26:31Z</time>
      </trkpt>
      <trkpt lat="48.97695" lon="2.00315">
        <ele>11.7</ele>
        <time>2022-10-11T09:26:36Z</time>
      </trkpt>
      <trkpt lat="48.97691" lon="2.00318">
        <ele>11.5</ele>
        <time>2022-10-11T09:26:40Z</time>
      </trkpt>
      <trkpt lat="48.97686" lon="2.00322">
        <ele>11.5</ele>
        <time>2022-10-11T09:26:43Z</time>
      </trkpt>
      <trkpt lat="48.97681" lon="2.00326">
        <ele>11.9</ele>
        <time>2022-10-11T09:26:48Z</time>
      </trkpt>
      <trkpt lat="48.97676" lon="2.00328">
        <ele>12.8</ele>
        <time>2022-10-11T09:26:52Z</time>
      </trkpt>
      <trkpt lat="48.97671" lon="2.0033">
        <ele>13</ele>
        <time>2022-10-11T09:26:56Z</time>
      </trkpt>
      <trkpt lat="48.97667" lon="2.00332">
        <ele>12.8</ele>
        <time>2022-10-11T09:27:00Z</time>
      </trkpt>
      <trkpt lat="48.97662" lon="2.00334">
        <ele>12.7</ele>
        <time>2022-10-11T09:27:03Z</time>
      </trkpt>
      <trkpt lat="48.97656" lon="2.00336">
        <ele>12.6</ele>
        <time>2022-10-11T09:27:08Z</time>
      </trkpt>
      <trkpt lat="48.97651" lon="2.00338">
        <ele>12.6</ele>
        <time>2022-10-11T09:27:12Z</time>
      </trkpt>
      <trkpt lat="48.97646" lon="2.0034">
        <ele>12.5</ele>
        <time>2022-10-11T09:27:16Z</time>
      </trkpt>
      <trkpt lat="48.9764" lon="2.00342">
        <ele>11.5</ele>
        <time>2022-10-11T09:27:20Z</time>
      </trkpt>
      <trkpt lat="48.97635" lon="2.00343">
        <ele>10.8</ele>
        <time>2022-10-11T09:27:25Z</time>
      </trkpt>
      <trkpt lat="48.97629" lon="2.00343">
        <ele>10.7</ele>
        <time>2022-10-11T09:27:29Z</time>
      </trkpt>
      <trkpt lat="48.97624" lon="2.00344">
        <ele>10.6</ele>
        <time>2022-10-11T09:27:33Z</time>
      </trkpt>
      <trkpt lat="48.97619" lon="2.00345">
        <ele>11.1</ele>
        <time>2022-10-11T09:27:36Z</time>
      </trkpt>
      <trkpt lat="48.97614" lon="2.00346">
        <ele>12.3</ele>
        <time>2022-10-11T09:27:40Z</time>
      </trkpt>
      <trkpt lat="48.97608" lon="2.00346">
        <ele>12.2</ele>
        <time>2022-10-11T09:27:44Z</time>
      </trkpt>
      <trkpt lat="48.97603" lon="2.00346">
        <ele>12</ele>
        <time>2022-10-11T09:27:47Z</time>
      </trkpt>
      <trkpt lat="48.97598" lon="2.00347">
        <ele>12.3</ele>
        <time>2022-10-11T09:27:50Z</time>
      </trkpt>
      <trkpt lat="48.97594" lon="2.0035">
        <ele>12.6</ele>
        <time>2022-10-11T09:27:54Z</time>
      </trkpt>
      <trkpt lat="48.97589" lon="2.00356">
        <ele>14.1</ele>
        <time>2022-10-11T09:27:57Z</time>
      </trkpt>
      <trkpt lat="48.97584" lon="2.00361">
        <ele>15.8</ele>
        <time>2022-10-11T09:28:01Z</time>
      </trkpt>
      <trkpt lat="48.9758" lon="2.00363">
        <ele>16.1</ele>
        <time>2022-10-11T09:28:05Z</time>
      </trkpt>
      <trkpt lat="48.97574" lon="2.00364">
        <ele>16.9</ele>
        <time>2022-10-11T09:28:09Z</time>
      </trkpt>
      <trkpt lat="48.97569" lon="2.00366">
        <ele>17.7</ele>
        <time>2022-10-11T09:28:13Z</time>
      </trkpt>
      <trkpt lat="48.97564" lon="2.00368">
        <ele>18.1</ele>
        <time>2022-10-11T09:28:16Z</time>
      </trkpt>
      <trkpt lat="48.9756" lon="2.0037">
        <ele>18.7</ele>
        <time>2022-10-11T09:28:20Z</time>
      </trkpt>
      <trkpt lat="48.97555" lon="2.0037">
        <ele>18.6</ele>
        <time>2022-10-11T09:28:23Z</time>
      </trkpt>
      <trkpt lat="48.9755" lon="2.00372">
        <ele>17.9</ele>
        <time>2022-10-11T09:28:28Z</time>
      </trkpt>
      <trkpt lat="48.97544" lon="2.00374">
        <ele>17.3</ele>
        <time>2022-10-11T09:28:31Z</time>
      </trkpt>
      <trkpt lat="48.97539" lon="2.00375">
        <ele>15.4</ele>
        <time>2022-10-11T09:28:35Z</time>
      </trkpt>
      <trkpt lat="48.97534" lon="2.00375">
        <ele>14.4</ele>
        <time>2022-10-11T09:28:39Z</time>
      </trkpt>
      <trkpt lat="48.97529" lon="2.00376">
        <ele>14</ele>
        <time>2022-10-11T09:28:43Z</time>
      </trkpt>
      <trkpt lat="48.97524" lon="2.00378">
        <ele>13.7</ele>
        <time>2022-10-11T09:28:47Z</time>
      </trkpt>
      <trkpt lat="48.97519" lon="2.00379">
        <ele>13.8</ele>
        <time>2022-10-11T09:28:50Z</time>
      </trkpt>
      <trkpt lat="48.97514" lon="2.0038">
        <ele>14.2</ele>
        <time>2022-10-11T09:28:54Z</time>
      </trkpt>
      <trkpt lat="48.9751" lon="2.00382">
        <ele>14.8</ele>
        <time>2022-10-11T09:28:57Z</time>
      </trkpt>
      <trkpt lat="48.97504" lon="2.00386">
        <ele>14.4</ele>
        <time>2022-10-11T09:29:01Z</time>
      </trkpt>
      <trkpt lat="48.97497" lon="2.00389">
        <ele>14.3</ele>
        <time>2022-10-11T09:29:06Z</time>
      </trkpt>
      <trkpt lat="48.97493" lon="2.00392">
        <ele>14.1</ele>
        <time>2022-10-11T09:29:10Z</time>
      </trkpt>
      <trkpt lat="48.97489" lon="2.00395">
        <ele>14.2</ele>
        <time>2022-10-11T09:29:13Z</time>
      </trkpt>
      <trkpt lat="48.97484" lon="2.00398">
        <ele>14.1</ele>
        <time>2022-10-11T09:29:16Z</time>
      </trkpt>
      <trkpt lat="48.97478" lon="2.004">
        <ele>13.9</ele>
        <time>2022-10-11T09:29:21Z</time>
      </trkpt>
      <trkpt lat="48.97471" lon="2.00401">
        <ele>13.5</ele>
        <time>2022-10-11T09:29:26Z</time>
      </trkpt>
      <trkpt lat="48.97467" lon="2.00402">
        <ele>13.5</ele>
        <time>2022-10-11T09:29:30Z</time>
      </trkpt>
      <trkpt lat="48.97461" lon="2.00402">
        <ele>13.2</ele>
        <time>2022-10-11T09:29:33Z</time>
      </trkpt>
      <trkpt lat="48.97457" lon="2.00402">
        <ele>13.4</ele>
        <time>2022-10-11T09:29:36Z</time>
      </trkpt>
      <trkpt lat="48.97452" lon="2.00404">
        <ele>13.3</ele>
        <time>2022-10-11T09:29:40Z</time>
      </trkpt>
      <trkpt lat="48.97447" lon="2.00406">
        <ele>13.3</ele>
        <time>2022-10-11T09:29:43Z</time>
      </trkpt>
      <trkpt lat="48.97442" lon="2.00408">
        <ele>13.4</ele>
        <time>2022-10-11T09:29:47Z</time>
      </trkpt>
      <trkpt lat="48.97436" lon="2.00408">
        <ele>13.5</ele>
        <time>2022-10-11T09:29:51Z</time>
      </trkpt>
      <trkpt lat="48.9743" lon="2.00409">
        <ele>13.4</ele>
        <time>2022-10-11T09:29:57Z</time>
      </trkpt>
      <trkpt lat="48.97423" lon="2.00411">
        <ele>14.1</ele>
        <time>2022-10-11T09:30:02Z</time>
      </trkpt>
      <trkpt lat="48.97417" lon="2.00412">
        <ele>15.5</ele>
        <time>2022-10-11T09:30:06Z</time>
      </trkpt>
      <trkpt lat="48.97411" lon="2.00413">
        <ele>16</ele>
        <time>2022-10-11T09:30:11Z</time>
      </trkpt>
      <trkpt lat="48.97404" lon="2.00414">
        <ele>15.4</ele>
        <time>2022-10-11T09:30:16Z</time>
      </trkpt>
      <trkpt lat="48.97398" lon="2.00415">
        <ele>14.6</ele>
        <time>2022-10-11T09:30:21Z</time>
      </trkpt>
      <trkpt lat="48.97393" lon="2.00416">
        <ele>13</ele>
        <time>2022-10-11T09:30:26Z</time>
      </trkpt>
      <trkpt lat="48.97387" lon="2.00418">
        <ele>12.9</ele>
        <time>2022-10-11T09:30:30Z</time>
      </trkpt>
      <trkpt lat="48.97383" lon="2.00418">
        <ele>13.5</ele>
        <time>2022-10-11T09:30:34Z</time>
      </trkpt>
      <trkpt lat="48.97378" lon="2.00419">
        <ele>14.2</ele>
        <time>2022-10-11T09:30:36Z</time>
      </trkpt>
      <trkpt lat="48.97373" lon="2.00421">
        <ele>14.7</ele>
        <time>2022-10-11T09:30:40Z</time>
      </trkpt>
      <trkpt lat="48.97368" lon="2.00423">
        <ele>15.1</ele>
        <time>2022-10-11T09:30:44Z</time>
      </trkpt>
      <trkpt lat="48.97364" lon="2.00423">
        <ele>15.3</ele>
        <time>2022-10-11T09:30:46Z</time>
      </trkpt>
      <trkpt lat="48.97357" lon="2.00424">
        <ele>14.9</ele>
        <time>2022-10-11T09:30:51Z</time>
      </trkpt>
      <trkpt lat="48.97351" lon="2.00425">
        <ele>14.2</ele>
        <time>2022-10-11T09:30:56Z</time>
      </trkpt>
      <trkpt lat="48.97346" lon="2.00427">
        <ele>14.2</ele>
        <time>2022-10-11T09:31:00Z</time>
      </trkpt>
      <trkpt lat="48.97341" lon="2.00428">
        <ele>14.2</ele>
        <time>2022-10-11T09:31:04Z</time>
      </trkpt>
      <trkpt lat="48.97336" lon="2.00427">
        <ele>14.2</ele>
        <time>2022-10-11T09:31:07Z</time>
      </trkpt>
      <trkpt lat="48.9733" lon="2.00428">
        <ele>14.3</ele>
        <time>2022-10-11T09:31:11Z</time>
      </trkpt>
      <trkpt lat="48.97324" lon="2.00429">
        <ele>15</ele>
        <time>2022-10-11T09:31:16Z</time>
      </trkpt>
      <trkpt lat="48.97317" lon="2.00432">
        <ele>15.4</ele>
        <time>2022-10-11T09:31:22Z</time>
      </trkpt>
      <trkpt lat="48.97312" lon="2.00433">
        <ele>16.2</ele>
        <time>2022-10-11T09:31:26Z</time>
      </trkpt>
      <trkpt lat="48.97308" lon="2.00433">
        <ele>16.5</ele>
        <time>2022-10-11T09:31:29Z</time>
      </trkpt>
      <trkpt lat="48.97303" lon="2.00432">
        <ele>16.8</ele>
        <time>2022-10-11T09:31:32Z</time>
      </trkpt>
      <trkpt lat="48.97297" lon="2.00432">
        <ele>16</ele>
        <time>2022-10-11T09:31:36Z</time>
      </trkpt>
      <trkpt lat="48.97292" lon="2.00432">
        <ele>14.6</ele>
        <time>2022-10-11T09:31:41Z</time>
      </trkpt>
      <trkpt lat="48.97287" lon="2.00431">
        <ele>13.3</ele>
        <time>2022-10-11T09:31:44Z</time>
      </trkpt>
      <trkpt lat="48.97283" lon="2.00431">
        <ele>12.9</ele>
        <time>2022-10-11T09:31:47Z</time>
      </trkpt>
      <trkpt lat="48.97278" lon="2.00434">
        <ele>12.6</ele>
        <time>2022-10-11T09:31:52Z</time>
      </trkpt>
      <trkpt lat="48.97273" lon="2.00434">
        <ele>12.4</ele>
        <time>2022-10-11T09:31:57Z</time>
      </trkpt>
      <trkpt lat="48.97268" lon="2.00436">
        <ele>12.2</ele>
        <time>2022-10-11T09:32:01Z</time>
      </trkpt>
      <trkpt lat="48.97262" lon="2.00437">
        <ele>11.5</ele>
        <time>2022-10-11T09:32:05Z</time>
      </trkpt>
      <trkpt lat="48.97256" lon="2.00438">
        <ele>11.3</ele>
        <time>2022-10-11T09:32:10Z</time>
      </trkpt>
      <trkpt lat="48.97251" lon="2.00438">
        <ele>11.1</ele>
        <time>2022-10-11T09:32:14Z</time>
      </trkpt>
      <trkpt lat="48.97246" lon="2.00439">
        <ele>11</ele>
        <time>2022-10-11T09:32:18Z</time>
      </trkpt>
      <trkpt lat="48.97241" lon="2.0044">
        <ele>10.7</ele>
        <time>2022-10-11T09:32:22Z</time>
      </trkpt>
      <trkpt lat="48.97234" lon="2.0044">
        <ele>10.2</ele>
        <time>2022-10-11T09:32:27Z</time>
      </trkpt>
      <trkpt lat="48.9723" lon="2.0044">
        <ele>9.5</ele>
        <time>2022-10-11T09:32:31Z</time>
      </trkpt>
      <trkpt lat="48.97225" lon="2.0044">
        <ele>10.9</ele>
        <time>2022-10-11T09:32:35Z</time>
      </trkpt>
      <trkpt lat="48.97219" lon="2.0044">
        <ele>11.7</ele>
        <time>2022-10-11T09:32:39Z</time>
      </trkpt>
      <trkpt lat="48.97213" lon="2.0044">
        <ele>12.3</ele>
        <time>2022-10-11T09:32:43Z</time>
      </trkpt>
      <trkpt lat="48.97209" lon="2.00439">
        <ele>12.7</ele>
        <time>2022-10-11T09:32:46Z</time>
      </trkpt>
      <trkpt lat="48.97204" lon="2.00439">
        <ele>13.5</ele>
        <time>2022-10-11T09:32:50Z</time>
      </trkpt>
      <trkpt lat="48.972" lon="2.0044">
        <ele>15.7</ele>
        <time>2022-10-11T09:32:53Z</time>
      </trkpt>
      <trkpt lat="48.97195" lon="2.00446">
        <ele>17.4</ele>
        <time>2022-10-11T09:32:57Z</time>
      </trkpt>
      <trkpt lat="48.972" lon="2.00449">
        <ele>16</ele>
        <time>2022-10-11T09:33:06Z</time>
      </trkpt>
      <trkpt lat="48.97204" lon="2.00448">
        <ele>12.3</ele>
        <time>2022-10-11T09:34:42Z</time>
      </trkpt>
      <trkpt lat="48.97205" lon="2.00455">
        <ele>12.1</ele>
        <time>2022-10-11T09:34:49Z</time>
      </trkpt>
      <trkpt lat="48.97205" lon="2.00462">
        <ele>11.9</ele>
        <time>2022-10-11T09:34:52Z</time>
      </trkpt>
      <trkpt lat="48.97207" lon="2.00471">
        <ele>11.8</ele>
        <time>2022-10-11T09:34:57Z</time>
      </trkpt>
      <trkpt lat="48.97208" lon="2.00478">
        <ele>12.1</ele>
        <time>2022-10-11T09:35:00Z</time>
      </trkpt>
      <trkpt lat="48.9721" lon="2.00484">
        <ele>12.6</ele>
        <time>2022-10-11T09:35:03Z</time>
      </trkpt>
      <trkpt lat="48.97213" lon="2.00492">
        <ele>14</ele>
        <time>2022-10-11T09:35:08Z</time>
      </trkpt>
      <trkpt lat="48.97214" lon="2.005">
        <ele>14.3</ele>
        <time>2022-10-11T09:35:12Z</time>
      </trkpt>
      <trkpt lat="48.97216" lon="2.00509">
        <ele>12.9</ele>
        <time>2022-10-11T09:35:17Z</time>
      </trkpt>
      <trkpt lat="48.97216" lon="2.00519">
        <ele>12.9</ele>
        <time>2022-10-11T09:35:23Z</time>
      </trkpt>
      <trkpt lat="48.97216" lon="2.00528">
        <ele>14.4</ele>
        <time>2022-10-11T09:35:27Z</time>
      </trkpt>
      <trkpt lat="48.97215" lon="2.00536">
        <ele>15</ele>
        <time>2022-10-11T09:35:32Z</time>
      </trkpt>
      <trkpt lat="48.97213" lon="2.00543">
        <ele>16</ele>
        <time>2022-10-11T09:35:36Z</time>
      </trkpt>
      <trkpt lat="48.97209" lon="2.00547">
        <ele>15.9</ele>
        <time>2022-10-11T09:35:40Z</time>
      </trkpt>
      <trkpt lat="48.97204" lon="2.00547">
        <ele>15</ele>
        <time>2022-10-11T09:35:46Z</time>
      </trkpt>
      <trkpt lat="48.97199" lon="2.00545">
        <ele>13.4</ele>
        <time>2022-10-11T09:35:51Z</time>
      </trkpt>
      <trkpt lat="48.97194" lon="2.00545">
        <ele>12.3</ele>
        <time>2022-10-11T09:35:55Z</time>
      </trkpt>
      <trkpt lat="48.97188" lon="2.00545">
        <ele>10.8</ele>
        <time>2022-10-11T09:35:59Z</time>
      </trkpt>
      <trkpt lat="48.97183" lon="2.00546">
        <ele>9.8</ele>
        <time>2022-10-11T09:36:04Z</time>
      </trkpt>
      <trkpt lat="48.97177" lon="2.00548">
        <ele>8.9</ele>
        <time>2022-10-11T09:36:09Z</time>
      </trkpt>
      <trkpt lat="48.97173" lon="2.0055">
        <ele>8.6</ele>
        <time>2022-10-11T09:36:13Z</time>
      </trkpt>
      <trkpt lat="48.97166" lon="2.00552">
        <ele>8.6</ele>
        <time>2022-10-11T09:36:18Z</time>
      </trkpt>
      <trkpt lat="48.9716" lon="2.00555">
        <ele>8.5</ele>
        <time>2022-10-11T09:36:23Z</time>
      </trkpt>
      <trkpt lat="48.97153" lon="2.00558">
        <ele>8</ele>
        <time>2022-10-11T09:36:29Z</time>
      </trkpt>
      <trkpt lat="48.97147" lon="2.0056">
        <ele>8.5</ele>
        <time>2022-10-11T09:36:34Z</time>
      </trkpt>
      <trkpt lat="48.97141" lon="2.0056">
        <ele>9.3</ele>
        <time>2022-10-11T09:36:38Z</time>
      </trkpt>
      <trkpt lat="48.97134" lon="2.00561">
        <ele>10</ele>
        <time>2022-10-11T09:36:43Z</time>
      </trkpt>
      <trkpt lat="48.97128" lon="2.00565">
        <ele>11.3</ele>
        <time>2022-10-11T09:36:48Z</time>
      </trkpt>
      <trkpt lat="48.97122" lon="2.00568">
        <ele>12.2</ele>
        <time>2022-10-11T09:36:53Z</time>
      </trkpt>
      <trkpt lat="48.97116" lon="2.0057">
        <ele>11.9</ele>
        <time>2022-10-11T09:36:58Z</time>
      </trkpt>
      <trkpt lat="48.97112" lon="2.00574">
        <ele>11.7</ele>
        <time>2022-10-11T09:37:02Z</time>
      </trkpt>
      <trkpt lat="48.97109" lon="2.00577">
        <ele>11.9</ele>
        <time>2022-10-11T09:37:06Z</time>
      </trkpt>
      <trkpt lat="48.97104" lon="2.00582">
        <ele>12.3</ele>
        <time>2022-10-11T09:37:10Z</time>
      </trkpt>
      <trkpt lat="48.97101" lon="2.00586">
        <ele>13.9</ele>
        <time>2022-10-11T09:37:14Z</time>
      </trkpt>
      <trkpt lat="48.97096" lon="2.00593">
        <ele>14.7</ele>
        <time>2022-10-11T09:37:18Z</time>
      </trkpt>
      <trkpt lat="48.97091" lon="2.00599">
        <ele>15.1</ele>
        <time>2022-10-11T09:37:23Z</time>
      </trkpt>
      <trkpt lat="48.97086" lon="2.00605">
        <ele>15.5</ele>
        <time>2022-10-11T09:37:28Z</time>
      </trkpt>
      <trkpt lat="48.97083" lon="2.00609">
        <ele>15.3</ele>
        <time>2022-10-11T09:37:32Z</time>
      </trkpt>
      <trkpt lat="48.97079" lon="2.00615">
        <ele>15.2</ele>
        <time>2022-10-11T09:37:36Z</time>
      </trkpt>
      <trkpt lat="48.97076" lon="2.0062">
        <ele>15.4</ele>
        <time>2022-10-11T09:37:39Z</time>
      </trkpt>
      <trkpt lat="48.97071" lon="2.00628">
        <ele>16.1</ele>
        <time>2022-10-11T09:37:44Z</time>
      </trkpt>
      <trkpt lat="48.97067" lon="2.00636">
        <ele>16.5</ele>
        <time>2022-10-11T09:37:49Z</time>
      </trkpt>
      <trkpt lat="48.97063" lon="2.00643">
        <ele>16.8</ele>
        <time>2022-10-11T09:37:53Z</time>
      </trkpt>
      <trkpt lat="48.97059" lon="2.0065">
        <ele>17.3</ele>
        <time>2022-10-11T09:37:58Z</time>
      </trkpt>
      <trkpt lat="48.97055" lon="2.00658">
        <ele>17.4</ele>
        <time>2022-10-11T09:38:03Z</time>
      </trkpt>
      <trkpt lat="48.97051" lon="2.00662">
        <ele>17.6</ele>
        <time>2022-10-11T09:38:09Z</time>
      </trkpt>
      <trkpt lat="48.97047" lon="2.00667">
        <ele>17.9</ele>
        <time>2022-10-11T09:38:13Z</time>
      </trkpt>
      <trkpt lat="48.97041" lon="2.00672">
        <ele>18.3</ele>
        <time>2022-10-11T09:38:18Z</time>
      </trkpt>
      <trkpt lat="48.97035" lon="2.00674">
        <ele>18.4</ele>
        <time>2022-10-11T09:38:23Z</time>
      </trkpt>
      <trkpt lat="48.97029" lon="2.00676">
        <ele>18.4</ele>
        <time>2022-10-11T09:38:28Z</time>
      </trkpt>
      <trkpt lat="48.97024" lon="2.00677">
        <ele>18.8</ele>
        <time>2022-10-11T09:38:33Z</time>
      </trkpt>
      <trkpt lat="48.97018" lon="2.00678">
        <ele>19</ele>
        <time>2022-10-11T09:38:38Z</time>
      </trkpt>
      <trkpt lat="48.97012" lon="2.00679">
        <ele>18.6</ele>
        <time>2022-10-11T09:38:43Z</time>
      </trkpt>
      <trkpt lat="48.97007" lon="2.00679">
        <ele>16.6</ele>
        <time>2022-10-11T09:38:47Z</time>
      </trkpt>
      <trkpt lat="48.97001" lon="2.00678">
        <ele>15.3</ele>
        <time>2022-10-11T09:38:52Z</time>
      </trkpt>
      <trkpt lat="48.96996" lon="2.00678">
        <ele>14.4</ele>
        <time>2022-10-11T09:38:56Z</time>
      </trkpt>
      <trkpt lat="48.96991" lon="2.00677">
        <ele>14.6</ele>
        <time>2022-10-11T09:39:00Z</time>
      </trkpt>
      <trkpt lat="48.96986" lon="2.00678">
        <ele>14.8</ele>
        <time>2022-10-11T09:39:04Z</time>
      </trkpt>
      <trkpt lat="48.9698" lon="2.00678">
        <ele>14.5</ele>
        <time>2022-10-11T09:39:08Z</time>
      </trkpt>
      <trkpt lat="48.96973" lon="2.00679">
        <ele>14</ele>
        <time>2022-10-11T09:39:13Z</time>
      </trkpt>
      <trkpt lat="48.96968" lon="2.00686">
        <ele>13.9</ele>
        <time>2022-10-11T09:39:18Z</time>
      </trkpt>
      <trkpt lat="48.96967" lon="2.00694">
        <ele>14.3</ele>
        <time>2022-10-11T09:39:22Z</time>
      </trkpt>
      <trkpt lat="48.96968" lon="2.00703">
        <ele>15.5</ele>
        <time>2022-10-11T09:39:26Z</time>
      </trkpt>
      <trkpt lat="48.9697" lon="2.00711">
        <ele>17.5</ele>
        <time>2022-10-11T09:39:29Z</time>
      </trkpt>
      <trkpt lat="48.96973" lon="2.00719">
        <ele>18.5</ele>
        <time>2022-10-11T09:39:33Z</time>
      </trkpt>
      <trkpt lat="48.96976" lon="2.00725">
        <ele>19.5</ele>
        <time>2022-10-11T09:39:37Z</time>
      </trkpt>
      <trkpt lat="48.96978" lon="2.00733">
        <ele>19.6</ele>
        <time>2022-10-11T09:39:42Z</time>
      </trkpt>
      <trkpt lat="48.9698" lon="2.0074">
        <ele>19.4</ele>
        <time>2022-10-11T09:39:45Z</time>
      </trkpt>
      <trkpt lat="48.96982" lon="2.00748">
        <ele>18.8</ele>
        <time>2022-10-11T09:39:49Z</time>
      </trkpt>
      <trkpt lat="48.96983" lon="2.00756">
        <ele>18.7</ele>
        <time>2022-10-11T09:39:53Z</time>
      </trkpt>
      <trkpt lat="48.96984" lon="2.00765">
        <ele>18.9</ele>
        <time>2022-10-11T09:39:58Z</time>
      </trkpt>
      <trkpt lat="48.96986" lon="2.00772">
        <ele>19.6</ele>
        <time>2022-10-11T09:40:03Z</time>
      </trkpt>
      <trkpt lat="48.96987" lon="2.00779">
        <ele>19.5</ele>
        <time>2022-10-11T09:40:06Z</time>
      </trkpt>
      <trkpt lat="48.96989" lon="2.00787">
        <ele>19.1</ele>
        <time>2022-10-11T09:40:10Z</time>
      </trkpt>
      <trkpt lat="48.9699" lon="2.00794">
        <ele>19.2</ele>
        <time>2022-10-11T09:40:14Z</time>
      </trkpt>
      <trkpt lat="48.96992" lon="2.00802">
        <ele>19.7</ele>
        <time>2022-10-11T09:40:18Z</time>
      </trkpt>
      <trkpt lat="48.96993" lon="2.00811">
        <ele>20</ele>
        <time>2022-10-11T09:40:23Z</time>
      </trkpt>
      <trkpt lat="48.96995" lon="2.0082">
        <ele>20.3</ele>
        <time>2022-10-11T09:40:28Z</time>
      </trkpt>
      <trkpt lat="48.96998" lon="2.00827">
        <ele>20.1</ele>
        <time>2022-10-11T09:40:33Z</time>
      </trkpt>
      <trkpt lat="48.97004" lon="2.00829">
        <ele>19.9</ele>
        <time>2022-10-11T09:40:38Z</time>
      </trkpt>
      <trkpt lat="48.97011" lon="2.00828">
        <ele>19.4</ele>
        <time>2022-10-11T09:40:43Z</time>
      </trkpt>
      <trkpt lat="48.97018" lon="2.00825">
        <ele>19.2</ele>
        <time>2022-10-11T09:40:49Z</time>
      </trkpt>
      <trkpt lat="48.97023" lon="2.00824">
        <ele>19.5</ele>
        <time>2022-10-11T09:40:53Z</time>
      </trkpt>
      <trkpt lat="48.97028" lon="2.00823">
        <ele>19.8</ele>
        <time>2022-10-11T09:40:57Z</time>
      </trkpt>
      <trkpt lat="48.97032" lon="2.00822">
        <ele>20.3</ele>
        <time>2022-10-11T09:41:00Z</time>
      </trkpt>
      <trkpt lat="48.97038" lon="2.00822">
        <ele>20.7</ele>
        <time>2022-10-11T09:41:03Z</time>
      </trkpt>
      <trkpt lat="48.97043" lon="2.00822">
        <ele>20.9</ele>
        <time>2022-10-11T09:41:08Z</time>
      </trkpt>
      <trkpt lat="48.97047" lon="2.00822">
        <ele>21.2</ele>
        <time>2022-10-11T09:41:11Z</time>
      </trkpt>
      <trkpt lat="48.97053" lon="2.00821">
        <ele>21.2</ele>
        <time>2022-10-11T09:41:15Z</time>
      </trkpt>
      <trkpt lat="48.97058" lon="2.0082">
        <ele>21.5</ele>
        <time>2022-10-11T09:41:18Z</time>
      </trkpt>
      <trkpt lat="48.97065" lon="2.00817">
        <ele>21.9</ele>
        <time>2022-10-11T09:41:23Z</time>
      </trkpt>
      <trkpt lat="48.9707" lon="2.00815">
        <ele>22.3</ele>
        <time>2022-10-11T09:41:28Z</time>
      </trkpt>
      <trkpt lat="48.97075" lon="2.00814">
        <ele>22.1</ele>
        <time>2022-10-11T09:41:32Z</time>
      </trkpt>
      <trkpt lat="48.97079" lon="2.00818">
        <ele>21.1</ele>
        <time>2022-10-11T09:41:36Z</time>
      </trkpt>
      <trkpt lat="48.97081" lon="2.00826">
        <ele>20.8</ele>
        <time>2022-10-11T09:41:40Z</time>
      </trkpt>
      <trkpt lat="48.97083" lon="2.00833">
        <ele>20.6</ele>
        <time>2022-10-11T09:41:44Z</time>
      </trkpt>
      <trkpt lat="48.97085" lon="2.00842">
        <ele>21.5</ele>
        <time>2022-10-11T09:41:48Z</time>
      </trkpt>
      <trkpt lat="48.97088" lon="2.00848">
        <ele>22</ele>
        <time>2022-10-11T09:41:53Z</time>
      </trkpt>
      <trkpt lat="48.97091" lon="2.00855">
        <ele>22.5</ele>
        <time>2022-10-11T09:41:57Z</time>
      </trkpt>
      <trkpt lat="48.9709" lon="2.00862">
        <ele>23.1</ele>
        <time>2022-10-11T09:42:01Z</time>
      </trkpt>
      <trkpt lat="48.97091" lon="2.0087">
        <ele>24.6</ele>
        <time>2022-10-11T09:42:06Z</time>
      </trkpt>
      <trkpt lat="48.97095" lon="2.00873">
        <ele>25.9</ele>
        <time>2022-10-11T09:42:12Z</time>
      </trkpt>
      <trkpt lat="48.971" lon="2.00875">
        <ele>25.1</ele>
        <time>2022-10-11T09:42:19Z</time>
      </trkpt>
      <trkpt lat="48.97105" lon="2.0088">
        <ele>23.8</ele>
        <time>2022-10-11T09:42:26Z</time>
      </trkpt>
      <trkpt lat="48.97109" lon="2.00884">
        <ele>24.1</ele>
        <time>2022-10-11T09:42:30Z</time>
      </trkpt>
      <trkpt lat="48.97113" lon="2.00883">
        <ele>24.6</ele>
        <time>2022-10-11T09:42:34Z</time>
      </trkpt>
      <trkpt lat="48.97118" lon="2.0088">
        <ele>24.2</ele>
        <time>2022-10-11T09:42:39Z</time>
      </trkpt>
      <trkpt lat="48.97124" lon="2.00876">
        <ele>22.2</ele>
        <time>2022-10-11T09:42:44Z</time>
      </trkpt>
      <trkpt lat="48.9713" lon="2.00872">
        <ele>21.9</ele>
        <time>2022-10-11T09:42:49Z</time>
      </trkpt>
      <trkpt lat="48.97136" lon="2.00869">
        <ele>21.5</ele>
        <time>2022-10-11T09:42:54Z</time>
      </trkpt>
      <trkpt lat="48.97141" lon="2.00865">
        <ele>20.7</ele>
        <time>2022-10-11T09:42:59Z</time>
      </trkpt>
      <trkpt lat="48.97146" lon="2.00861">
        <ele>20.2</ele>
        <time>2022-10-11T09:43:04Z</time>
      </trkpt>
      <trkpt lat="48.97151" lon="2.00856">
        <ele>19.9</ele>
        <time>2022-10-11T09:43:09Z</time>
      </trkpt>
      <trkpt lat="48.97157" lon="2.00856">
        <ele>20.3</ele>
        <time>2022-10-11T09:43:14Z</time>
      </trkpt>
      <trkpt lat="48.97158" lon="2.00864">
        <ele>21.3</ele>
        <time>2022-10-11T09:43:19Z</time>
      </trkpt>
      <trkpt lat="48.97159" lon="2.00871">
        <ele>22.8</ele>
        <time>2022-10-11T09:43:23Z</time>
      </trkpt>
      <trkpt lat="48.9716" lon="2.00878">
        <ele>23.3</ele>
        <time>2022-10-11T09:43:27Z</time>
      </trkpt>
      <trkpt lat="48.97162" lon="2.00885">
        <ele>23.9</ele>
        <time>2022-10-11T09:43:30Z</time>
      </trkpt>
      <trkpt lat="48.97164" lon="2.00893">
        <ele>23.9</ele>
        <time>2022-10-11T09:43:34Z</time>
      </trkpt>
      <trkpt lat="48.97167" lon="2.00902">
        <ele>23.8</ele>
        <time>2022-10-11T09:43:39Z</time>
      </trkpt>
      <trkpt lat="48.97169" lon="2.00909">
        <ele>23.9</ele>
        <time>2022-10-11T09:43:44Z</time>
      </trkpt>
      <trkpt lat="48.9717" lon="2.00917">
        <ele>23.9</ele>
        <time>2022-10-11T09:43:49Z</time>
      </trkpt>
      <trkpt lat="48.97171" lon="2.00927">
        <ele>24.5</ele>
        <time>2022-10-11T09:43:54Z</time>
      </trkpt>
      <trkpt lat="48.97173" lon="2.00933">
        <ele>24.4</ele>
        <time>2022-10-11T09:43:59Z</time>
      </trkpt>
      <trkpt lat="48.97177" lon="2.00941">
        <ele>24.5</ele>
        <time>2022-10-11T09:44:04Z</time>
      </trkpt>
      <trkpt lat="48.9718" lon="2.00948">
        <ele>25.3</ele>
        <time>2022-10-11T09:44:09Z</time>
      </trkpt>
      <trkpt lat="48.97183" lon="2.00955">
        <ele>25.1</ele>
        <time>2022-10-11T09:44:14Z</time>
      </trkpt>
      <trkpt lat="48.97184" lon="2.00965">
        <ele>24.4</ele>
        <time>2022-10-11T09:44:19Z</time>
      </trkpt>
      <trkpt lat="48.97186" lon="2.00974">
        <ele>24.1</ele>
        <time>2022-10-11T09:44:24Z</time>
      </trkpt>
      <trkpt lat="48.97188" lon="2.00983">
        <ele>23.8</ele>
        <time>2022-10-11T09:44:29Z</time>
      </trkpt>
      <trkpt lat="48.97192" lon="2.00989">
        <ele>23.6</ele>
        <time>2022-10-11T09:44:34Z</time>
      </trkpt>
      <trkpt lat="48.97197" lon="2.00991">
        <ele>23</ele>
        <time>2022-10-11T09:44:38Z</time>
      </trkpt>
      <trkpt lat="48.97202" lon="2.00993">
        <ele>23.2</ele>
        <time>2022-10-11T09:44:43Z</time>
      </trkpt>
      <trkpt lat="48.97207" lon="2.00994">
        <ele>23.2</ele>
        <time>2022-10-11T09:44:48Z</time>
      </trkpt>
      <trkpt lat="48.97211" lon="2.00999">
        <ele>23.6</ele>
        <time>2022-10-11T09:44:52Z</time>
      </trkpt>
      <trkpt lat="48.97214" lon="2.01004">
        <ele>23.9</ele>
        <time>2022-10-11T09:44:57Z</time>
      </trkpt>
      <trkpt lat="48.97214" lon="2.01011">
        <ele>25</ele>
        <time>2022-10-11T09:45:29Z</time>
      </trkpt>
      <trkpt lat="48.97214" lon="2.0102">
        <ele>25</ele>
        <time>2022-10-11T09:45:34Z</time>
      </trkpt>
      <trkpt lat="48.97214" lon="2.0103">
        <ele>24.6</ele>
        <time>2022-10-11T09:45:39Z</time>
      </trkpt>
      <trkpt lat="48.97214" lon="2.01037">
        <ele>24.2</ele>
        <time>2022-10-11T09:45:43Z</time>
      </trkpt>
      <trkpt lat="48.97214" lon="2.01046">
        <ele>25.1</ele>
        <time>2022-10-11T09:45:55Z</time>
      </trkpt>
      <trkpt lat="48.97216" lon="2.01054">
        <ele>27.3</ele>
        <time>2022-10-11T09:46:00Z</time>
      </trkpt>
      <trkpt lat="48.97217" lon="2.01061">
        <ele>27.3</ele>
        <time>2022-10-11T09:46:04Z</time>
      </trkpt>
      <trkpt lat="48.97219" lon="2.01069">
        <ele>28.3</ele>
        <time>2022-10-11T09:46:09Z</time>
      </trkpt>
      <trkpt lat="48.97221" lon="2.01076">
        <ele>29.4</ele>
        <time>2022-10-11T09:46:13Z</time>
      </trkpt>
      <trkpt lat="48.97223" lon="2.01082">
        <ele>29.7</ele>
        <time>2022-10-11T09:46:17Z</time>
      </trkpt>
      <trkpt lat="48.97225" lon="2.01089">
        <ele>29.7</ele>
        <time>2022-10-11T09:46:22Z</time>
      </trkpt>
      <trkpt lat="48.97227" lon="2.01097">
        <ele>30.4</ele>
        <time>2022-10-11T09:46:27Z</time>
      </trkpt>
      <trkpt lat="48.97229" lon="2.01104">
        <ele>30.8</ele>
        <time>2022-10-11T09:46:32Z</time>
      </trkpt>
      <trkpt lat="48.9723" lon="2.01111">
        <ele>30.6</ele>
        <time>2022-10-11T09:46:36Z</time>
      </trkpt>
      <trkpt lat="48.9723" lon="2.01121">
        <ele>31</ele>
        <time>2022-10-11T09:46:41Z</time>
      </trkpt>
      <trkpt lat="48.97231" lon="2.0113">
        <ele>31.8</ele>
        <time>2022-10-11T09:46:46Z</time>
      </trkpt>
      <trkpt lat="48.97232" lon="2.01138">
        <ele>32.2</ele>
        <time>2022-10-11T09:46:51Z</time>
      </trkpt>
      <trkpt lat="48.97233" lon="2.01146">
        <ele>33</ele>
        <time>2022-10-11T09:46:56Z</time>
      </trkpt>
      <trkpt lat="48.97235" lon="2.01154">
        <ele>33.7</ele>
        <time>2022-10-11T09:47:01Z</time>
      </trkpt>
      <trkpt lat="48.97236" lon="2.01163">
        <ele>34</ele>
        <time>2022-10-11T09:47:06Z</time>
      </trkpt>
      <trkpt lat="48.9724" lon="2.01166">
        <ele>36.6</ele>
        <time>2022-10-11T09:47:17Z</time>
      </trkpt>
      <trkpt lat="48.9724" lon="2.01173">
        <ele>36.8</ele>
        <time>2022-10-11T09:47:23Z</time>
      </trkpt>
      <trkpt lat="48.97239" lon="2.01181">
        <ele>37.4</ele>
        <time>2022-10-11T09:47:33Z</time>
      </trkpt>
      <trkpt lat="48.97239" lon="2.01189">
        <ele>37.6</ele>
        <time>2022-10-11T09:47:38Z</time>
      </trkpt>
      <trkpt lat="48.9724" lon="2.01196">
        <ele>38.1</ele>
        <time>2022-10-11T09:47:42Z</time>
      </trkpt>
      <trkpt lat="48.97242" lon="2.01203">
        <ele>38.9</ele>
        <time>2022-10-11T09:47:47Z</time>
      </trkpt>
      <trkpt lat="48.97243" lon="2.01196">
        <ele>41.9</ele>
        <time>2022-10-11T09:48:01Z</time>
      </trkpt>
      <trkpt lat="48.97241" lon="2.01203">
        <ele>39.8</ele>
        <time>2022-10-11T09:48:20Z</time>
      </trkpt>
      <trkpt lat="48.9724" lon="2.01211">
        <ele>38.5</ele>
        <time>2022-10-11T09:48:24Z</time>
      </trkpt>
      <trkpt lat="48.97238" lon="2.01218">
        <ele>38.9</ele>
        <time>2022-10-11T09:48:36Z</time>
      </trkpt>
      <trkpt lat="48.97236" lon="2.01225">
        <ele>40.6</ele>
        <time>2022-10-11T09:48:41Z</time>
      </trkpt>
      <trkpt lat="48.97232" lon="2.01229">
        <ele>41.1</ele>
        <time>2022-10-11T09:48:46Z</time>
      </trkpt>
      <trkpt lat="48.9723" lon="2.01236">
        <ele>41.9</ele>
        <time>2022-10-11T09:49:00Z</time>
      </trkpt>
      <trkpt lat="48.97227" lon="2.01242">
        <ele>41.5</ele>
        <time>2022-10-11T09:49:09Z</time>
      </trkpt>
      <trkpt lat="48.97223" lon="2.01246">
        <ele>41</ele>
        <time>2022-10-11T09:49:14Z</time>
      </trkpt>
      <trkpt lat="48.97219" lon="2.01253">
        <ele>40.7</ele>
        <time>2022-10-11T09:49:18Z</time>
      </trkpt>
      <trkpt lat="48.97216" lon="2.01258">
        <ele>40.7</ele>
        <time>2022-10-11T09:49:21Z</time>
      </trkpt>
      <trkpt lat="48.97212" lon="2.01263">
        <ele>40.8</ele>
        <time>2022-10-11T09:49:24Z</time>
      </trkpt>
      <trkpt lat="48.97208" lon="2.01268">
        <ele>41</ele>
        <time>2022-10-11T09:49:27Z</time>
      </trkpt>
      <trkpt lat="48.97203" lon="2.01273">
        <ele>41.2</ele>
        <time>2022-10-11T09:49:31Z</time>
      </trkpt>
      <trkpt lat="48.972" lon="2.01278">
        <ele>41.7</ele>
        <time>2022-10-11T09:49:35Z</time>
      </trkpt>
      <trkpt lat="48.97196" lon="2.01285">
        <ele>42.2</ele>
        <time>2022-10-11T09:49:40Z</time>
      </trkpt>
      <trkpt lat="48.97193" lon="2.0129">
        <ele>42.5</ele>
        <time>2022-10-11T09:49:44Z</time>
      </trkpt>
      <trkpt lat="48.97189" lon="2.01294">
        <ele>42.6</ele>
        <time>2022-10-11T09:49:48Z</time>
      </trkpt>
      <trkpt lat="48.97186" lon="2.01299">
        <ele>42.5</ele>
        <time>2022-10-11T09:49:51Z</time>
      </trkpt>
      <trkpt lat="48.97181" lon="2.01306">
        <ele>41.9</ele>
        <time>2022-10-11T09:49:56Z</time>
      </trkpt>
      <trkpt lat="48.97178" lon="2.01312">
        <ele>41.3</ele>
        <time>2022-10-11T09:50:01Z</time>
      </trkpt>
      <trkpt lat="48.97174" lon="2.01318">
        <ele>40.9</ele>
        <time>2022-10-11T09:50:06Z</time>
      </trkpt>
      <trkpt lat="48.9717" lon="2.01323">
        <ele>40.8</ele>
        <time>2022-10-11T09:50:11Z</time>
      </trkpt>
      <trkpt lat="48.97165" lon="2.01329">
        <ele>40.7</ele>
        <time>2022-10-11T09:50:16Z</time>
      </trkpt>
      <trkpt lat="48.97162" lon="2.01333">
        <ele>40.8</ele>
        <time>2022-10-11T09:50:19Z</time>
      </trkpt>
      <trkpt lat="48.97158" lon="2.0134">
        <ele>40.9</ele>
        <time>2022-10-11T09:50:23Z</time>
      </trkpt>
      <trkpt lat="48.97154" lon="2.01345">
        <ele>40.9</ele>
        <time>2022-10-11T09:50:27Z</time>
      </trkpt>
      <trkpt lat="48.9715" lon="2.01351">
        <ele>40.9</ele>
        <time>2022-10-11T09:50:31Z</time>
      </trkpt>
      <trkpt lat="48.97146" lon="2.01356">
        <ele>41</ele>
        <time>2022-10-11T09:50:36Z</time>
      </trkpt>
      <trkpt lat="48.97142" lon="2.01361">
        <ele>41.7</ele>
        <time>2022-10-11T09:50:39Z</time>
      </trkpt>
      <trkpt lat="48.97139" lon="2.01365">
        <ele>42.5</ele>
        <time>2022-10-11T09:50:42Z</time>
      </trkpt>
      <trkpt lat="48.97134" lon="2.01371">
        <ele>42.6</ele>
        <time>2022-10-11T09:50:47Z</time>
      </trkpt>
      <trkpt lat="48.9713" lon="2.01378">
        <ele>42.5</ele>
        <time>2022-10-11T09:50:52Z</time>
      </trkpt>
      <trkpt lat="48.97125" lon="2.01385">
        <ele>42.3</ele>
        <time>2022-10-11T09:50:56Z</time>
      </trkpt>
      <trkpt lat="48.97121" lon="2.01392">
        <ele>42</ele>
        <time>2022-10-11T09:51:02Z</time>
      </trkpt>
      <trkpt lat="48.97117" lon="2.01397">
        <ele>41.8</ele>
        <time>2022-10-11T09:51:06Z</time>
      </trkpt>
      <trkpt lat="48.97114" lon="2.01403">
        <ele>41.3</ele>
        <time>2022-10-11T09:51:10Z</time>
      </trkpt>
      <trkpt lat="48.9711" lon="2.01409">
        <ele>40.6</ele>
        <time>2022-10-11T09:51:14Z</time>
      </trkpt>
      <trkpt lat="48.97107" lon="2.01414">
        <ele>40.5</ele>
        <time>2022-10-11T09:51:18Z</time>
      </trkpt>
      <trkpt lat="48.97102" lon="2.01422">
        <ele>40.6</ele>
        <time>2022-10-11T09:51:23Z</time>
      </trkpt>
      <trkpt lat="48.97099" lon="2.01429">
        <ele>40.8</ele>
        <time>2022-10-11T09:51:27Z</time>
      </trkpt>
      <trkpt lat="48.97096" lon="2.01437">
        <ele>40.8</ele>
        <time>2022-10-11T09:51:32Z</time>
      </trkpt>
      <trkpt lat="48.97093" lon="2.01443">
        <ele>40.3</ele>
        <time>2022-10-11T09:51:36Z</time>
      </trkpt>
      <trkpt lat="48.97091" lon="2.0145">
        <ele>39.9</ele>
        <time>2022-10-11T09:51:39Z</time>
      </trkpt>
      <trkpt lat="48.9709" lon="2.01457">
        <ele>39.7</ele>
        <time>2022-10-11T09:51:43Z</time>
      </trkpt>
      <trkpt lat="48.97087" lon="2.01466">
        <ele>39.4</ele>
        <time>2022-10-11T09:51:48Z</time>
      </trkpt>
      <trkpt lat="48.97085" lon="2.01474">
        <ele>39</ele>
        <time>2022-10-11T09:51:52Z</time>
      </trkpt>
      <trkpt lat="48.97084" lon="2.01481">
        <ele>38.3</ele>
        <time>2022-10-11T09:51:56Z</time>
      </trkpt>
      <trkpt lat="48.97084" lon="2.01489">
        <ele>37.8</ele>
        <time>2022-10-11T09:52:00Z</time>
      </trkpt>
      <trkpt lat="48.97087" lon="2.01495">
        <ele>37.3</ele>
        <time>2022-10-11T09:52:04Z</time>
      </trkpt>
      <trkpt lat="48.97092" lon="2.01498">
        <ele>36.2</ele>
        <time>2022-10-11T09:52:07Z</time>
      </trkpt>
      <trkpt lat="48.97098" lon="2.01502">
        <ele>35.6</ele>
        <time>2022-10-11T09:52:12Z</time>
      </trkpt>
      <trkpt lat="48.97103" lon="2.01507">
        <ele>35.5</ele>
        <time>2022-10-11T09:52:17Z</time>
      </trkpt>
      <trkpt lat="48.97107" lon="2.01512">
        <ele>35.6</ele>
        <time>2022-10-11T09:52:22Z</time>
      </trkpt>
      <trkpt lat="48.97112" lon="2.01518">
        <ele>35.7</ele>
        <time>2022-10-11T09:52:27Z</time>
      </trkpt>
      <trkpt lat="48.97117" lon="2.01524">
        <ele>36.1</ele>
        <time>2022-10-11T09:52:32Z</time>
      </trkpt>
      <trkpt lat="48.97122" lon="2.01531">
        <ele>36.9</ele>
        <time>2022-10-11T09:52:48Z</time>
      </trkpt>
      <trkpt lat="48.97125" lon="2.01536">
        <ele>36.7</ele>
        <time>2022-10-11T09:52:51Z</time>
      </trkpt>
      <trkpt lat="48.97129" lon="2.01541">
        <ele>36.3</ele>
        <time>2022-10-11T09:52:54Z</time>
      </trkpt>
      <trkpt lat="48.97133" lon="2.01546">
        <ele>36</ele>
        <time>2022-10-11T09:52:57Z</time>
      </trkpt>
      <trkpt lat="48.97138" lon="2.01552">
        <ele>35.5</ele>
        <time>2022-10-11T09:53:02Z</time>
      </trkpt>
      <trkpt lat="48.97142" lon="2.01556">
        <ele>35.7</ele>
        <time>2022-10-11T09:53:06Z</time>
      </trkpt>
      <trkpt lat="48.97146" lon="2.01561">
        <ele>36.5</ele>
        <time>2022-10-11T09:53:10Z</time>
      </trkpt>
      <trkpt lat="48.9715" lon="2.01565">
        <ele>36.8</ele>
        <time>2022-10-11T09:53:14Z</time>
      </trkpt>
      <trkpt lat="48.97154" lon="2.0157">
        <ele>37.1</ele>
        <time>2022-10-11T09:53:19Z</time>
      </trkpt>
      <trkpt lat="48.97159" lon="2.01573">
        <ele>38.4</ele>
        <time>2022-10-11T09:53:22Z</time>
      </trkpt>
      <trkpt lat="48.97164" lon="2.01576">
        <ele>38.8</ele>
        <time>2022-10-11T09:53:27Z</time>
      </trkpt>
      <trkpt lat="48.97169" lon="2.0158">
        <ele>38.9</ele>
        <time>2022-10-11T09:53:32Z</time>
      </trkpt>
      <trkpt lat="48.97174" lon="2.01584">
        <ele>39</ele>
        <time>2022-10-11T09:53:37Z</time>
      </trkpt>
      <trkpt lat="48.97175" lon="2.01593">
        <ele>39.6</ele>
        <time>2022-10-11T09:53:42Z</time>
      </trkpt>
      <trkpt lat="48.97175" lon="2.01603">
        <ele>40.5</ele>
        <time>2022-10-11T09:53:47Z</time>
      </trkpt>
      <trkpt lat="48.97176" lon="2.01611">
        <ele>42.1</ele>
        <time>2022-10-11T09:53:53Z</time>
      </trkpt>
      <trkpt lat="48.97174" lon="2.01617">
        <ele>42.7</ele>
        <time>2022-10-11T09:53:57Z</time>
      </trkpt>
      <trkpt lat="48.97171" lon="2.01624">
        <ele>42.5</ele>
        <time>2022-10-11T09:54:02Z</time>
      </trkpt>
      <trkpt lat="48.97167" lon="2.01632">
        <ele>41.2</ele>
        <time>2022-10-11T09:54:08Z</time>
      </trkpt>
      <trkpt lat="48.97164" lon="2.01638">
        <ele>41.2</ele>
        <time>2022-10-11T09:54:12Z</time>
      </trkpt>
      <trkpt lat="48.9716" lon="2.01644">
        <ele>41.5</ele>
        <time>2022-10-11T09:54:18Z</time>
      </trkpt>
      <trkpt lat="48.97155" lon="2.01647">
        <ele>42</ele>
        <time>2022-10-11T09:54:22Z</time>
      </trkpt>
      <trkpt lat="48.97149" lon="2.01646">
        <ele>42.2</ele>
        <time>2022-10-11T09:54:27Z</time>
      </trkpt>
      <trkpt lat="48.97144" lon="2.01647">
        <ele>42.1</ele>
        <time>2022-10-11T09:54:31Z</time>
      </trkpt>
      <trkpt lat="48.9714" lon="2.01651">
        <ele>42.2</ele>
        <time>2022-10-11T09:54:35Z</time>
      </trkpt>
      <trkpt lat="48.97135" lon="2.01649">
        <ele>42.3</ele>
        <time>2022-10-11T09:54:48Z</time>
      </trkpt>
      <trkpt lat="48.9713" lon="2.01648">
        <ele>41</ele>
        <time>2022-10-11T09:54:52Z</time>
      </trkpt>
      <trkpt lat="48.97125" lon="2.0165">
        <ele>40.6</ele>
        <time>2022-10-11T09:54:55Z</time>
      </trkpt>
      <trkpt lat="48.97121" lon="2.01653">
        <ele>40.6</ele>
        <time>2022-10-11T09:54:58Z</time>
      </trkpt>
      <trkpt lat="48.97118" lon="2.01658">
        <ele>41</ele>
        <time>2022-10-11T09:55:01Z</time>
      </trkpt>
      <trkpt lat="48.97116" lon="2.01666">
        <ele>41.8</ele>
        <time>2022-10-11T09:55:05Z</time>
      </trkpt>
      <trkpt lat="48.97116" lon="2.01674">
        <ele>44.1</ele>
        <time>2022-10-11T09:55:08Z</time>
      </trkpt>
      <trkpt lat="48.97117" lon="2.01682">
        <ele>44.1</ele>
        <time>2022-10-11T09:55:12Z</time>
      </trkpt>
      <trkpt lat="48.97117" lon="2.01691">
        <ele>43.8</ele>
        <time>2022-10-11T09:55:16Z</time>
      </trkpt>
      <trkpt lat="48.97117" lon="2.017">
        <ele>42.6</ele>
        <time>2022-10-11T09:55:21Z</time>
      </trkpt>
      <trkpt lat="48.97118" lon="2.01708">
        <ele>41.7</ele>
        <time>2022-10-11T09:55:25Z</time>
      </trkpt>
      <trkpt lat="48.97118" lon="2.01716">
        <ele>40.2</ele>
        <time>2022-10-11T09:55:30Z</time>
      </trkpt>
      <trkpt lat="48.97118" lon="2.01725">
        <ele>39.2</ele>
        <time>2022-10-11T09:55:35Z</time>
      </trkpt>
      <trkpt lat="48.97118" lon="2.01732">
        <ele>39</ele>
        <time>2022-10-11T09:55:39Z</time>
      </trkpt>
      <trkpt lat="48.97117" lon="2.01741">
        <ele>39.3</ele>
        <time>2022-10-11T09:55:43Z</time>
      </trkpt>
      <trkpt lat="48.97115" lon="2.01748">
        <ele>40.4</ele>
        <time>2022-10-11T09:55:47Z</time>
      </trkpt>
      <trkpt lat="48.97114" lon="2.01756">
        <ele>41.5</ele>
        <time>2022-10-11T09:55:51Z</time>
      </trkpt>
      <trkpt lat="48.97112" lon="2.01762">
        <ele>41.6</ele>
        <time>2022-10-11T09:55:54Z</time>
      </trkpt>
      <trkpt lat="48.97109" lon="2.01768">
        <ele>41.7</ele>
        <time>2022-10-11T09:55:58Z</time>
      </trkpt>
      <trkpt lat="48.97106" lon="2.01774">
        <ele>41.8</ele>
        <time>2022-10-11T09:56:02Z</time>
      </trkpt>
      <trkpt lat="48.97102" lon="2.01781">
        <ele>42</ele>
        <time>2022-10-11T09:56:06Z</time>
      </trkpt>
      <trkpt lat="48.97099" lon="2.01789">
        <ele>43.3</ele>
        <time>2022-10-11T09:56:10Z</time>
      </trkpt>
      <trkpt lat="48.97097" lon="2.01795">
        <ele>45.1</ele>
        <time>2022-10-11T09:56:14Z</time>
      </trkpt>
      <trkpt lat="48.97094" lon="2.01802">
        <ele>45.3</ele>
        <time>2022-10-11T09:56:17Z</time>
      </trkpt>
      <trkpt lat="48.97091" lon="2.0181">
        <ele>44.4</ele>
        <time>2022-10-11T09:56:23Z</time>
      </trkpt>
      <trkpt lat="48.97088" lon="2.01818">
        <ele>43.6</ele>
        <time>2022-10-11T09:56:28Z</time>
      </trkpt>
      <trkpt lat="48.97084" lon="2.01827">
        <ele>43.2</ele>
        <time>2022-10-11T09:56:33Z</time>
      </trkpt>
      <trkpt lat="48.97082" lon="2.01833">
        <ele>43</ele>
        <time>2022-10-11T09:56:37Z</time>
      </trkpt>
      <trkpt lat="48.97079" lon="2.0184">
        <ele>42.9</ele>
        <time>2022-10-11T09:56:41Z</time>
      </trkpt>
      <trkpt lat="48.97076" lon="2.01847">
        <ele>42.7</ele>
        <time>2022-10-11T09:56:46Z</time>
      </trkpt>
      <trkpt lat="48.97074" lon="2.01855">
        <ele>42.7</ele>
        <time>2022-10-11T09:56:50Z</time>
      </trkpt>
      <trkpt lat="48.97072" lon="2.01864">
        <ele>42.6</ele>
        <time>2022-10-11T09:56:54Z</time>
      </trkpt>
      <trkpt lat="48.9707" lon="2.01871">
        <ele>42.1</ele>
        <time>2022-10-11T09:56:58Z</time>
      </trkpt>
      <trkpt lat="48.97069" lon="2.01881">
        <ele>42.2</ele>
        <time>2022-10-11T09:57:03Z</time>
      </trkpt>
      <trkpt lat="48.97068" lon="2.01888">
        <ele>42.7</ele>
        <time>2022-10-11T09:57:07Z</time>
      </trkpt>
      <trkpt lat="48.97068" lon="2.01896">
        <ele>42.7</ele>
        <time>2022-10-11T09:57:11Z</time>
      </trkpt>
      <trkpt lat="48.97068" lon="2.01904">
        <ele>42.3</ele>
        <time>2022-10-11T09:57:15Z</time>
      </trkpt>
      <trkpt lat="48.97066" lon="2.01912">
        <ele>42</ele>
        <time>2022-10-11T09:57:19Z</time>
      </trkpt>
      <trkpt lat="48.97064" lon="2.01919">
        <ele>42.1</ele>
        <time>2022-10-11T09:57:23Z</time>
      </trkpt>
      <trkpt lat="48.97063" lon="2.01927">
        <ele>42.1</ele>
        <time>2022-10-11T09:57:27Z</time>
      </trkpt>
      <trkpt lat="48.97061" lon="2.01935">
        <ele>42.1</ele>
        <time>2022-10-11T09:57:31Z</time>
      </trkpt>
      <trkpt lat="48.97059" lon="2.01941">
        <ele>41.6</ele>
        <time>2022-10-11T09:57:34Z</time>
      </trkpt>
      <trkpt lat="48.97058" lon="2.01949">
        <ele>41.6</ele>
        <time>2022-10-11T09:57:38Z</time>
      </trkpt>
      <trkpt lat="48.97056" lon="2.01958">
        <ele>41.7</ele>
        <time>2022-10-11T09:57:43Z</time>
      </trkpt>
      <trkpt lat="48.97054" lon="2.01965">
        <ele>41.8</ele>
        <time>2022-10-11T09:57:47Z</time>
      </trkpt>
      <trkpt lat="48.97053" lon="2.01973">
        <ele>42.3</ele>
        <time>2022-10-11T09:57:51Z</time>
      </trkpt>
      <trkpt lat="48.97052" lon="2.0198">
        <ele>42.5</ele>
        <time>2022-10-11T09:57:55Z</time>
      </trkpt>
      <trkpt lat="48.97051" lon="2.01987">
        <ele>42.8</ele>
        <time>2022-10-11T09:57:58Z</time>
      </trkpt>
      <trkpt lat="48.97051" lon="2.01998">
        <ele>42.2</ele>
        <time>2022-10-11T09:58:03Z</time>
      </trkpt>
      <trkpt lat="48.97051" lon="2.02008">
        <ele>41.4</ele>
        <time>2022-10-11T09:58:08Z</time>
      </trkpt>
      <trkpt lat="48.97051" lon="2.02018">
        <ele>40.9</ele>
        <time>2022-10-11T09:58:13Z</time>
      </trkpt>
      <trkpt lat="48.97051" lon="2.02028">
        <ele>40.7</ele>
        <time>2022-10-11T09:58:18Z</time>
      </trkpt>
      <trkpt lat="48.9705" lon="2.02039">
        <ele>39.5</ele>
        <time>2022-10-11T09:58:23Z</time>
      </trkpt>
      <trkpt lat="48.97049" lon="2.02049">
        <ele>39.6</ele>
        <time>2022-10-11T09:58:28Z</time>
      </trkpt>
      <trkpt lat="48.97049" lon="2.02058">
        <ele>40.1</ele>
        <time>2022-10-11T09:58:33Z</time>
      </trkpt>
      <trkpt lat="48.9705" lon="2.02068">
        <ele>39.8</ele>
        <time>2022-10-11T09:58:38Z</time>
      </trkpt>
      <trkpt lat="48.97051" lon="2.02077">
        <ele>38.9</ele>
        <time>2022-10-11T09:58:43Z</time>
      </trkpt>
      <trkpt lat="48.9705" lon="2.02087">
        <ele>38.9</ele>
        <time>2022-10-11T09:58:48Z</time>
      </trkpt>
      <trkpt lat="48.97049" lon="2.02093">
        <ele>40.3</ele>
        <time>2022-10-11T09:58:51Z</time>
      </trkpt>
      <trkpt lat="48.97047" lon="2.02102">
        <ele>41.5</ele>
        <time>2022-10-11T09:58:55Z</time>
      </trkpt>
      <trkpt lat="48.97046" lon="2.0211">
        <ele>41.6</ele>
        <time>2022-10-11T09:58:58Z</time>
      </trkpt>
      <trkpt lat="48.97045" lon="2.0212">
        <ele>41.6</ele>
        <time>2022-10-11T09:59:03Z</time>
      </trkpt>
      <trkpt lat="48.97044" lon="2.02131">
        <ele>41.1</ele>
        <time>2022-10-11T09:59:08Z</time>
      </trkpt>
      <trkpt lat="48.97043" lon="2.0214">
        <ele>40</ele>
        <time>2022-10-11T09:59:13Z</time>
      </trkpt>
      <trkpt lat="48.97043" lon="2.0215">
        <ele>38.8</ele>
        <time>2022-10-11T09:59:18Z</time>
      </trkpt>
      <trkpt lat="48.97042" lon="2.0216">
        <ele>39.2</ele>
        <time>2022-10-11T09:59:23Z</time>
      </trkpt>
      <trkpt lat="48.9704" lon="2.02167">
        <ele>39.9</ele>
        <time>2022-10-11T09:59:27Z</time>
      </trkpt>
      <trkpt lat="48.97039" lon="2.02175">
        <ele>39.8</ele>
        <time>2022-10-11T09:59:31Z</time>
      </trkpt>
      <trkpt lat="48.9704" lon="2.02183">
        <ele>40</ele>
        <time>2022-10-11T09:59:35Z</time>
      </trkpt>
      <trkpt lat="48.97039" lon="2.02191">
        <ele>40.3</ele>
        <time>2022-10-11T09:59:38Z</time>
      </trkpt>
      <trkpt lat="48.97037" lon="2.022">
        <ele>41</ele>
        <time>2022-10-11T09:59:43Z</time>
      </trkpt>
      <trkpt lat="48.97036" lon="2.02207">
        <ele>41.3</ele>
        <time>2022-10-11T09:59:47Z</time>
      </trkpt>
      <trkpt lat="48.97035" lon="2.02215">
        <ele>41.3</ele>
        <time>2022-10-11T09:59:52Z</time>
      </trkpt>
      <trkpt lat="48.97035" lon="2.02223">
        <ele>40.2</ele>
        <time>2022-10-11T09:59:56Z</time>
      </trkpt>
      <trkpt lat="48.97034" lon="2.0223">
        <ele>39.2</ele>
        <time>2022-10-11T10:00:00Z</time>
      </trkpt>
      <trkpt lat="48.97034" lon="2.02238">
        <ele>39.2</ele>
        <time>2022-10-11T10:00:04Z</time>
      </trkpt>
      <trkpt lat="48.97034" lon="2.02246">
        <ele>39</ele>
        <time>2022-10-11T10:00:08Z</time>
      </trkpt>
      <trkpt lat="48.97034" lon="2.02254">
        <ele>38.8</ele>
        <time>2022-10-11T10:00:13Z</time>
      </trkpt>
      <trkpt lat="48.97033" lon="2.02261">
        <ele>39</ele>
        <time>2022-10-11T10:00:16Z</time>
      </trkpt>
      <trkpt lat="48.97033" lon="2.02269">
        <ele>39.6</ele>
        <time>2022-10-11T10:00:20Z</time>
      </trkpt>
      <trkpt lat="48.97033" lon="2.02277">
        <ele>39.4</ele>
        <time>2022-10-11T10:00:25Z</time>
      </trkpt>
      <trkpt lat="48.97034" lon="2.02284">
        <ele>37.7</ele>
        <time>2022-10-11T10:00:28Z</time>
      </trkpt>
      <trkpt lat="48.97035" lon="2.02294">
        <ele>36.7</ele>
        <time>2022-10-11T10:00:33Z</time>
      </trkpt>
      <trkpt lat="48.97034" lon="2.02304">
        <ele>36.7</ele>
        <time>2022-10-11T10:00:38Z</time>
      </trkpt>
      <trkpt lat="48.97034" lon="2.02313">
        <ele>37.1</ele>
        <time>2022-10-11T10:00:43Z</time>
      </trkpt>
      <trkpt lat="48.97034" lon="2.02322">
        <ele>37.4</ele>
        <time>2022-10-11T10:00:48Z</time>
      </trkpt>
      <trkpt lat="48.97035" lon="2.02331">
        <ele>37.7</ele>
        <time>2022-10-11T10:00:53Z</time>
      </trkpt>
      <trkpt lat="48.97036" lon="2.02341">
        <ele>38</ele>
        <time>2022-10-11T10:00:58Z</time>
      </trkpt>
      <trkpt lat="48.97036" lon="2.02351">
        <ele>37.9</ele>
        <time>2022-10-11T10:01:03Z</time>
      </trkpt>
      <trkpt lat="48.97036" lon="2.02358">
        <ele>37.2</ele>
        <time>2022-10-11T10:01:07Z</time>
      </trkpt>
      <trkpt lat="48.97035" lon="2.02365">
        <ele>36.3</ele>
        <time>2022-10-11T10:01:11Z</time>
      </trkpt>
      <trkpt lat="48.97036" lon="2.02372">
        <ele>35.4</ele>
        <time>2022-10-11T10:01:15Z</time>
      </trkpt>
      <trkpt lat="48.97035" lon="2.02381">
        <ele>34.9</ele>
        <time>2022-10-11T10:01:19Z</time>
      </trkpt>
      <trkpt lat="48.97034" lon="2.02389">
        <ele>35.3</ele>
        <time>2022-10-11T10:01:23Z</time>
      </trkpt>
      <trkpt lat="48.97034" lon="2.02396">
        <ele>35.2</ele>
        <time>2022-10-11T10:01:27Z</time>
      </trkpt>
      <trkpt lat="48.97034" lon="2.02404">
        <ele>34.7</ele>
        <time>2022-10-11T10:01:32Z</time>
      </trkpt>
      <trkpt lat="48.97034" lon="2.02412">
        <ele>34.4</ele>
        <time>2022-10-11T10:01:37Z</time>
      </trkpt>
      <trkpt lat="48.97033" lon="2.02419">
        <ele>35.4</ele>
        <time>2022-10-11T10:01:42Z</time>
      </trkpt>
      <trkpt lat="48.9703" lon="2.02412">
        <ele>37.3</ele>
        <time>2022-10-11T10:01:49Z</time>
      </trkpt>
      <trkpt lat="48.97027" lon="2.02408">
        <ele>37.9</ele>
        <time>2022-10-11T10:01:59Z</time>
      </trkpt>
      <trkpt lat="48.97029" lon="2.02415">
        <ele>35.8</ele>
        <time>2022-10-11T10:02:20Z</time>
      </trkpt>
      <trkpt lat="48.97033" lon="2.02419">
        <ele>35.6</ele>
        <time>2022-10-11T10:02:28Z</time>
      </trkpt>
      <trkpt lat="48.97036" lon="2.02414">
        <ele>38.2</ele>
        <time>2022-10-11T10:02:35Z</time>
      </trkpt>
      <trkpt lat="48.97041" lon="2.02412">
        <ele>39.4</ele>
        <time>2022-10-11T10:02:40Z</time>
      </trkpt>
      <trkpt lat="48.97044" lon="2.02405">
        <ele>40.3</ele>
        <time>2022-10-11T10:02:45Z</time>
      </trkpt>
      <trkpt lat="48.97044" lon="2.02397">
        <ele>40.3</ele>
        <time>2022-10-11T10:02:50Z</time>
      </trkpt>
      <trkpt lat="48.97043" lon="2.0239">
        <ele>39.9</ele>
        <time>2022-10-11T10:02:55Z</time>
      </trkpt>
      <trkpt lat="48.97041" lon="2.02399">
        <ele>39.1</ele>
        <time>2022-10-11T10:03:10Z</time>
      </trkpt>
      <trkpt lat="48.97041" lon="2.02408">
        <ele>38.1</ele>
        <time>2022-10-11T10:03:15Z</time>
      </trkpt>
      <trkpt lat="48.9704" lon="2.02419">
        <ele>37.6</ele>
        <time>2022-10-11T10:03:19Z</time>
      </trkpt>
      <trkpt lat="48.97041" lon="2.02429">
        <ele>37.3</ele>
        <time>2022-10-11T10:03:24Z</time>
      </trkpt>
      <trkpt lat="48.97041" lon="2.02437">
        <ele>37</ele>
        <time>2022-10-11T10:03:29Z</time>
      </trkpt>
      <trkpt lat="48.9704" lon="2.02445">
        <ele>36.7</ele>
        <time>2022-10-11T10:03:35Z</time>
      </trkpt>
      <trkpt lat="48.97039" lon="2.02453">
        <ele>36.4</ele>
        <time>2022-10-11T10:03:40Z</time>
      </trkpt>
      <trkpt lat="48.97037" lon="2.02459">
        <ele>36.4</ele>
        <time>2022-10-11T10:03:45Z</time>
      </trkpt>
      <trkpt lat="48.97035" lon="2.02467">
        <ele>37.9</ele>
        <time>2022-10-11T10:03:51Z</time>
      </trkpt>
      <trkpt lat="48.97036" lon="2.02473">
        <ele>37.8</ele>
        <time>2022-10-11T10:03:55Z</time>
      </trkpt>
      <trkpt lat="48.97037" lon="2.02482">
        <ele>37.5</ele>
        <time>2022-10-11T10:03:59Z</time>
      </trkpt>
      <trkpt lat="48.9704" lon="2.02487">
        <ele>36.9</ele>
        <time>2022-10-11T10:04:05Z</time>
      </trkpt>
      <trkpt lat="48.9704" lon="2.02494">
        <ele>37.4</ele>
        <time>2022-10-11T10:04:09Z</time>
      </trkpt>
      <trkpt lat="48.97039" lon="2.02503">
        <ele>37.2</ele>
        <time>2022-10-11T10:04:14Z</time>
      </trkpt>
      <trkpt lat="48.97039" lon="2.02512">
        <ele>36.9</ele>
        <time>2022-10-11T10:04:19Z</time>
      </trkpt>
      <trkpt lat="48.97037" lon="2.02519">
        <ele>37.1</ele>
        <time>2022-10-11T10:04:24Z</time>
      </trkpt>
      <trkpt lat="48.97035" lon="2.02528">
        <ele>37.6</ele>
        <time>2022-10-11T10:04:29Z</time>
      </trkpt>
      <trkpt lat="48.97033" lon="2.02535">
        <ele>38.1</ele>
        <time>2022-10-11T10:04:33Z</time>
      </trkpt>
      <trkpt lat="48.97033" lon="2.02542">
        <ele>38.5</ele>
        <time>2022-10-11T10:04:37Z</time>
      </trkpt>
      <trkpt lat="48.97032" lon="2.0255">
        <ele>38.7</ele>
        <time>2022-10-11T10:04:41Z</time>
      </trkpt>
      <trkpt lat="48.97031" lon="2.02558">
        <ele>38.6</ele>
        <time>2022-10-11T10:04:46Z</time>
      </trkpt>
      <trkpt lat="48.9703" lon="2.02567">
        <ele>38.6</ele>
        <time>2022-10-11T10:04:51Z</time>
      </trkpt>
      <trkpt lat="48.97029" lon="2.02574">
        <ele>38.7</ele>
        <time>2022-10-11T10:04:54Z</time>
      </trkpt>
      <trkpt lat="48.97027" lon="2.02584">
        <ele>39.1</ele>
        <time>2022-10-11T10:04:59Z</time>
      </trkpt>
      <trkpt lat="48.97025" lon="2.02594">
        <ele>39.4</ele>
        <time>2022-10-11T10:05:04Z</time>
      </trkpt>
      <trkpt lat="48.97024" lon="2.02602">
        <ele>39.1</ele>
        <time>2022-10-11T10:05:09Z</time>
      </trkpt>
      <trkpt lat="48.97023" lon="2.02609">
        <ele>38.7</ele>
        <time>2022-10-11T10:05:13Z</time>
      </trkpt>
      <trkpt lat="48.97023" lon="2.02616">
        <ele>38.6</ele>
        <time>2022-10-11T10:05:17Z</time>
      </trkpt>
      <trkpt lat="48.97023" lon="2.02623">
        <ele>38.7</ele>
        <time>2022-10-11T10:05:20Z</time>
      </trkpt>
      <trkpt lat="48.97022" lon="2.02631">
        <ele>38.9</ele>
        <time>2022-10-11T10:05:23Z</time>
      </trkpt>
      <trkpt lat="48.97022" lon="2.02638">
        <ele>39.3</ele>
        <time>2022-10-11T10:05:28Z</time>
      </trkpt>
      <trkpt lat="48.97022" lon="2.02646">
        <ele>39.6</ele>
        <time>2022-10-11T10:05:32Z</time>
      </trkpt>
      <trkpt lat="48.97022" lon="2.02653">
        <ele>39.7</ele>
        <time>2022-10-11T10:05:36Z</time>
      </trkpt>
      <trkpt lat="48.97023" lon="2.0266">
        <ele>39.7</ele>
        <time>2022-10-11T10:05:39Z</time>
      </trkpt>
      <trkpt lat="48.97022" lon="2.0267">
        <ele>39.5</ele>
        <time>2022-10-11T10:05:44Z</time>
      </trkpt>
      <trkpt lat="48.97022" lon="2.02679">
        <ele>39.3</ele>
        <time>2022-10-11T10:05:49Z</time>
      </trkpt>
      <trkpt lat="48.97022" lon="2.02688">
        <ele>39.3</ele>
        <time>2022-10-11T10:05:54Z</time>
      </trkpt>
      <trkpt lat="48.97022" lon="2.02695">
        <ele>39.7</ele>
        <time>2022-10-11T10:05:58Z</time>
      </trkpt>
      <trkpt lat="48.97021" lon="2.02702">
        <ele>40.3</ele>
        <time>2022-10-11T10:06:02Z</time>
      </trkpt>
      <trkpt lat="48.9702" lon="2.0271">
        <ele>41.7</ele>
        <time>2022-10-11T10:06:06Z</time>
      </trkpt>
      <trkpt lat="48.9702" lon="2.02718">
        <ele>42</ele>
        <time>2022-10-11T10:06:09Z</time>
      </trkpt>
      <trkpt lat="48.97019" lon="2.02727">
        <ele>41.8</ele>
        <time>2022-10-11T10:06:14Z</time>
      </trkpt>
      <trkpt lat="48.97019" lon="2.02734">
        <ele>41.1</ele>
        <time>2022-10-11T10:06:19Z</time>
      </trkpt>
      <trkpt lat="48.97017" lon="2.02743">
        <ele>40.6</ele>
        <time>2022-10-11T10:06:24Z</time>
      </trkpt>
      <trkpt lat="48.97016" lon="2.02752">
        <ele>40.5</ele>
        <time>2022-10-11T10:06:29Z</time>
      </trkpt>
      <trkpt lat="48.97016" lon="2.02762">
        <ele>40.7</ele>
        <time>2022-10-11T10:06:34Z</time>
      </trkpt>
      <trkpt lat="48.97016" lon="2.0277">
        <ele>40.6</ele>
        <time>2022-10-11T10:06:39Z</time>
      </trkpt>
      <trkpt lat="48.97017" lon="2.02779">
        <ele>40.5</ele>
        <time>2022-10-11T10:06:44Z</time>
      </trkpt>
      <trkpt lat="48.97021" lon="2.02782">
        <ele>42.7</ele>
        <time>2022-10-11T10:07:18Z</time>
      </trkpt>
      <trkpt lat="48.97019" lon="2.0279">
        <ele>42.1</ele>
        <time>2022-10-11T10:07:25Z</time>
      </trkpt>
      <trkpt lat="48.97017" lon="2.02797">
        <ele>40.9</ele>
        <time>2022-10-11T10:07:29Z</time>
      </trkpt>
      <trkpt lat="48.97018" lon="2.0279">
        <ele>38</ele>
        <time>2022-10-11T10:08:03Z</time>
      </trkpt>
      <trkpt lat="48.97017" lon="2.02799">
        <ele>38.8</ele>
        <time>2022-10-11T10:08:39Z</time>
      </trkpt>
      <trkpt lat="48.97015" lon="2.0281">
        <ele>38.7</ele>
        <time>2022-10-11T10:08:42Z</time>
      </trkpt>
      <trkpt lat="48.97014" lon="2.02816">
        <ele>39</ele>
        <time>2022-10-11T10:08:44Z</time>
      </trkpt>
      <trkpt lat="48.97012" lon="2.02824">
        <ele>39.5</ele>
        <time>2022-10-11T10:08:48Z</time>
      </trkpt>
      <trkpt lat="48.97012" lon="2.02831">
        <ele>39.7</ele>
        <time>2022-10-11T10:08:51Z</time>
      </trkpt>
      <trkpt lat="48.97011" lon="2.02839">
        <ele>39.7</ele>
        <time>2022-10-11T10:08:55Z</time>
      </trkpt>
      <trkpt lat="48.97011" lon="2.02847">
        <ele>39.5</ele>
        <time>2022-10-11T10:08:59Z</time>
      </trkpt>
      <trkpt lat="48.97011" lon="2.02857">
        <ele>39.4</ele>
        <time>2022-10-11T10:09:04Z</time>
      </trkpt>
      <trkpt lat="48.9701" lon="2.02865">
        <ele>38.8</ele>
        <time>2022-10-11T10:09:09Z</time>
      </trkpt>
      <trkpt lat="48.97009" lon="2.02873">
        <ele>37.2</ele>
        <time>2022-10-11T10:09:13Z</time>
      </trkpt>
      <trkpt lat="48.97007" lon="2.0288">
        <ele>36.7</ele>
        <time>2022-10-11T10:09:17Z</time>
      </trkpt>
      <trkpt lat="48.97006" lon="2.02887">
        <ele>36.5</ele>
        <time>2022-10-11T10:09:21Z</time>
      </trkpt>
      <trkpt lat="48.97008" lon="2.02894">
        <ele>36.6</ele>
        <time>2022-10-11T10:09:26Z</time>
      </trkpt>
      <trkpt lat="48.97007" lon="2.02902">
        <ele>36.9</ele>
        <time>2022-10-11T10:09:31Z</time>
      </trkpt>
      <trkpt lat="48.97005" lon="2.02911">
        <ele>36.9</ele>
        <time>2022-10-11T10:09:35Z</time>
      </trkpt>
      <trkpt lat="48.97004" lon="2.02921">
        <ele>37.4</ele>
        <time>2022-10-11T10:09:40Z</time>
      </trkpt>
      <trkpt lat="48.97002" lon="2.02928">
        <ele>39.2</ele>
        <time>2022-10-11T10:09:44Z</time>
      </trkpt>
      <trkpt lat="48.97001" lon="2.02936">
        <ele>39.2</ele>
        <time>2022-10-11T10:09:48Z</time>
      </trkpt>
      <trkpt lat="48.96999" lon="2.02944">
        <ele>38.5</ele>
        <time>2022-10-11T10:09:53Z</time>
      </trkpt>
      <trkpt lat="48.96998" lon="2.02953">
        <ele>38.5</ele>
        <time>2022-10-11T10:09:57Z</time>
      </trkpt>
      <trkpt lat="48.96997" lon="2.0296">
        <ele>38.8</ele>
        <time>2022-10-11T10:10:01Z</time>
      </trkpt>
      <trkpt lat="48.96997" lon="2.02969">
        <ele>39.2</ele>
        <time>2022-10-11T10:10:05Z</time>
      </trkpt>
      <trkpt lat="48.96998" lon="2.02979">
        <ele>40</ele>
        <time>2022-10-11T10:10:10Z</time>
      </trkpt>
      <trkpt lat="48.96998" lon="2.02987">
        <ele>40.8</ele>
        <time>2022-10-11T10:10:14Z</time>
      </trkpt>
      <trkpt lat="48.96997" lon="2.02994">
        <ele>40.7</ele>
        <time>2022-10-11T10:10:17Z</time>
      </trkpt>
      <trkpt lat="48.96997" lon="2.03001">
        <ele>40.6</ele>
        <time>2022-10-11T10:10:21Z</time>
      </trkpt>
      <trkpt lat="48.96996" lon="2.03011">
        <ele>40.3</ele>
        <time>2022-10-11T10:10:24Z</time>
      </trkpt>
      <trkpt lat="48.96995" lon="2.03018">
        <ele>40.2</ele>
        <time>2022-10-11T10:10:29Z</time>
      </trkpt>
      <trkpt lat="48.96994" lon="2.03027">
        <ele>40.1</ele>
        <time>2022-10-11T10:10:33Z</time>
      </trkpt>
      <trkpt lat="48.96994" lon="2.03035">
        <ele>40</ele>
        <time>2022-10-11T10:10:37Z</time>
      </trkpt>
      <trkpt lat="48.96994" lon="2.03042">
        <ele>39.9</ele>
        <time>2022-10-11T10:10:41Z</time>
      </trkpt>
      <trkpt lat="48.96993" lon="2.03052">
        <ele>40.1</ele>
        <time>2022-10-11T10:10:45Z</time>
      </trkpt>
      <trkpt lat="48.96994" lon="2.03062">
        <ele>39.1</ele>
        <time>2022-10-11T10:10:50Z</time>
      </trkpt>
      <trkpt lat="48.96994" lon="2.03069">
        <ele>38.7</ele>
        <time>2022-10-11T10:10:54Z</time>
      </trkpt>
      <trkpt lat="48.96994" lon="2.03077">
        <ele>38.7</ele>
        <time>2022-10-11T10:10:58Z</time>
      </trkpt>
      <trkpt lat="48.96994" lon="2.03085">
        <ele>39.1</ele>
        <time>2022-10-11T10:11:01Z</time>
      </trkpt>
      <trkpt lat="48.96992" lon="2.03094">
        <ele>39.7</ele>
        <time>2022-10-11T10:11:05Z</time>
      </trkpt>
      <trkpt lat="48.96991" lon="2.03104">
        <ele>39.9</ele>
        <time>2022-10-11T10:11:10Z</time>
      </trkpt>
      <trkpt lat="48.96991" lon="2.03112">
        <ele>40.4</ele>
        <time>2022-10-11T10:11:14Z</time>
      </trkpt>
      <trkpt lat="48.96991" lon="2.03119">
        <ele>41.6</ele>
        <time>2022-10-11T10:11:18Z</time>
      </trkpt>
      <trkpt lat="48.96992" lon="2.03127">
        <ele>43.1</ele>
        <time>2022-10-11T10:11:21Z</time>
      </trkpt>
      <trkpt lat="48.96991" lon="2.03136">
        <ele>43.5</ele>
        <time>2022-10-11T10:11:25Z</time>
      </trkpt>
      <trkpt lat="48.96991" lon="2.03146">
        <ele>43.9</ele>
        <time>2022-10-11T10:11:30Z</time>
      </trkpt>
      <trkpt lat="48.96989" lon="2.03153">
        <ele>44.1</ele>
        <time>2022-10-11T10:11:34Z</time>
      </trkpt>
      <trkpt lat="48.96988" lon="2.03161">
        <ele>44.4</ele>
        <time>2022-10-11T10:11:38Z</time>
      </trkpt>
      <trkpt lat="48.96987" lon="2.0317">
        <ele>44.2</ele>
        <time>2022-10-11T10:11:43Z</time>
      </trkpt>
      <trkpt lat="48.96987" lon="2.03178">
        <ele>44.2</ele>
        <time>2022-10-11T10:11:47Z</time>
      </trkpt>
      <trkpt lat="48.96986" lon="2.03186">
        <ele>44.2</ele>
        <time>2022-10-11T10:11:50Z</time>
      </trkpt>
      <trkpt lat="48.96985" lon="2.03195">
        <ele>45.3</ele>
        <time>2022-10-11T10:11:55Z</time>
      </trkpt>
      <trkpt lat="48.96983" lon="2.03204">
        <ele>45.5</ele>
        <time>2022-10-11T10:12:00Z</time>
      </trkpt>
      <trkpt lat="48.96982" lon="2.03214">
        <ele>45.9</ele>
        <time>2022-10-11T10:12:05Z</time>
      </trkpt>
      <trkpt lat="48.96985" lon="2.03221">
        <ele>45.8</ele>
        <time>2022-10-11T10:12:09Z</time>
      </trkpt>
      <trkpt lat="48.96988" lon="2.03227">
        <ele>45.7</ele>
        <time>2022-10-11T10:12:13Z</time>
      </trkpt>
      <trkpt lat="48.96992" lon="2.03232">
        <ele>45.3</ele>
        <time>2022-10-11T10:12:18Z</time>
      </trkpt>
      <trkpt lat="48.96998" lon="2.03232">
        <ele>44.9</ele>
        <time>2022-10-11T10:12:24Z</time>
      </trkpt>
      <trkpt lat="48.97003" lon="2.03228">
        <ele>43.8</ele>
        <time>2022-10-11T10:12:28Z</time>
      </trkpt>
      <trkpt lat="48.97008" lon="2.03225">
        <ele>43.6</ele>
        <time>2022-10-11T10:12:32Z</time>
      </trkpt>
      <trkpt lat="48.97013" lon="2.03223">
        <ele>43.4</ele>
        <time>2022-10-11T10:12:35Z</time>
      </trkpt>
      <trkpt lat="48.97017" lon="2.03215">
        <ele>41.6</ele>
        <time>2022-10-11T10:12:40Z</time>
      </trkpt>
      <trkpt lat="48.97019" lon="2.03208">
        <ele>40.8</ele>
        <time>2022-10-11T10:12:45Z</time>
      </trkpt>
      <trkpt lat="48.97024" lon="2.0321">
        <ele>42.1</ele>
        <time>2022-10-11T10:12:58Z</time>
      </trkpt>
      <trkpt lat="48.9703" lon="2.03211">
        <ele>43.5</ele>
        <time>2022-10-11T10:13:01Z</time>
      </trkpt>
      <trkpt lat="48.97034" lon="2.03212">
        <ele>45.3</ele>
        <time>2022-10-11T10:13:04Z</time>
      </trkpt>
      <trkpt lat="48.97041" lon="2.03214">
        <ele>45.8</ele>
        <time>2022-10-11T10:13:08Z</time>
      </trkpt>
      <trkpt lat="48.97042" lon="2.03221">
        <ele>45.6</ele>
        <time>2022-10-11T10:13:13Z</time>
      </trkpt>
      <trkpt lat="48.9704" lon="2.03229">
        <ele>43.6</ele>
        <time>2022-10-11T10:13:18Z</time>
      </trkpt>
      <trkpt lat="48.97041" lon="2.03236">
        <ele>42.3</ele>
        <time>2022-10-11T10:13:21Z</time>
      </trkpt>
      <trkpt lat="48.97044" lon="2.03241">
        <ele>40.8</ele>
        <time>2022-10-11T10:13:25Z</time>
      </trkpt>
      <trkpt lat="48.97048" lon="2.03237">
        <ele>39.4</ele>
        <time>2022-10-11T10:13:31Z</time>
      </trkpt>
      <trkpt lat="48.97053" lon="2.03234">
        <ele>36</ele>
        <time>2022-10-11T10:13:35Z</time>
      </trkpt>
      <trkpt lat="48.97056" lon="2.03228">
        <ele>37.5</ele>
        <time>2022-10-11T10:13:58Z</time>
      </trkpt>
      <trkpt lat="48.97061" lon="2.03229">
        <ele>37.8</ele>
        <time>2022-10-11T10:14:01Z</time>
      </trkpt>
      <trkpt lat="48.97068" lon="2.0323">
        <ele>38.8</ele>
        <time>2022-10-11T10:14:05Z</time>
      </trkpt>
      <trkpt lat="48.97072" lon="2.03231">
        <ele>39.4</ele>
        <time>2022-10-11T10:14:09Z</time>
      </trkpt>
      <trkpt lat="48.97078" lon="2.03232">
        <ele>40.4</ele>
        <time>2022-10-11T10:14:13Z</time>
      </trkpt>
      <trkpt lat="48.97083" lon="2.03232">
        <ele>40.8</ele>
        <time>2022-10-11T10:14:16Z</time>
      </trkpt>
      <trkpt lat="48.97088" lon="2.03232">
        <ele>41.1</ele>
        <time>2022-10-11T10:14:20Z</time>
      </trkpt>
      <trkpt lat="48.97093" lon="2.03232">
        <ele>41.8</ele>
        <time>2022-10-11T10:14:23Z</time>
      </trkpt>
      <trkpt lat="48.97098" lon="2.03232">
        <ele>42.5</ele>
        <time>2022-10-11T10:14:27Z</time>
      </trkpt>
      <trkpt lat="48.97103" lon="2.03232">
        <ele>43.3</ele>
        <time>2022-10-11T10:14:31Z</time>
      </trkpt>
      <trkpt lat="48.97107" lon="2.0324">
        <ele>45</ele>
        <time>2022-10-11T10:14:36Z</time>
      </trkpt>
      <trkpt lat="48.97108" lon="2.0325">
        <ele>44.6</ele>
        <time>2022-10-11T10:14:40Z</time>
      </trkpt>
      <trkpt lat="48.97111" lon="2.03255">
        <ele>43</ele>
        <time>2022-10-11T10:14:44Z</time>
      </trkpt>
      <trkpt lat="48.97113" lon="2.03262">
        <ele>41.5</ele>
        <time>2022-10-11T10:14:48Z</time>
      </trkpt>
      <trkpt lat="48.97114" lon="2.0327">
        <ele>40.3</ele>
        <time>2022-10-11T10:14:52Z</time>
      </trkpt>
      <trkpt lat="48.97114" lon="2.03278">
        <ele>39.1</ele>
        <time>2022-10-11T10:14:56Z</time>
      </trkpt>
      <trkpt lat="48.97113" lon="2.03285">
        <ele>38.5</ele>
        <time>2022-10-11T10:15:00Z</time>
      </trkpt>
      <trkpt lat="48.97113" lon="2.03293">
        <ele>38.4</ele>
        <time>2022-10-11T10:15:04Z</time>
      </trkpt>
      <trkpt lat="48.9711" lon="2.033">
        <ele>38.6</ele>
        <time>2022-10-11T10:15:08Z</time>
      </trkpt>
      <trkpt lat="48.97109" lon="2.03307">
        <ele>39.2</ele>
        <time>2022-10-11T10:15:11Z</time>
      </trkpt>
      <trkpt lat="48.97114" lon="2.03313">
        <ele>40.1</ele>
        <time>2022-10-11T10:15:16Z</time>
      </trkpt>
      <trkpt lat="48.9712" lon="2.03314">
        <ele>41.4</ele>
        <time>2022-10-11T10:15:20Z</time>
      </trkpt>
      <trkpt lat="48.97125" lon="2.03314">
        <ele>42.6</ele>
        <time>2022-10-11T10:15:25Z</time>
      </trkpt>
      <trkpt lat="48.9713" lon="2.03314">
        <ele>44</ele>
        <time>2022-10-11T10:15:29Z</time>
      </trkpt>
      <trkpt lat="48.97135" lon="2.03314">
        <ele>44.6</ele>
        <time>2022-10-11T10:15:32Z</time>
      </trkpt>
      <trkpt lat="48.9714" lon="2.03316">
        <ele>44.7</ele>
        <time>2022-10-11T10:15:36Z</time>
      </trkpt>
      <trkpt lat="48.97146" lon="2.03318">
        <ele>45.7</ele>
        <time>2022-10-11T10:15:40Z</time>
      </trkpt>
      <trkpt lat="48.97149" lon="2.03325">
        <ele>46.9</ele>
        <time>2022-10-11T10:15:46Z</time>
      </trkpt>
      <trkpt lat="48.97153" lon="2.03331">
        <ele>48.5</ele>
        <time>2022-10-11T10:15:51Z</time>
      </trkpt>
      <trkpt lat="48.97157" lon="2.03336">
        <ele>48.8</ele>
        <time>2022-10-11T10:15:55Z</time>
      </trkpt>
      <trkpt lat="48.9716" lon="2.03342">
        <ele>48.1</ele>
        <time>2022-10-11T10:16:11Z</time>
      </trkpt>
      <trkpt lat="48.97165" lon="2.03342">
        <ele>48.3</ele>
        <time>2022-10-11T10:16:16Z</time>
      </trkpt>
      <trkpt lat="48.97171" lon="2.03341">
        <ele>49</ele>
        <time>2022-10-11T10:16:21Z</time>
      </trkpt>
      <trkpt lat="48.97175" lon="2.03343">
        <ele>48.6</ele>
        <time>2022-10-11T10:16:26Z</time>
      </trkpt>
      <trkpt lat="48.9718" lon="2.03342">
        <ele>46.8</ele>
        <time>2022-10-11T10:16:33Z</time>
      </trkpt>
      <trkpt lat="48.97185" lon="2.03341">
        <ele>46.4</ele>
        <time>2022-10-11T10:16:37Z</time>
      </trkpt>
      <trkpt lat="48.9719" lon="2.03341">
        <ele>46.4</ele>
        <time>2022-10-11T10:16:41Z</time>
      </trkpt>
      <trkpt lat="48.97195" lon="2.03342">
        <ele>45.4</ele>
        <time>2022-10-11T10:16:45Z</time>
      </trkpt>
      <trkpt lat="48.97201" lon="2.03343">
        <ele>45.2</ele>
        <time>2022-10-11T10:16:51Z</time>
      </trkpt>
      <trkpt lat="48.97207" lon="2.03341">
        <ele>46.7</ele>
        <time>2022-10-11T10:16:56Z</time>
      </trkpt>
      <trkpt lat="48.97212" lon="2.03337">
        <ele>48.1</ele>
        <time>2022-10-11T10:17:01Z</time>
      </trkpt>
      <trkpt lat="48.97218" lon="2.03334">
        <ele>49.2</ele>
        <time>2022-10-11T10:17:07Z</time>
      </trkpt>
      <trkpt lat="48.97222" lon="2.03334">
        <ele>50.2</ele>
        <time>2022-10-11T10:17:12Z</time>
      </trkpt>
      <trkpt lat="48.97221" lon="2.03341">
        <ele>52</ele>
        <time>2022-10-11T10:17:30Z</time>
      </trkpt>
      <trkpt lat="48.9722" lon="2.03348">
        <ele>51.5</ele>
        <time>2022-10-11T10:17:36Z</time>
      </trkpt>
      <trkpt lat="48.97219" lon="2.03357">
        <ele>51.3</ele>
        <time>2022-10-11T10:17:41Z</time>
      </trkpt>
      <trkpt lat="48.97218" lon="2.03366">
        <ele>51.5</ele>
        <time>2022-10-11T10:17:46Z</time>
      </trkpt>
      <trkpt lat="48.97216" lon="2.03373">
        <ele>51</ele>
        <time>2022-10-11T10:17:50Z</time>
      </trkpt>
      <trkpt lat="48.97215" lon="2.0338">
        <ele>48.8</ele>
        <time>2022-10-11T10:17:54Z</time>
      </trkpt>
      <trkpt lat="48.97215" lon="2.03387">
        <ele>48.8</ele>
        <time>2022-10-11T10:17:58Z</time>
      </trkpt>
      <trkpt lat="48.97216" lon="2.03394">
        <ele>49.2</ele>
        <time>2022-10-11T10:18:01Z</time>
      </trkpt>
      <trkpt lat="48.97219" lon="2.03401">
        <ele>50.7</ele>
        <time>2022-10-11T10:18:06Z</time>
      </trkpt>
      <trkpt lat="48.97221" lon="2.03409">
        <ele>51.3</ele>
        <time>2022-10-11T10:18:11Z</time>
      </trkpt>
      <trkpt lat="48.97223" lon="2.03417">
        <ele>52.4</ele>
        <time>2022-10-11T10:18:16Z</time>
      </trkpt>
      <trkpt lat="48.97225" lon="2.03425">
        <ele>52.6</ele>
        <time>2022-10-11T10:18:21Z</time>
      </trkpt>
      <trkpt lat="48.97225" lon="2.03434">
        <ele>52.7</ele>
        <time>2022-10-11T10:18:26Z</time>
      </trkpt>
      <trkpt lat="48.97226" lon="2.03443">
        <ele>52.3</ele>
        <time>2022-10-11T10:18:31Z</time>
      </trkpt>
      <trkpt lat="48.97226" lon="2.0345">
        <ele>50.1</ele>
        <time>2022-10-11T10:18:35Z</time>
      </trkpt>
      <trkpt lat="48.97228" lon="2.03457">
        <ele>48.2</ele>
        <time>2022-10-11T10:18:40Z</time>
      </trkpt>
      <trkpt lat="48.97225" lon="2.03452">
        <ele>46.1</ele>
        <time>2022-10-11T10:19:14Z</time>
      </trkpt>
      <trkpt lat="48.97219" lon="2.03455">
        <ele>46.4</ele>
        <time>2022-10-11T10:19:20Z</time>
      </trkpt>
      <trkpt lat="48.97217" lon="2.03462">
        <ele>49.7</ele>
        <time>2022-10-11T10:19:28Z</time>
      </trkpt>
      <trkpt lat="48.97213" lon="2.03468">
        <ele>51.3</ele>
        <time>2022-10-11T10:19:33Z</time>
      </trkpt>
      <trkpt lat="48.9721" lon="2.03473">
        <ele>53.4</ele>
        <time>2022-10-11T10:19:37Z</time>
      </trkpt>
      <trkpt lat="48.97206" lon="2.03476">
        <ele>54.3</ele>
        <time>2022-10-11T10:19:43Z</time>
      </trkpt>
      <trkpt lat="48.9721" lon="2.03473">
        <ele>52.4</ele>
        <time>2022-10-11T10:20:43Z</time>
      </trkpt>
      <trkpt lat="48.97207" lon="2.03484">
        <ele>51.6</ele>
        <time>2022-10-11T10:20:49Z</time>
      </trkpt>
      <trkpt lat="48.97205" lon="2.03492">
        <ele>51.9</ele>
        <time>2022-10-11T10:20:54Z</time>
      </trkpt>
      <trkpt lat="48.97211" lon="2.03494">
        <ele>54.6</ele>
        <time>2022-10-11T10:21:03Z</time>
      </trkpt>
      <trkpt lat="48.97214" lon="2.03488">
        <ele>53.7</ele>
        <time>2022-10-11T10:21:18Z</time>
      </trkpt>
      <trkpt lat="48.97218" lon="2.03484">
        <ele>55.9</ele>
        <time>2022-10-11T10:22:39Z</time>
      </trkpt>
      <trkpt lat="48.97222" lon="2.03488">
        <ele>57.3</ele>
        <time>2022-10-11T10:22:51Z</time>
      </trkpt>
      <trkpt lat="48.97226" lon="2.03493">
        <ele>55.2</ele>
        <time>2022-10-11T10:23:01Z</time>
      </trkpt>
      <trkpt lat="48.97231" lon="2.03497">
        <ele>57.4</ele>
        <time>2022-10-11T10:23:22Z</time>
      </trkpt>
      <trkpt lat="48.97235" lon="2.03499">
        <ele>57.3</ele>
        <time>2022-10-11T10:23:29Z</time>
      </trkpt>
      <trkpt lat="48.97239" lon="2.03502">
        <ele>57.4</ele>
        <time>2022-10-11T10:23:33Z</time>
      </trkpt>
      <trkpt lat="48.97244" lon="2.03502">
        <ele>59.6</ele>
        <time>2022-10-11T10:23:38Z</time>
      </trkpt>
      <trkpt lat="48.97251" lon="2.03502">
        <ele>60.6</ele>
        <time>2022-10-11T10:23:43Z</time>
      </trkpt>
      <trkpt lat="48.97256" lon="2.03503">
        <ele>59.9</ele>
        <time>2022-10-11T10:23:48Z</time>
      </trkpt>
      <trkpt lat="48.97261" lon="2.03506">
        <ele>57</ele>
        <time>2022-10-11T10:23:53Z</time>
      </trkpt>
      <trkpt lat="48.97266" lon="2.03508">
        <ele>55.4</ele>
        <time>2022-10-11T10:23:58Z</time>
      </trkpt>
      <trkpt lat="48.97272" lon="2.03509">
        <ele>54.3</ele>
        <time>2022-10-11T10:24:03Z</time>
      </trkpt>
      <trkpt lat="48.97276" lon="2.03509">
        <ele>52.5</ele>
        <time>2022-10-11T10:24:08Z</time>
      </trkpt>
      <trkpt lat="48.97281" lon="2.03505">
        <ele>52.4</ele>
        <time>2022-10-11T10:24:12Z</time>
      </trkpt>
      <trkpt lat="48.97285" lon="2.03502">
        <ele>52.8</ele>
        <time>2022-10-11T10:24:18Z</time>
      </trkpt>
      <trkpt lat="48.9729" lon="2.03498">
        <ele>53.1</ele>
        <time>2022-10-11T10:24:23Z</time>
      </trkpt>
      <trkpt lat="48.97295" lon="2.03496">
        <ele>53.5</ele>
        <time>2022-10-11T10:24:28Z</time>
      </trkpt>
      <trkpt lat="48.973" lon="2.03494">
        <ele>53.6</ele>
        <time>2022-10-11T10:24:33Z</time>
      </trkpt>
      <trkpt lat="48.97306" lon="2.03492">
        <ele>54.6</ele>
        <time>2022-10-11T10:24:37Z</time>
      </trkpt>
      <trkpt lat="48.97309" lon="2.03487">
        <ele>55.2</ele>
        <time>2022-10-11T10:24:44Z</time>
      </trkpt>
      <trkpt lat="48.97313" lon="2.03485">
        <ele>55.1</ele>
        <time>2022-10-11T10:24:48Z</time>
      </trkpt>
      <trkpt lat="48.97319" lon="2.03483">
        <ele>53.9</ele>
        <time>2022-10-11T10:24:53Z</time>
      </trkpt>
      <trkpt lat="48.97324" lon="2.03483">
        <ele>53.4</ele>
        <time>2022-10-11T10:24:58Z</time>
      </trkpt>
      <trkpt lat="48.9733" lon="2.03484">
        <ele>53.3</ele>
        <time>2022-10-11T10:25:03Z</time>
      </trkpt>
      <trkpt lat="48.97335" lon="2.03484">
        <ele>53.7</ele>
        <time>2022-10-11T10:25:08Z</time>
      </trkpt>
      <trkpt lat="48.9734" lon="2.03484">
        <ele>53.6</ele>
        <time>2022-10-11T10:25:12Z</time>
      </trkpt>
      <trkpt lat="48.97347" lon="2.03485">
        <ele>53.8</ele>
        <time>2022-10-11T10:25:18Z</time>
      </trkpt>
      <trkpt lat="48.97352" lon="2.03486">
        <ele>54.4</ele>
        <time>2022-10-11T10:25:23Z</time>
      </trkpt>
      <trkpt lat="48.97357" lon="2.03481">
        <ele>55.6</ele>
        <time>2022-10-11T10:25:28Z</time>
      </trkpt>
      <trkpt lat="48.97359" lon="2.03475">
        <ele>55.8</ele>
        <time>2022-10-11T10:25:33Z</time>
      </trkpt>
      <trkpt lat="48.97362" lon="2.03466">
        <ele>59.1</ele>
        <time>2022-10-11T10:25:43Z</time>
      </trkpt>
      <trkpt lat="48.97364" lon="2.03459">
        <ele>60.4</ele>
        <time>2022-10-11T10:25:49Z</time>
      </trkpt>
      <trkpt lat="48.97367" lon="2.03454">
        <ele>59.7</ele>
        <time>2022-10-11T10:25:55Z</time>
      </trkpt>
      <trkpt lat="48.97369" lon="2.03461">
        <ele>58.1</ele>
        <time>2022-10-11T10:26:03Z</time>
      </trkpt>
      <trkpt lat="48.97374" lon="2.03466">
        <ele>56.4</ele>
        <time>2022-10-11T10:26:18Z</time>
      </trkpt>
      <trkpt lat="48.97377" lon="2.03472">
        <ele>56.9</ele>
        <time>2022-10-11T10:26:22Z</time>
      </trkpt>
      <trkpt lat="48.97379" lon="2.0348">
        <ele>57</ele>
        <time>2022-10-11T10:26:25Z</time>
      </trkpt>
      <trkpt lat="48.97381" lon="2.03488">
        <ele>57.2</ele>
        <time>2022-10-11T10:26:29Z</time>
      </trkpt>
      <trkpt lat="48.9738" lon="2.03495">
        <ele>57.1</ele>
        <time>2022-10-11T10:26:31Z</time>
      </trkpt>
      <trkpt lat="48.97379" lon="2.03504">
        <ele>57</ele>
        <time>2022-10-11T10:26:36Z</time>
      </trkpt>
      <trkpt lat="48.9738" lon="2.03511">
        <ele>56.8</ele>
        <time>2022-10-11T10:26:40Z</time>
      </trkpt>
      <trkpt lat="48.97382" lon="2.03518">
        <ele>56.5</ele>
        <time>2022-10-11T10:26:44Z</time>
      </trkpt>
      <trkpt lat="48.97385" lon="2.03525">
        <ele>55.9</ele>
        <time>2022-10-11T10:26:50Z</time>
      </trkpt>
      <trkpt lat="48.97384" lon="2.03532">
        <ele>55.2</ele>
        <time>2022-10-11T10:26:56Z</time>
      </trkpt>
      <trkpt lat="48.9738" lon="2.03538">
        <ele>54.9</ele>
        <time>2022-10-11T10:27:02Z</time>
      </trkpt>
    </trkseg>
  </trk>
</gpx>